GFSGBSN_sfc_temp_000.txt.gz
Temp
67 67 66 66 66 65 65 64 64 64 64 64 64 64 63 63 63 63 63 63 63 64 64 64 64 63 60 51 57 72 69 69 72 69 64 64 58 63 59 65 67 64 69 70 72 71 71
67 66 66 66 65 65 65 64 63 63 63 64 64 63 63 63 63 63 63 63 63 63 63 63 63 62 58 46 69 73 72 70 68 68 62 65 63 69 66 66 65 68 68 69 72 71 71
66 66 66 66 65 65 65 64 63 63 63 63 63 63 63 63 63 63 62 63 63 63 63 63 63 63 55 54 69 70 67 67 69 68 63 68 68 63 68 62 70 70 62 67 69 69 69
66 66 66 66 65 64 64 64 63 63 63 63 63 63 63 62 62 62 62 62 62 62 63 62 63 60 50 66 71 67 69 66 69 70 68 70 68 58 60 70 66 62 62 56 68 69 70
66 65 66 66 65 65 64 63 63 63 63 63 63 63 63 62 62 61 61 61 61 62 62 62 59 55 49 65 59 66 68 62 64 66 68 68 62 55 61 56 52 58 53 55 60 69 68
65 65 65 65 65 65 64 64 63 63 62 62 62 62 62 62 61 61 60 60 60 60 60 60 59 49 54 52 60 63 66 65 60 61 58 57 53 49 52 49 45 50 53 58 58 65 64
65 65 65 65 64 64 64 63 63 63 62 62 62 61 61 61 60 59 57 55 47 46 51 48 49 51 54 61 63 59 63 60 59 56 46 55 44 42 53 53 59 61 59 56 62 65 61
64 65 64 64 64 64 64 63 62 62 62 61 61 60 60 61 60 59 56 49 51 54 42 51 52 53 57 59 50 56 63 53 50 43 48 48 41 54 53 57 57 60 56 55 64 62 61
64 64 64 64 64 64 63 62 62 62 61 61 60 60 60 60 59 55 52 52 55 54 41 45 49 50 53 56 51 52 57 55 48 44 44 43 47 56 51 54 53 57 55 57 58 59 61
64 64 64 64 64 63 62 62 61 61 60 60 59 59 59 58 51 54 51 52 54 54 34 38 43 48 53 55 47 60 60 56 50 44 43 47 54 51 50 51 57 52 62 59 55 51 50
63 63 63 63 63 62 62 61 61 61 60 59 59 59 59 57 54 51 52 53 53 49 25 44 43 59 55 50 53 52 61 56 47 44 42 42 46 44 48 52 60 56 61 58 55 52 53
63 63 63 62 62 62 62 61 61 60 59 59 58 58 58 57 57 55 54 54 50 33 25 37 44 43 43 48 52 52 51 58 56 47 46 50 52 49 56 59 60 60 57 55 54 53 46
62 62 62 62 62 61 61 61 60 60 59 59 58 58 57 60 54 56 54 47 33 28 39 35 37 40 42 42 46 44 45 43 38 36 35 40 40 50 59 49 52 58 52 37 37 39 45
58 62 62 61 62 61 61 60 60 60 59 58 57 57 57 58 61 56 50 39 29 37 35 42 41 41 38 45 45 43 44 41 44 43 42 33 36 45 57 54 46 50 55 48 38 42 47
57 61 61 61 61 61 61 60 60 59 58 57 56 55 54 57 59 54 43 32 35 38 40 37 41 36 40 44 45 42 45 44 44 45 40 35 35 48 54 55 56 45 44 58 48 48 48
55 57 61 61 61 61 60 60 60 59 58 57 53 51 52 59 57 50 37 36 38 45 43 47 39 44 39 42 40 41 44 50 46 50 54 48 37 49 51 56 51 53 59 45 49 40 39
55 57 59 61 61 60 59 59 59 58 58 56 53 45 55 58 54 43 34 37 43 48 49 49 46 43 45 43 39 44 45 51 52 53 54 53 52 42 52 46 46 52 47 50 54 50 47
55 56 58 60 60 59 59 58 59 58 56 55 51 43 53 54 42 42 38 42 46 47 51 53 53 50 47 47 40 42 46 49 58 56 48 53 55 41 44 52 59 58 54 55 48 43 49
55 56 56 58 59 58 58 58 58 58 56 51 50 47 53 52 38 38 44 43 45 47 50 52 50 52 52 47 40 44 49 56 57 53 52 56 52 42 40 47 51 49 54 57 57 53 48
54 54 55 57 59 58 57 57 57 57 57 54 50 43 47 48 48 43 42 42 43 53 53 55 53 54 49 46 50 46 49 54 56 56 54 55 53 52 44 49 54 48 51 54 54 48 50
54 54 55 56 59 58 57 56 57 57 56 53 49 48 50 41 42 43 44 44 42 45 51 51 51 52 51 45 45 46 51 50 54 54 55 54 49 52 52 54 55 53 51 51 50 54 50
54 54 55 56 56 58 57 56 56 56 55 50 49 47 50 51 49 45 43 43 42 45 46 44 44 52 54 49 49 47 48 51 49 52 53 56 49 51 47 49 53 50 53 53 54 55 56
54 53 54 55 56 58 57 56 56 56 54 48 52 51 51 51 49 45 43 44 44 46 46 47 50 51 51 54 60 59 59 59 57 53 51 52 51 49 45 48 49 44 51 52 54 58 57
53 53 53 54 55 57 56 56 55 55 54 52 53 53 48 48 50 47 47 46 44 46 45 46 52 53 56 58 60 61 57 55 58 56 59 52 50 49 42 45 35 53 53 59 56 59 60
53 52 53 54 55 56 56 56 55 55 54 50 51 52 49 47 52 47 46 44 44 45 44 48 47 50 59 56 52 47 46 44 45 47 51 58 46 41 41 38 49 49 49 50 50 53 56
53 52 52 52 53 55 56 56 55 55 55 50 49 53 50 47 51 49 45 46 42 43 45 45 48 52 51 52 51 39 36 42 38 40 47 48 47 41 37 37 39 49 52 56 57 50 54
52 52 51 52 53 54 55 55 55 55 55 51 50 53 51 47 51 50 49 47 45 42 44 48 45 48 48 46 43 41 43 49 41 40 38 42 44 39 43 40 48 53 54 56 47 50 53
51 52 51 51 52 53 55 55 55 55 54 51 50 52 52 48 50 49 49 47 45 46 44 48 49 46 42 43 45 42 44 47 47 49 47 44 43 43 42 36 34 52 50 49 52 53 54
51 52 50 51 52 52 55 55 55 55 54 53 48 51 51 48 49 49 51 52 50 52 45 42 47 49 46 42 46 45 43 44 47 43 46 45 52 48 50 48 48 50 51 52 56 53 53

GFSGBSN_sfc_temp_003.txt.gz
Temp
67 67 66 66 66 66 66 65 64 64 64 64 64 64 64 64 64 64 64 63 63 63 64 64 64 63 63 56 59 73 70 71 75 71 68 67 64 64 58 66 66 64 70 74 75 75 74
67 67 66 66 66 66 65 65 64 64 64 64 64 64 64 63 63 63 63 63 63 63 63 63 63 62 61 48 74 77 75 74 72 71 67 68 66 70 65 62 63 68 70 71 74 73 74
66 66 66 66 66 65 65 65 64 64 63 64 64 63 63 63 63 63 63 63 63 63 63 63 63 64 58 57 73 75 73 70 73 72 67 70 71 67 67 61 68 68 62 68 70 73 72
65 66 66 66 66 65 64 64 64 63 63 63 63 63 63 63 63 62 62 63 63 63 63 63 63 63 51 71 74 70 71 69 72 72 70 72 72 66 62 62 58 60 59 52 66 71 73
65 65 65 65 66 65 65 64 63 63 63 63 63 63 63 62 62 62 61 62 62 62 62 63 60 57 50 66 61 70 71 65 69 69 70 71 67 59 59 48 47 52 49 51 59 72 70
65 65 65 65 65 65 65 65 64 63 63 63 62 62 62 62 62 61 60 60 61 60 62 63 60 50 57 54 63 66 70 67 63 64 61 61 57 52 51 47 40 47 49 55 55 66 68
64 64 64 64 65 64 65 64 64 63 63 62 62 61 61 61 61 61 59 55 49 46 51 49 50 55 57 64 66 61 66 62 62 58 49 56 46 42 51 49 54 56 54 56 61 68 67
64 64 64 64 64 64 64 64 63 63 62 62 61 61 60 61 61 60 59 49 52 53 43 53 56 56 60 62 52 57 66 54 53 46 53 47 40 54 58 55 52 53 54 57 60 66 64
63 64 64 64 64 64 64 63 63 62 62 61 61 60 60 60 60 57 56 53 56 55 42 44 51 52 55 56 51 54 60 56 52 46 48 44 49 57 56 50 48 54 52 55 56 64 64
62 63 63 63 64 64 63 62 62 62 61 60 60 60 59 58 54 60 53 58 55 54 33 40 42 47 52 50 45 60 63 57 50 46 50 47 54 50 53 47 49 46 57 61 58 57 51
56 58 62 63 63 63 63 62 62 61 60 59 59 59 59 58 56 51 52 54 53 49 26 47 43 58 53 44 54 55 64 56 47 48 44 42 46 44 47 48 50 49 58 61 58 57 53
57 57 59 62 62 62 62 62 61 61 60 59 58 58 58 57 58 58 55 54 50 33 27 38 45 42 43 45 51 56 55 59 58 47 47 47 53 51 51 53 50 56 56 56 58 56 45
57 56 56 60 62 61 61 61 61 60 59 59 58 58 57 64 56 57 54 48 33 29 41 35 36 41 42 41 46 48 44 42 38 33 35 40 40 44 50 43 47 53 47 41 40 42 45
56 55 55 56 60 61 62 61 61 60 59 58 57 57 57 63 62 56 50 38 29 41 38 41 39 39 36 43 46 47 41 38 46 40 37 33 33 41 48 46 43 47 50 48 38 41 48
54 54 54 55 56 61 61 61 60 60 59 57 57 54 54 57 60 54 43 31 36 42 41 38 39 34 35 41 47 45 41 40 48 45 35 35 35 47 48 55 53 44 47 59 53 55 52
55 54 54 55 57 60 61 61 60 59 58 56 53 50 52 64 59 50 38 35 40 48 42 42 36 43 37 41 44 43 41 49 48 50 46 40 34 43 49 54 49 51 61 49 54 42 42
55 54 54 55 56 59 59 60 60 59 58 56 52 46 61 60 56 44 34 36 44 50 46 46 47 45 47 45 45 44 46 53 54 52 46 44 38 37 46 47 44 45 49 55 59 55 48
55 54 54 55 55 54 58 59 59 59 57 53 50 43 56 55 42 41 37 40 46 46 48 52 55 53 51 50 46 46 47 51 58 55 39 47 41 36 38 55 59 55 52 58 52 46 53
54 54 54 54 54 55 57 59 58 58 56 52 47 53 53 52 38 38 43 41 44 44 49 52 52 55 56 51 45 49 51 58 58 54 48 54 44 36 38 47 54 50 57 60 60 58 52
54 54 54 53 55 55 56 58 57 57 57 53 50 42 46 47 48 44 40 40 40 50 50 55 54 57 52 50 54 48 50 56 58 57 54 56 51 50 45 50 53 48 52 58 57 51 52
54 54 53 53 54 55 56 57 57 57 56 51 49 47 52 40 41 43 44 43 39 42 51 55 50 53 51 47 49 47 52 54 56 56 55 53 49 55 56 58 57 55 53 53 52 55 52
53 54 53 53 54 54 55 56 56 56 56 48 46 51 53 48 49 45 42 41 40 43 50 46 45 54 55 52 52 48 53 54 50 55 53 53 48 53 50 54 57 53 56 56 56 57 57
53 53 53 52 53 54 54 56 56 56 54 48 50 57 54 52 52 46 45 43 43 46 48 54 50 50 53 57 61 63 63 61 59 55 51 48 48 50 45 52 52 46 55 56 57 59 59
53 53 53 52 52 53 53 55 56 55 55 52 52 53 51 46 54 52 51 46 44 45 44 50 50 46 58 66 66 65 62 53 58 58 59 50 49 51 43 49 36 54 58 61 59 61 63
53 53 53 52 52 53 53 55 56 55 55 51 51 49 52 47 54 55 47 46 43 46 45 45 48 55 61 61 53 45 44 42 44 45 53 55 51 45 41 41 49 55 53 55 55 55 64
53 52 52 52 52 52 53 53 55 55 55 51 49 51 51 48 53 54 49 45 41 41 40 43 50 56 57 52 48 38 35 38 36 39 44 50 51 45 42 39 38 51 55 60 61 50 63
52 52 52 52 51 52 52 52 55 55 55 52 49 52 50 48 56 54 50 46 45 45 45 47 50 50 51 45 44 44 42 49 37 36 35 39 41 38 37 38 49 57 57 59 47 50 57
52 52 52 52 51 51 52 52 55 55 55 52 49 51 54 51 54 52 53 46 42 44 49 46 50 50 45 44 45 45 49 51 49 49 42 40 37 38 38 36 36 58 54 51 54 57 59
52 52 52 51 50 51 51 53 55 55 54 53 48 51 56 50 51 53 54 53 48 47 46 52 48 51 49 43 48 48 44 50 52 44 53 45 53 51 51 49 53 57 54 56 60 58 58

GFSGBSN_sfc_temp_006.txt.gz
Temp
67 66 66 67 66 66 66 66 65 64 64 64 64 64 64 64 64 64 64 64 64 64 64 64 64 64 62 55 57 70 70 71 72 69 64 63 60 59 54 60 63 61 65 69 71 71 71
66 66 66 66 66 66 66 66 65 64 64 64 64 64 64 64 63 63 63 63 64 64 64 63 64 63 57 48 73 75 72 72 71 70 65 65 63 65 60 60 58 64 65 66 69 70 70
66 66 66 66 66 66 66 65 65 64 64 64 64 64 63 63 63 63 63 63 63 63 63 63 63 63 56 55 73 74 74 70 71 69 64 69 68 61 64 58 64 63 55 63 64 67 68
65 65 66 66 66 65 65 65 64 64 64 64 64 63 63 63 63 63 62 62 63 63 63 63 63 61 50 69 71 70 71 68 71 71 68 69 68 62 59 62 57 53 54 46 61 66 68
65 65 65 65 65 65 65 64 64 64 64 64 63 63 63 63 62 62 61 61 62 62 62 62 59 56 49 68 61 68 69 63 67 69 68 70 65 56 57 49 45 50 43 46 52 65 65
63 65 65 64 64 65 65 65 64 64 64 63 63 62 62 62 62 61 61 60 60 60 60 63 61 49 55 54 62 65 68 67 61 61 59 58 54 49 48 45 36 41 43 49 48 58 63
63 62 64 64 64 64 65 65 64 64 64 62 62 61 61 61 61 60 59 57 50 47 51 49 51 53 58 63 66 61 65 62 60 55 45 53 44 39 44 47 49 50 50 48 55 61 59
61 61 63 63 64 64 64 64 64 63 63 62 61 61 61 61 61 60 59 51 53 51 43 51 55 55 61 62 53 57 65 52 50 42 48 45 39 48 52 52 49 48 46 45 55 61 59
60 61 59 61 63 63 64 64 63 63 62 62 61 60 60 60 60 57 55 55 58 56 41 45 50 51 55 57 51 54 58 54 48 43 44 40 45 52 51 49 47 48 45 46 48 59 57
60 60 59 58 60 62 63 63 63 63 62 60 60 60 60 59 54 58 53 60 57 55 34 39 41 48 53 50 43 59 62 54 48 43 45 44 51 49 47 45 48 42 52 51 48 49 42
58 59 59 58 57 57 62 62 62 62 61 60 60 59 59 59 56 53 54 55 54 49 25 43 43 57 53 44 48 49 59 55 45 45 46 39 45 45 44 45 51 46 54 50 48 45 43
58 57 58 57 56 56 58 62 62 61 60 59 59 59 58 56 56 55 56 55 51 33 25 38 44 41 42 43 45 49 51 56 54 45 47 45 53 49 47 50 48 54 48 47 47 43 37
57 57 57 57 55 54 56 60 61 61 60 59 58 58 57 62 52 56 55 48 33 28 43 36 37 42 42 39 40 42 43 42 37 32 32 37 40 47 45 40 49 48 43 34 33 32 34
56 57 56 56 54 54 56 59 61 61 60 58 58 57 57 60 57 56 51 39 28 42 39 42 39 39 36 40 39 39 41 37 44 40 34 31 31 40 45 39 43 43 42 34 30 31 39
56 56 56 55 54 53 56 59 61 60 59 58 57 54 53 56 57 55 43 30 35 41 43 38 37 34 34 38 39 39 40 36 43 44 31 33 32 48 49 48 47 41 35 43 38 49 40
55 55 56 55 54 53 55 56 60 59 58 57 51 50 50 58 56 49 38 35 39 46 42 40 35 39 34 36 37 40 40 47 44 48 46 36 31 44 47 48 49 44 50 36 42 36 34
55 55 55 55 54 53 54 56 58 58 58 57 49 44 55 57 53 44 34 36 42 48 45 39 41 41 43 38 40 41 42 48 50 49 44 39 35 36 41 42 42 42 41 44 46 45 38
55 55 54 54 53 53 55 55 56 59 57 54 48 41 55 55 41 42 37 42 44 44 48 45 45 46 47 46 42 43 42 47 55 52 40 41 36 33 36 46 50 49 47 47 44 39 43
55 55 54 53 53 53 54 54 55 59 56 51 45 46 53 52 37 37 42 42 42 43 45 45 47 53 54 49 42 46 47 55 55 47 42 42 36 32 33 41 46 44 47 51 50 49 41
55 55 54 53 53 53 53 54 56 58 58 54 46 41 45 46 47 43 39 39 38 46 44 48 49 54 51 48 51 44 48 53 55 53 51 47 42 35 35 41 45 42 46 49 49 41 43
54 55 54 54 53 53 52 54 54 57 57 51 46 44 47 38 40 42 43 41 38 38 47 49 48 50 48 44 46 47 49 52 54 54 49 44 39 45 51 51 51 50 49 50 47 48 41
54 54 54 54 54 52 53 52 53 56 55 49 43 44 48 47 47 44 42 41 39 41 43 45 45 50 50 47 48 46 50 49 47 51 50 50 41 47 46 52 52 48 51 50 50 50 49
54 54 54 54 54 52 53 52 53 56 54 48 49 52 49 49 47 43 43 42 43 43 45 47 47 49 47 52 57 59 57 57 55 51 47 46 43 43 38 46 47 40 48 50 50 52 51
53 54 54 53 53 52 52 52 53 56 56 51 50 49 44 41 48 48 49 49 45 45 42 48 51 47 53 60 61 58 55 51 52 53 54 44 44 44 37 40 29 45 50 54 53 54 55
53 53 53 53 53 52 52 52 53 53 56 51 50 47 45 41 48 50 51 48 46 45 44 46 50 54 53 53 48 43 42 43 43 45 45 52 46 38 34 34 43 47 49 48 48 48 56
53 53 53 53 53 52 52 52 53 53 56 52 49 50 46 42 43 51 48 46 41 40 41 44 48 50 50 47 45 37 34 38 36 38 46 48 48 41 33 31 30 43 49 55 54 40 52
53 53 53 53 52 52 52 51 52 53 55 52 49 52 47 42 49 50 45 44 46 42 40 42 43 45 47 43 41 36 36 43 35 35 36 39 39 36 37 34 39 50 51 52 39 41 50
52 52 52 52 52 52 52 51 51 52 55 52 49 52 48 45 49 51 51 45 44 43 41 45 44 44 42 40 41 40 41 44 39 42 40 39 37 37 37 34 32 52 49 44 47 48 51
52 52 52 52 52 52 52 52 52 52 54 54 47 51 51 45 47 52 53 52 49 47 44 45 46 49 48 44 44 44 40 43 45 37 47 39 44 41 41 42 49 50 48 50 53 50 51

GFSGBSN_sfc_temp_009.txt.gz
Temp
67 66 66 66 66 66 66 66 66 65 65 65 65 64 64 64 64 64 64 63 64 64 64 64 64 64 60 51 53 67 72 71 69 66 61 59 54 52 48 52 54 52 58 63 66 66 66
66 66 66 66 66 66 66 66 65 65 65 65 64 64 64 64 63 63 63 63 63 63 63 63 63 63 54 44 66 68 67 67 68 65 60 60 57 58 54 52 51 57 58 61 64 64 65
64 64 66 66 66 65 65 65 65 65 65 65 65 64 63 63 63 63 63 63 63 63 63 63 63 61 52 50 66 66 69 65 66 64 60 65 62 59 57 51 58 58 52 56 58 62 61
64 64 63 65 65 65 65 64 64 64 65 64 64 64 63 63 63 63 63 62 62 62 63 63 63 56 46 65 66 65 66 64 65 66 64 64 66 58 57 57 53 49 50 44 55 58 61
63 63 63 62 65 65 65 64 64 64 64 64 64 63 63 62 62 62 61 61 61 62 62 62 55 51 45 66 58 63 64 61 62 63 63 68 60 52 52 46 42 42 40 41 47 58 59
62 63 62 62 63 64 65 64 64 64 64 63 63 62 62 62 61 61 61 60 60 60 60 62 59 48 53 52 60 62 63 63 58 57 56 54 49 43 42 42 34 41 38 45 43 52 56
61 61 61 61 62 63 63 64 64 64 64 63 63 61 61 61 61 61 57 52 47 46 51 47 48 50 57 60 63 59 62 58 57 51 40 47 39 37 39 43 44 44 44 45 49 55 53
60 60 61 61 60 61 62 63 63 63 63 63 62 61 61 61 61 60 55 49 48 50 43 52 52 54 59 61 52 56 62 50 48 41 43 40 36 44 48 47 45 44 40 39 47 53 50
60 60 60 60 60 60 59 62 62 63 63 63 62 60 60 60 60 55 51 54 54 56 41 46 50 49 52 57 50 51 56 51 44 39 40 36 42 49 47 44 42 42 39 40 41 49 52
58 59 58 59 59 59 58 57 60 62 62 61 61 60 59 59 52 52 49 56 56 55 34 40 41 48 52 52 44 58 59 53 46 39 42 39 47 45 44 42 44 37 48 48 46 44 38
58 58 58 58 58 59 58 57 57 60 61 61 60 59 59 59 51 49 51 54 55 50 21 42 43 56 53 45 48 48 59 53 42 42 42 37 41 41 39 42 47 41 50 47 47 43 42
58 57 56 57 57 58 58 56 56 57 60 60 59 59 58 56 52 52 54 55 50 33 21 37 43 41 42 44 46 50 49 54 51 42 43 41 48 46 44 48 50 49 44 44 45 42 33
57 56 56 56 57 57 57 56 56 56 59 60 58 58 57 59 49 54 54 46 33 26 41 36 37 41 40 40 41 44 40 38 36 31 31 38 37 43 45 40 45 42 38 30 28 30 31
57 55 55 56 55 56 56 54 56 56 58 59 57 57 57 59 55 54 48 39 26 37 36 43 40 41 36 41 40 41 36 35 40 37 31 26 23 39 43 41 38 38 38 32 23 27 35
56 55 55 56 55 55 55 54 54 54 58 58 57 54 52 54 55 54 40 29 30 38 43 38 38 34 35 38 39 38 36 35 41 39 28 31 30 44 46 47 46 37 34 44 35 38 35
56 55 55 55 53 54 53 53 54 54 57 57 53 50 49 55 56 49 38 33 37 45 43 41 34 36 34 36 35 34 35 41 40 44 46 37 29 41 44 47 46 45 48 34 34 29 30
56 56 56 54 53 53 52 53 54 55 56 58 50 45 51 55 52 43 34 35 41 48 47 39 37 36 36 34 35 34 37 44 46 46 46 40 34 35 38 38 39 37 37 42 42 37 32
56 56 56 54 53 53 53 53 54 55 55 54 48 41 51 53 41 40 37 41 46 44 48 44 42 42 39 39 36 35 37 44 50 49 40 40 36 30 34 46 48 46 42 45 36 34 36
55 55 56 55 53 52 52 53 54 54 56 51 45 45 51 51 35 37 42 42 45 43 44 43 41 46 46 43 36 40 43 51 50 46 39 40 34 29 33 39 43 42 45 46 47 39 36
55 55 55 55 54 53 52 53 54 54 56 52 46 40 45 46 46 41 39 40 39 45 42 45 45 46 45 43 45 43 44 50 51 49 47 43 36 34 33 38 43 40 44 46 40 36 39
55 55 55 55 54 53 52 52 53 53 56 51 46 43 46 38 40 42 43 42 39 37 43 46 42 43 43 40 42 42 46 49 49 49 43 41 32 33 37 41 46 44 43 41 35 46 44
54 54 54 55 54 54 52 52 52 52 53 49 43 43 47 43 45 41 41 40 40 40 41 42 41 47 46 41 44 41 47 46 44 45 41 42 35 39 42 45 46 43 44 47 49 49 49
54 54 54 54 54 54 53 52 51 52 53 48 48 50 49 46 43 40 40 41 42 45 44 46 46 43 44 46 51 51 53 52 50 47 44 42 40 41 37 47 45 40 47 46 47 49 49
54 54 54 54 54 53 53 52 51 51 52 50 50 48 44 40 44 43 45 44 43 44 43 46 46 43 50 53 52 54 51 48 49 47 48 40 41 42 34 39 29 43 50 50 49 50 49
53 54 54 54 53 53 53 52 51 52 52 50 49 48 45 40 45 45 45 43 44 46 44 45 48 49 53 50 44 41 41 41 42 41 44 49 41 37 32 31 40 43 46 46 46 45 50
53 53 53 54 52 53 53 52 51 52 52 50 49 50 47 42 42 48 43 40 38 40 41 44 46 49 50 46 43 35 34 37 36 39 42 48 43 39 28 28 29 41 47 50 49 39 47
53 52 53 53 53 53 52 52 51 51 53 51 49 51 47 42 47 48 43 42 44 42 40 41 42 44 47 42 38 33 35 39 34 36 37 39 39 36 35 32 37 47 48 50 38 40 47
52 52 52 53 52 52 52 53 53 52 52 51 49 51 48 44 47 51 49 43 43 43 39 42 42 43 42 39 39 39 38 38 36 38 40 40 36 36 37 34 32 48 47 44 46 46 46
51 52 52 52 52 52 52 53 53 52 53 52 47 51 51 46 46 51 51 51 50 49 44 44 42 45 46 42 41 42 37 40 36 34 42 38 42 40 40 41 47 45 46 48 49 47 44

GFSGBSN_sfc_temp_012.txt.gz
Temp
64 64 64 66 66 66 66 66 65 66 66 66 65 65 64 64 64 64 63 63 63 63 63 63 63 63 59 50 51 65 72 71 67 65 60 57 51 50 46 49 51 48 52 58 61 61 62
64 64 64 64 64 66 66 66 65 65 66 66 65 64 64 64 64 63 63 63 63 63 63 63 63 62 53 42 63 66 66 64 65 62 58 58 54 55 50 49 48 53 54 55 58 60 61
63 63 64 64 64 62 65 65 65 64 65 66 65 64 63 63 63 63 63 63 63 63 63 63 63 60 50 49 64 63 65 62 64 63 58 60 59 54 53 49 55 53 47 51 54 56 56
61 62 62 63 63 63 62 64 64 64 65 65 65 64 63 63 63 63 63 63 62 62 62 63 63 55 44 63 63 62 62 61 64 64 62 62 63 57 56 57 50 45 44 39 51 56 57
62 61 61 61 62 62 62 62 63 63 64 65 64 63 63 62 62 62 61 62 61 61 62 62 54 50 43 64 56 61 61 58 60 60 61 67 61 54 51 47 42 41 35 38 45 55 54
62 62 61 60 61 62 61 61 61 63 63 64 63 63 62 62 61 61 61 61 61 60 60 61 59 47 52 51 58 60 61 61 56 55 54 52 49 41 40 42 33 39 36 38 40 49 52
61 61 60 61 60 61 61 61 62 62 63 63 63 62 61 61 61 60 57 51 46 45 51 47 49 48 54 58 61 57 60 57 54 49 39 45 38 37 38 42 42 40 39 38 42 51 49
60 60 59 59 59 59 60 60 60 59 62 63 62 62 61 61 61 60 53 46 47 50 41 50 51 52 57 60 51 55 59 48 48 40 41 40 35 45 45 44 42 40 37 37 43 50 50
59 59 60 58 58 59 59 59 60 58 61 62 62 62 61 60 60 56 50 50 54 52 40 46 49 48 51 55 49 51 55 50 44 42 43 37 41 47 44 41 39 39 36 37 38 45 48
59 59 59 58 57 57 58 59 59 58 57 59 62 61 60 59 53 50 49 54 53 54 33 38 41 48 51 52 45 58 59 53 45 40 41 40 45 43 41 39 41 34 44 44 42 40 33
58 58 58 57 56 57 57 58 58 58 56 57 60 61 59 59 48 47 52 53 53 49 14 41 42 56 52 47 48 47 59 53 41 40 40 36 38 38 37 40 44 38 46 43 43 38 36
58 57 56 56 55 56 57 56 57 57 56 56 57 59 58 54 51 51 53 54 48 26 15 36 42 40 41 44 46 50 49 53 49 42 43 40 47 44 43 46 46 46 42 41 40 37 29
57 57 57 56 56 55 55 55 55 56 56 56 57 58 57 58 48 53 54 47 30 16 40 35 37 40 40 40 41 43 41 38 36 31 31 35 36 43 46 41 44 43 36 26 23 25 27
57 56 56 57 56 54 54 54 56 56 55 54 55 57 57 58 55 55 49 37 15 34 34 42 40 40 36 40 40 42 38 34 40 36 32 30 26 38 43 41 38 39 38 27 18 20 28
56 56 56 57 57 54 53 54 55 55 55 55 54 54 52 54 55 53 44 28 26 35 41 39 40 34 35 39 40 38 37 36 39 38 30 29 28 42 43 44 45 36 32 42 33 34 29
56 56 57 57 57 54 53 54 54 54 55 54 50 50 49 55 56 49 38 31 34 43 43 42 34 37 32 35 35 34 34 39 38 42 42 34 23 39 42 45 44 40 43 30 32 21 22
56 56 56 57 56 56 53 53 54 53 54 54 48 44 50 55 53 42 33 34 39 45 45 40 38 37 36 34 34 33 33 40 42 42 42 38 33 32 35 36 36 36 35 38 37 34 28
56 56 55 56 55 55 54 52 53 54 54 51 48 37 51 52 40 39 36 41 46 43 46 44 43 40 38 37 33 32 33 41 47 46 36 42 35 29 33 43 44 43 38 39 32 30 36
55 55 56 55 55 55 54 52 54 54 53 50 45 44 51 50 35 35 41 43 45 43 44 43 41 43 43 38 34 37 40 49 49 47 41 40 33 27 30 35 42 37 41 41 39 41 34
54 55 55 55 55 55 54 53 53 53 53 50 44 38 43 45 45 40 39 40 39 46 45 45 43 44 41 39 42 40 41 48 50 49 47 43 35 32 29 34 39 36 40 43 39 34 35
53 54 55 55 55 55 54 53 52 52 53 48 45 42 45 36 39 42 43 42 39 39 43 45 40 41 41 36 38 38 44 46 48 47 43 39 32 32 35 38 38 40 41 40 37 41 35
53 54 54 55 54 55 54 53 51 52 52 48 43 43 46 43 44 42 42 40 40 41 42 40 38 44 42 37 41 39 43 43 40 43 40 40 32 34 36 39 38 41 42 45 44 40 38
53 53 53 54 54 54 53 53 52 51 51 46 48 49 49 43 42 40 40 41 42 44 44 46 44 43 40 43 47 49 50 51 48 42 39 37 34 36 33 42 40 36 41 42 37 39 39
53 53 53 54 54 54 53 53 52 51 50 47 49 45 43 40 42 42 43 43 41 43 42 45 46 42 49 51 51 49 48 47 46 47 49 39 40 40 34 37 29 44 50 46 42 46 47
53 53 53 53 54 54 53 53 52 51 52 47 49 48 43 40 46 45 45 43 42 44 44 46 47 51 50 46 42 41 38 41 40 41 45 46 43 35 31 30 37 43 45 45 44 45 48
53 53 53 53 53 53 53 53 52 51 52 49 48 50 46 42 42 49 44 44 40 37 40 44 47 49 48 44 41 35 33 35 34 35 41 43 44 38 28 28 29 40 44 47 46 38 47
53 52 52 53 53 53 53 52 52 51 51 49 49 51 48 43 47 48 43 43 43 40 40 41 43 43 47 42 39 35 34 38 34 34 37 38 38 35 31 31 35 45 46 47 36 40 45
52 52 52 52 52 53 53 52 52 52 51 49 49 51 49 45 47 51 49 43 42 42 39 43 41 42 42 39 38 38 38 35 34 35 36 38 36 36 35 28 27 45 45 40 45 43 43
52 51 51 52 52 52 52 52 52 52 52 51 47 51 52 46 46 50 52 52 50 50 45 44 43 44 45 42 40 43 39 35 35 31 38 37 42 38 37 37 44 44 44 45 47 44 42

GFSGBSN_sfc_temp_015.txt.gz
Temp
63 63 63 64 63 63 63 65 65 64 66 66 66 65 65 64 64 64 64 63 63 63 63 63 63 63 58 51 52 64 71 69 67 64 59 56 50 48 44 46 48 45 49 55 57 58 58
62 62 62 62 62 63 63 63 64 65 65 66 66 65 64 64 64 63 63 63 63 63 63 63 63 62 53 42 61 64 64 63 63 61 56 56 53 53 48 47 46 49 51 52 55 55 56
62 63 62 62 61 62 63 62 61 63 64 65 66 65 64 63 63 63 63 63 63 63 63 63 63 59 50 49 61 61 64 59 61 60 56 57 57 52 52 47 52 51 45 48 50 53 53
62 62 62 61 62 61 61 62 61 60 62 64 65 64 64 63 63 63 63 63 62 62 62 63 62 54 45 61 61 60 61 59 61 61 60 60 62 55 54 57 50 45 41 36 47 52 54
61 61 61 61 60 61 61 61 62 61 60 63 64 63 64 62 62 62 62 62 61 61 62 62 53 49 43 63 55 60 60 57 59 59 59 66 60 53 53 46 42 43 34 35 42 52 52
61 60 60 61 59 59 59 60 60 61 61 60 62 63 63 62 62 61 61 61 61 59 59 60 58 46 50 50 56 58 58 60 54 54 53 52 50 45 44 41 31 33 33 35 37 46 48
60 60 60 60 61 59 59 59 60 60 60 60 60 62 62 62 61 61 58 51 46 44 49 48 48 48 53 57 61 56 58 56 53 48 39 44 38 36 41 42 40 38 36 34 40 49 43
60 60 60 59 60 58 58 58 59 59 60 60 58 60 62 62 61 60 53 45 46 49 40 50 50 52 56 57 50 54 59 48 45 38 41 39 33 40 44 42 40 38 35 36 40 46 45
59 59 58 58 58 58 57 57 58 59 59 59 57 58 61 61 60 56 52 49 53 51 39 45 48 48 50 54 49 50 54 48 41 38 38 35 39 46 43 39 37 36 34 36 36 42 45
59 59 59 58 58 57 55 55 57 58 57 58 56 57 59 60 53 53 50 53 53 52 25 36 40 46 50 51 45 56 58 52 45 39 41 41 47 43 39 37 39 33 41 41 39 35 28
58 58 57 58 57 57 56 55 56 56 56 57 56 56 58 58 50 48 52 52 52 47 14 39 40 55 53 46 49 46 58 53 42 40 39 36 36 38 36 38 42 38 44 41 40 35 33
57 57 57 57 57 57 56 55 55 55 56 57 55 55 57 53 51 52 54 53 50 25 14 35 42 41 42 45 46 49 49 54 49 43 42 40 44 42 40 43 44 45 40 39 40 35 27
57 57 56 57 57 58 56 54 53 54 56 56 55 55 55 57 47 53 55 47 28 17 39 34 37 40 38 39 41 43 39 39 36 32 31 36 37 41 43 39 43 42 35 27 25 26 25
57 57 56 56 56 57 57 55 54 54 55 55 54 54 53 57 54 55 50 37 20 33 32 41 40 37 34 38 40 40 39 35 41 36 32 29 27 37 40 39 37 37 35 27 20 20 23
56 56 56 56 56 57 56 55 54 53 54 54 54 49 50 52 55 56 45 28 27 33 39 38 40 35 35 40 41 37 38 37 40 40 30 27 28 38 41 44 43 34 31 39 32 35 28
55 55 56 56 56 56 56 55 54 54 53 53 48 46 48 54 56 50 39 31 33 42 42 42 32 38 33 36 35 34 34 37 38 42 43 36 26 37 40 42 42 39 42 30 30 22 20
55 55 55 56 56 56 55 56 54 54 53 53 47 41 50 55 53 43 33 31 37 44 45 39 37 36 35 33 34 35 34 38 41 40 42 40 31 28 35 34 34 35 33 36 36 29 19
54 54 55 55 55 55 55 55 55 54 53 51 45 35 50 52 39 40 36 38 45 42 45 42 41 43 39 36 33 31 31 37 43 42 36 40 34 27 31 42 45 42 37 36 29 22 30
54 54 54 54 55 55 55 55 54 54 53 46 42 42 50 50 33 35 39 40 43 42 43 43 41 44 44 37 32 34 37 46 45 43 38 41 32 26 29 35 38 34 36 39 38 35 28
54 54 54 54 55 55 55 54 54 53 53 47 44 34 42 44 44 39 38 37 38 45 44 46 42 46 41 38 39 36 37 46 47 47 47 43 34 31 27 31 34 32 36 38 37 29 31
54 54 53 54 55 55 55 54 54 53 52 48 43 39 41 34 37 41 40 42 38 38 43 46 41 40 40 36 35 36 42 44 47 49 45 40 30 32 34 36 35 35 37 37 35 37 32
53 54 54 53 54 54 54 54 53 52 52 47 42 42 45 42 43 42 41 39 40 41 41 39 38 42 41 38 38 36 41 42 41 43 41 40 30 33 32 38 35 34 36 40 40 40 40
53 54 54 54 53 54 54 53 53 52 50 43 46 49 47 42 41 40 40 40 41 45 45 46 44 41 41 43 47 46 45 47 48 42 38 36 33 33 31 38 36 32 36 39 41 44 42
53 53 53 54 54 54 54 54 53 52 50 45 46 44 44 38 41 42 43 44 43 44 42 45 46 43 48 49 50 46 45 45 45 44 45 37 35 34 32 34 29 40 46 48 44 43 43
53 53 53 53 53 53 53 53 53 53 52 46 48 46 44 40 44 44 44 43 44 44 43 43 46 49 51 47 40 39 37 37 40 41 41 43 41 36 32 29 38 40 42 41 38 38 45
53 53 53 52 53 53 53 53 53 53 52 48 47 49 46 42 42 48 44 44 40 40 39 44 47 48 48 43 41 34 32 37 32 35 40 41 41 39 33 27 29 39 44 49 47 37 47
53 53 53 52 52 52 53 53 53 52 51 48 47 50 46 42 44 46 43 42 45 41 38 40 42 43 46 40 37 34 34 37 33 32 37 38 38 34 36 32 34 42 45 48 33 39 44
52 52 52 52 52 52 52 52 53 52 51 49 47 50 48 45 47 50 50 43 43 42 39 42 41 42 41 38 38 38 36 36 32 33 34 34 32 31 36 27 27 43 43 40 44 40 42
53 52 52 52 51 52 52 52 52 52 51 50 46 50 51 47 46 50 51 52 51 50 45 44 44 43 44 41 40 39 38 35 33 30 36 34 38 36 37 35 43 43 42 43 45 43 39

GFSGBSN_sfc_temp_018.txt.gz
Temp
63 63 63 63 63 63 62 63 62 63 62 65 65 66 65 65 64 64 64 64 63 63 63 63 63 63 57 52 51 62 69 67 66 64 61 58 49 48 43 44 46 44 47 52 54 55 54
62 62 62 62 62 61 62 62 62 62 61 61 65 65 65 64 64 64 64 63 63 63 63 62 62 62 52 40 60 62 62 62 62 63 58 58 55 51 46 46 45 47 48 49 52 53 53
61 61 61 61 62 60 60 60 60 61 61 61 61 64 64 63 64 63 63 63 63 63 63 63 62 59 49 48 59 59 63 58 60 60 54 56 56 51 49 44 50 48 43 46 48 50 50
61 61 61 61 61 61 60 59 60 60 61 62 60 61 63 63 63 63 63 62 62 61 62 62 62 53 44 60 58 59 59 57 60 60 60 59 59 52 53 51 50 45 46 37 45 48 51
61 61 61 61 61 61 61 59 59 59 60 61 61 59 61 63 62 62 62 62 61 61 61 62 52 48 42 62 54 58 59 56 57 57 58 65 57 49 48 41 37 44 34 38 42 49 49
61 61 61 60 60 60 60 59 59 59 60 60 60 59 59 61 62 61 61 61 60 59 58 60 57 44 49 49 55 57 57 59 54 54 52 51 51 42 44 41 29 33 34 38 39 43 45
60 60 60 60 60 60 59 58 57 58 58 59 60 59 58 59 62 61 59 53 47 44 48 49 47 47 52 56 59 55 57 55 52 48 39 44 38 36 40 41 41 39 34 34 39 45 42
60 60 60 58 59 59 59 58 57 57 58 58 59 59 57 58 60 60 56 48 48 49 39 49 49 50 54 56 49 52 57 47 45 39 40 39 33 40 44 42 42 40 37 36 39 44 42
59 59 58 58 58 59 58 58 57 56 56 56 57 57 57 55 59 56 53 50 53 52 38 43 47 48 49 53 47 48 53 47 40 36 37 35 38 44 42 38 36 34 33 33 33 40 42
58 59 58 58 58 58 58 57 56 57 56 55 56 57 57 56 54 53 50 54 52 51 25 35 41 45 49 50 45 56 56 49 42 38 41 38 44 41 37 36 37 31 40 39 37 33 27
58 58 58 57 57 58 57 57 57 55 54 54 56 57 56 56 52 49 52 53 52 45 13 38 40 55 51 46 47 45 56 52 42 39 40 36 36 36 36 38 40 36 42 38 37 33 32
57 57 57 57 57 57 56 57 57 54 53 54 56 57 55 52 52 53 55 55 50 26 13 35 42 41 42 45 47 47 49 53 49 43 43 40 45 42 39 42 43 44 38 38 37 35 26
56 56 56 56 57 56 56 57 56 54 54 55 55 55 52 53 48 55 56 47 30 21 37 34 36 41 41 40 42 43 40 39 36 32 32 36 38 42 43 36 41 40 34 26 25 24 23
57 56 56 55 56 56 57 57 57 55 53 54 54 55 52 53 54 57 52 35 21 32 32 42 39 39 36 39 40 41 39 35 41 38 33 29 24 37 42 38 34 35 35 27 20 18 21
56 56 55 55 55 56 56 56 57 55 53 54 53 48 48 51 54 56 45 28 28 33 39 39 38 34 34 38 39 39 37 37 41 40 31 27 26 36 39 41 42 34 29 38 31 32 26
55 55 55 55 55 55 56 56 56 55 53 53 47 45 45 52 54 51 39 31 33 41 41 40 31 36 31 36 35 36 34 37 39 42 40 31 27 35 37 40 42 38 41 29 29 21 20
56 55 55 55 54 55 55 56 56 55 53 53 46 40 48 53 52 42 32 31 37 43 44 39 36 34 38 36 36 35 32 37 39 38 42 38 33 29 34 33 32 34 32 33 32 30 22
55 54 54 55 54 54 55 55 55 55 53 50 44 35 49 52 38 40 35 36 44 41 43 41 41 40 37 37 32 31 31 35 42 41 35 41 34 28 32 40 44 41 36 36 28 22 26
54 54 54 54 54 54 55 55 55 55 53 45 40 41 50 49 32 34 40 39 41 40 41 41 39 42 44 38 32 34 34 43 43 40 37 40 32 26 28 34 40 33 36 39 38 34 27
54 54 54 54 54 53 54 55 54 54 53 47 42 34 41 43 42 40 38 39 36 43 44 45 44 46 41 38 39 34 35 43 44 43 47 45 35 31 26 31 34 31 34 35 33 27 29
54 54 54 54 54 54 54 54 54 53 52 47 42 37 40 33 36 41 41 38 37 37 43 45 41 40 40 35 37 35 37 41 44 46 44 40 31 32 34 35 34 34 34 34 32 33 28
54 54 54 54 54 54 54 54 54 52 52 45 40 40 41 38 42 41 39 36 37 40 41 40 38 43 41 37 39 35 38 40 40 43 41 42 32 33 31 37 33 32 35 36 35 37 36
53 53 54 54 53 54 54 54 54 52 51 42 44 45 45 41 41 38 38 39 40 43 44 46 43 41 39 42 45 46 46 45 44 43 40 36 32 32 29 35 35 31 34 35 37 39 39
53 53 53 53 53 53 53 53 54 53 51 45 45 44 42 37 39 41 43 43 41 44 42 44 46 42 48 51 50 48 44 43 43 43 46 37 34 33 29 33 28 39 45 43 38 42 44
53 53 53 53 53 53 53 53 53 53 53 46 46 44 44 38 43 44 43 41 44 44 43 43 47 49 51 48 41 36 37 37 39 41 41 43 39 34 32 31 37 41 42 41 39 39 45
53 53 53 53 53 52 53 53 53 53 53 47 46 48 46 42 39 48 44 43 39 40 40 43 45 47 49 43 39 32 30 35 32 35 37 38 37 35 33 29 28 38 43 47 46 36 47
53 54 53 53 53 52 52 52 53 53 52 48 46 49 47 42 46 48 43 42 45 42 40 41 42 43 46 39 35 33 34 37 31 29 35 36 37 34 34 33 33 41 42 45 34 39 44
52 52 52 52 52 52 52 52 52 53 52 48 45 49 47 43 44 48 49 43 42 43 39 41 41 42 40 37 37 36 35 35 31 33 33 33 33 31 32 28 27 41 42 36 42 42 41
52 52 52 52 52 52 52 52 52 52 53 51 43 49 51 46 46 48 49 51 51 50 45 44 42 44 44 40 40 40 38 36 32 30 34 32 37 35 35 35 43 42 42 44 43 42 39

GFSGBSN_sfc_temp_021.txt.gz
Temp
62 62 62 62 62 62 62 61 61 60 61 62 62 62 64 65 64 65 65 64 64 63 63 63 62 62 58 52 53 63 68 66 66 65 61 57 53 51 48 49 50 48 50 54 56 55 56
62 62 62 62 62 62 62 62 60 60 60 61 62 61 61 63 64 64 64 64 63 63 63 62 62 62 53 42 61 62 63 63 63 62 60 60 56 54 50 49 49 51 51 51 53 54 56
62 62 62 62 61 61 61 61 60 60 60 60 61 61 61 61 63 63 64 63 63 63 63 63 62 59 49 48 61 60 62 60 63 63 57 59 59 55 52 47 52 51 46 49 50 52 52
62 62 61 61 61 61 61 61 60 59 60 60 60 61 60 59 61 63 63 63 62 62 62 62 62 54 44 60 59 60 61 60 62 63 60 59 59 55 52 54 51 47 47 41 49 51 52
61 61 61 61 60 60 60 60 60 59 58 60 60 60 60 58 59 62 61 62 62 61 62 62 54 49 43 62 55 58 60 57 58 59 60 64 58 51 51 44 40 42 35 38 44 52 51
61 60 61 60 59 59 60 60 60 59 58 58 59 59 60 59 58 60 61 61 61 59 58 59 57 45 49 49 55 56 58 59 55 54 54 53 50 45 45 41 31 34 35 39 40 47 46
60 60 60 60 59 59 60 60 59 59 58 57 58 58 58 58 57 58 58 53 47 46 49 46 46 46 51 56 59 54 57 55 53 49 41 46 40 37 42 43 43 41 38 37 41 47 43
60 60 60 59 59 59 59 59 58 58 57 57 56 57 57 58 58 57 56 48 49 50 39 48 49 50 54 56 48 52 57 48 46 39 42 40 35 44 44 47 43 42 38 38 43 45 43
59 60 59 59 58 59 58 58 58 57 57 57 56 56 56 57 58 54 52 51 52 53 39 43 47 49 49 53 47 47 52 47 42 38 38 35 40 45 42 40 39 39 36 37 37 41 43
59 58 58 58 57 57 58 58 57 57 57 56 54 55 56 57 50 53 49 54 53 53 26 36 40 45 50 52 45 55 55 49 43 39 43 40 45 41 38 37 38 33 41 40 38 35 29
58 58 58 57 57 57 56 57 57 58 57 56 53 55 56 57 49 49 51 53 52 49 15 38 40 55 50 45 46 46 55 51 40 40 40 37 38 36 37 39 40 36 43 39 38 34 33
59 58 58 57 56 56 56 57 57 57 57 53 54 55 56 52 51 51 54 54 50 29 16 34 42 41 42 45 46 47 49 53 50 44 43 40 45 43 40 42 43 44 38 39 38 35 27
58 57 56 56 56 56 56 56 57 57 56 54 55 54 54 52 46 53 52 47 30 20 37 33 36 41 42 39 42 43 41 39 37 31 32 38 39 42 44 38 41 41 34 27 24 25 25
57 56 56 55 55 55 56 56 57 57 56 53 54 54 53 53 53 53 49 36 23 32 32 42 40 40 36 41 41 41 39 36 42 39 33 28 25 38 43 40 36 36 34 28 20 21 27
57 56 55 55 55 55 56 56 56 56 55 53 53 49 47 50 53 52 40 29 28 33 39 38 39 34 34 38 38 40 38 38 42 40 32 29 30 38 41 41 42 34 30 39 30 33 26
57 56 55 55 55 55 55 56 56 55 55 53 45 45 44 51 53 47 36 33 33 40 42 40 32 36 31 35 33 36 35 38 39 43 45 34 27 35 38 40 42 38 41 29 30 20 21
55 55 55 55 55 54 54 55 56 56 54 53 45 40 47 52 51 39 32 33 36 43 44 39 36 34 35 34 35 35 33 37 40 39 42 37 33 30 34 34 34 34 32 33 33 31 24
55 55 55 55 54 54 54 55 55 55 54 49 42 35 48 52 34 33 32 37 43 40 43 41 41 40 36 36 35 35 32 35 41 40 35 40 34 26 29 42 43 41 38 37 27 27 30
55 55 55 54 54 54 54 55 55 55 54 45 38 41 50 49 32 33 39 38 40 39 40 41 39 42 42 36 31 34 35 42 41 40 36 40 32 24 28 34 39 33 36 37 34 33 27
54 55 54 54 54 54 54 54 54 54 53 47 39 33 36 43 41 38 36 36 35 42 42 44 43 43 40 38 40 34 34 41 42 42 46 45 34 28 28 34 34 30 33 35 32 28 30
54 54 54 54 54 53 54 54 54 53 52 46 42 37 39 33 36 40 41 39 35 35 41 43 40 40 40 35 37 36 36 39 41 44 43 40 31 33 34 37 36 32 33 34 31 33 29
54 54 54 54 54 54 54 53 54 53 52 43 38 38 41 37 40 41 40 36 36 37 40 38 38 42 40 38 38 35 37 37 38 39 39 42 32 34 32 37 35 32 34 34 34 35 35
54 54 54 54 54 54 53 53 53 54 51 42 43 44 41 41 38 36 36 36 38 42 41 46 44 42 40 43 46 46 46 45 43 42 39 37 33 32 29 38 35 31 36 35 36 38 37
55 54 54 54 54 53 53 53 53 54 52 45 44 42 39 36 39 39 40 41 40 41 40 44 45 42 47 50 49 48 46 45 42 41 44 39 35 34 30 33 28 38 44 43 38 41 42
54 54 54 54 53 53 53 53 53 53 53 45 46 43 42 37 42 41 40 42 43 44 43 44 47 49 52 47 41 37 35 37 37 39 39 42 39 34 31 31 36 40 41 40 37 37 44
54 54 53 53 53 53 53 53 53 53 53 47 45 47 44 41 38 45 41 42 38 39 41 43 46 48 48 43 39 33 29 32 31 32 37 40 42 35 32 29 28 40 44 47 47 37 46
54 53 53 53 53 53 53 52 53 53 53 48 45 48 44 42 44 45 42 41 44 40 40 41 42 43 45 40 36 33 31 34 30 28 32 35 35 32 32 32 35 42 43 46 36 40 44
53 53 53 52 52 52 52 52 52 52 52 49 45 48 43 43 44 49 48 42 41 42 39 41 41 41 41 36 36 36 33 33 30 33 33 33 31 31 35 31 27 43 41 38 44 43 43
52 52 52 52 52 52 52 52 52 52 52 51 42 48 48 44 44 46 47 49 50 51 45 43 42 43 44 39 39 40 34 35 31 30 34 33 37 34 35 35 43 43 44 45 43 42 41

GFSGBSN_sfc_temp_024.txt.gz
Temp
63 63 62 62 62 62 62 62 61 62 61 61 61 61 62 62 63 64 64 65 64 64 63 63 63 63 63 57 61 70 68 70 72 69 65 62 62 61 57 59 59 58 61 62 64 63 63
62 62 62 62 62 62 62 62 62 61 61 61 61 61 61 61 61 62 64 65 64 64 63 63 62 62 60 50 68 69 69 69 70 66 65 64 61 64 59 57 57 59 58 60 61 62 63
62 62 62 62 62 61 61 61 61 61 61 60 60 61 61 61 60 60 62 63 64 64 63 63 62 63 56 56 68 69 68 67 67 69 62 65 64 58 61 55 60 58 53 59 61 61 60
62 61 61 61 62 61 61 61 61 61 60 60 60 60 60 61 60 59 60 63 63 63 63 63 63 61 53 65 69 65 68 67 68 69 67 67 63 57 57 60 57 53 53 49 58 58 60
61 61 61 61 61 60 60 60 60 61 60 59 59 58 59 60 60 58 58 62 62 62 62 63 59 57 51 65 59 65 68 63 64 67 66 67 62 56 55 52 49 51 47 48 52 60 59
61 62 60 60 60 59 60 59 59 60 59 59 58 58 57 58 58 58 57 60 61 61 61 60 60 50 55 54 60 62 66 66 61 62 59 58 57 53 53 49 42 46 44 48 48 55 55
61 61 60 60 60 60 60 59 59 59 59 58 57 56 57 58 58 58 55 54 48 47 54 50 51 51 54 60 64 59 64 62 61 57 48 51 44 43 49 52 53 48 46 46 51 55 51
60 60 60 60 59 59 59 58 58 59 58 57 57 58 57 57 57 58 54 48 53 58 45 54 53 54 57 60 51 56 63 55 53 47 51 45 39 51 53 52 48 45 42 42 50 54 50
60 59 59 59 58 58 58 57 58 59 58 58 58 55 55 56 56 55 50 51 56 63 49 47 52 52 54 57 52 52 58 55 51 46 47 44 46 51 48 46 44 45 41 42 41 49 51
59 59 59 58 58 57 57 57 57 57 58 58 56 54 53 54 50 54 49 56 52 55 38 40 44 51 54 56 49 60 61 56 49 46 47 45 51 45 45 43 46 41 50 47 43 40 35
59 58 58 57 56 56 56 56 56 57 57 57 56 54 55 55 54 50 55 53 51 50 26 43 43 58 55 50 51 49 61 55 46 46 46 43 43 43 39 43 48 42 48 45 44 40 38
58 57 57 56 56 56 56 56 56 57 57 56 55 54 55 53 53 55 54 51 48 32 27 36 43 42 43 47 49 50 51 56 55 48 48 47 51 48 47 49 49 48 44 43 42 37 29
58 58 57 56 56 56 56 55 56 57 57 56 55 55 53 57 50 56 52 46 31 30 41 34 37 42 43 40 43 46 43 40 40 33 34 42 44 48 49 42 46 43 36 31 27 27 31
57 56 56 56 56 56 55 55 56 57 56 55 54 54 55 57 57 55 48 36 29 37 39 44 43 43 39 43 43 43 40 37 46 43 38 34 34 44 46 42 42 40 38 33 26 31 36
56 55 55 55 55 55 55 55 56 56 56 54 54 50 50 54 55 50 39 32 35 40 43 40 41 36 36 41 42 40 40 39 44 44 35 35 34 45 47 49 46 37 32 44 33 38 31
56 56 56 55 56 55 55 55 56 56 55 54 46 46 49 55 53 46 37 34 40 46 46 46 36 40 33 36 38 39 39 47 45 49 49 40 32 42 44 46 46 43 46 31 32 24 25
55 55 55 55 55 54 54 55 56 55 55 54 44 38 49 55 51 40 34 34 41 49 49 44 40 39 40 37 40 39 41 44 48 47 50 44 37 36 38 36 40 36 33 35 37 35 29
55 55 55 55 55 54 54 55 55 55 55 50 43 35 50 50 35 35 36 41 46 45 49 46 47 45 43 42 40 41 40 43 50 48 41 47 38 31 35 48 50 48 41 39 29 29 32
55 55 55 55 54 54 54 54 55 55 54 45 39 39 50 49 33 35 38 41 45 44 45 45 43 47 47 43 38 43 42 48 48 46 44 46 34 29 35 40 45 37 42 43 37 35 30
55 55 55 55 54 55 54 54 54 54 53 48 39 34 38 44 44 42 40 39 39 47 46 48 46 48 45 42 45 40 41 46 48 48 48 48 39 33 33 38 40 32 37 39 33 29 35
55 55 55 55 54 54 54 54 54 54 53 46 41 37 40 34 40 45 44 43 41 41 46 48 44 45 44 39 40 38 43 44 45 47 47 44 31 34 36 40 39 36 36 37 32 35 31
55 55 55 55 54 54 54 53 53 54 53 44 37 37 42 44 45 44 44 42 42 42 44 42 43 45 46 41 42 40 43 44 45 46 45 45 34 35 33 41 40 34 37 37 36 36 35
55 55 55 55 54 54 54 53 53 54 51 42 43 44 39 42 43 44 43 44 43 46 46 48 47 46 44 45 48 49 48 49 50 45 43 41 34 32 31 40 37 34 37 39 39 38 38
54 55 55 54 54 54 53 53 53 53 52 46 44 42 38 38 43 44 45 46 45 46 44 47 49 46 49 55 51 49 49 47 47 48 49 40 36 34 31 34 29 40 45 43 40 42 45
54 54 54 54 54 53 53 53 53 53 53 47 46 42 40 40 46 45 45 47 48 49 46 47 48 51 53 47 41 38 42 40 44 47 47 48 41 34 31 32 40 43 44 41 37 40 50
54 54 54 53 53 53 53 53 53 53 53 50 45 47 43 41 43 49 46 47 44 44 45 47 50 51 51 43 41 33 36 39 39 40 43 43 42 36 34 29 30 45 46 51 49 43 51
53 53 53 53 53 53 53 53 52 52 53 49 45 47 42 40 51 50 46 45 50 47 42 43 43 44 49 40 37 35 37 42 38 38 35 36 36 33 34 32 41 52 49 50 40 43 50
53 53 53 52 52 52 52 52 52 52 52 50 45 48 41 39 46 52 54 49 48 49 43 43 42 44 41 39 37 37 36 43 40 43 42 41 38 35 36 34 33 51 51 46 50 51 50
52 52 52 52 52 52 52 52 52 52 52 51 43 48 47 40 46 52 52 53 54 54 48 45 44 46 48 40 40 40 38 43 41 40 44 40 47 47 45 46 53 53 53 55 51 49 49

GFSGBSN_sfc_temp_027.txt.gz
Temp
63 62 63 63 63 63 62 62 62 62 62 62 62 62 61 62 62 62 62 63 65 64 64 63 63 63 63 58 60 73 68 71 74 71 68 67 65 65 60 65 66 61 65 69 69 69 68
63 62 62 62 62 62 62 62 61 61 62 61 62 61 61 61 62 61 61 62 64 64 64 63 63 63 61 51 73 74 73 73 74 70 66 67 65 70 64 63 61 65 65 66 67 66 67
62 62 62 62 62 62 61 61 61 61 61 61 61 60 59 60 60 61 60 61 63 64 63 63 63 64 59 59 73 73 72 72 73 71 63 67 67 63 65 59 64 62 57 62 63 65 63
62 62 62 62 62 61 59 60 60 60 60 61 60 59 59 59 59 60 60 59 59 61 63 63 63 64 54 69 73 68 72 70 72 73 69 70 67 61 59 62 61 56 58 51 64 64 66
62 61 61 62 61 60 60 60 59 58 59 59 60 59 59 58 58 59 59 58 59 61 62 63 61 60 54 65 62 70 72 67 69 70 69 66 63 57 55 53 50 55 49 54 58 65 62
61 61 61 61 61 61 61 59 58 59 59 58 58 58 57 57 57 58 58 57 58 59 61 62 63 52 59 57 63 67 72 69 65 64 61 59 55 48 51 48 45 51 51 54 54 61 59
60 61 60 60 60 60 58 58 58 58 59 58 58 57 57 57 57 57 56 51 49 47 51 49 50 55 58 63 66 63 68 64 64 61 51 55 47 46 54 57 58 56 51 51 57 61 56
60 61 60 60 59 58 57 58 57 57 57 57 58 58 56 57 57 57 54 44 47 52 44 57 57 57 62 64 54 59 68 56 54 48 51 47 43 54 58 56 53 52 48 49 54 58 55
60 59 59 59 59 57 57 57 57 57 57 57 58 57 56 55 54 53 52 48 53 52 45 49 56 56 56 59 55 54 61 58 52 48 47 45 50 55 53 51 48 49 46 47 47 52 54
58 59 59 58 57 57 57 56 57 56 56 57 57 56 55 55 50 54 49 58 51 51 37 40 45 54 56 58 51 63 64 58 53 47 49 48 55 49 49 47 50 43 54 51 49 44 40
59 59 57 57 57 56 56 56 56 56 56 57 57 56 56 54 48 51 56 55 51 48 28 44 47 63 58 53 53 53 64 57 49 51 49 46 47 47 43 47 51 45 51 48 47 42 39
58 57 57 56 56 56 56 56 56 57 57 57 56 56 55 54 55 58 57 54 47 32 27 37 44 44 45 51 51 53 53 58 58 50 51 51 55 51 49 51 51 50 47 45 45 40 29
58 56 56 56 56 56 56 56 56 56 56 56 55 55 54 56 52 58 53 46 30 28 44 34 38 43 44 42 45 47 43 42 43 34 35 44 46 51 53 45 49 47 40 33 30 28 31
57 56 56 56 56 56 56 56 56 56 56 55 55 55 56 59 60 56 46 37 28 37 40 46 44 44 39 43 44 45 43 39 47 46 41 34 35 47 49 46 43 42 41 34 29 33 39
57 56 56 56 56 56 56 55 56 56 56 55 54 51 52 56 58 53 39 31 34 44 44 41 43 37 36 42 43 43 43 41 46 48 38 39 36 50 50 51 48 40 33 46 36 40 33
56 56 56 56 56 55 56 55 56 56 55 54 46 46 49 58 58 49 36 33 40 50 49 48 37 41 35 38 40 41 40 49 46 52 55 44 35 46 48 49 49 45 48 32 32 25 28
56 55 56 56 55 55 55 55 55 55 55 54 44 38 49 55 53 41 34 36 45 52 53 48 44 41 41 39 42 41 43 49 53 51 51 47 42 38 41 39 42 39 35 38 41 36 30
56 56 55 56 55 55 55 55 55 55 54 50 43 35 49 53 36 36 36 39 49 48 52 50 51 48 45 45 43 44 45 47 55 54 43 48 41 33 38 50 52 50 41 41 30 32 34
56 56 56 56 55 55 55 55 55 55 55 46 39 39 49 47 34 36 40 42 48 47 49 48 47 50 51 47 42 47 48 51 53 51 47 48 37 31 36 43 49 42 45 46 41 38 30
55 55 56 55 55 55 54 54 54 54 54 50 41 35 41 45 47 45 40 39 42 51 50 52 50 52 49 47 49 45 45 48 51 51 48 52 42 34 34 38 41 33 39 42 35 30 35
56 56 56 55 55 55 54 54 54 54 54 48 41 38 41 36 43 47 46 43 41 43 50 52 48 49 48 43 44 43 47 47 49 50 49 48 32 35 39 42 41 38 39 40 34 35 30
55 55 55 55 55 54 54 54 54 54 53 45 38 37 40 45 49 49 46 43 45 46 49 46 47 48 49 45 45 41 47 47 46 48 46 46 34 37 34 43 43 37 43 40 38 38 37
55 55 55 55 54 54 54 53 54 53 53 44 44 45 40 44 47 48 47 48 47 50 49 52 51 49 47 48 50 52 51 50 50 46 43 40 35 33 32 42 39 36 37 38 39 41 39
55 55 55 54 54 54 53 53 53 53 53 48 45 43 39 41 46 48 49 50 48 49 47 50 52 49 50 57 54 52 51 50 47 46 50 43 38 35 32 36 31 46 51 47 41 43 49
54 54 54 54 54 53 53 53 53 53 53 47 46 42 40 39 49 50 49 50 52 51 49 49 51 52 53 50 42 43 42 42 45 46 47 48 42 34 32 35 42 46 50 46 40 40 50
54 54 53 53 53 53 53 53 53 53 53 50 46 46 42 38 47 53 50 51 46 47 48 49 54 56 53 45 42 34 34 42 40 40 45 45 45 36 35 30 31 48 52 54 51 41 51
53 53 53 53 52 52 52 52 52 52 53 52 46 48 42 39 50 53 50 49 53 51 47 48 45 46 51 42 37 38 37 46 40 41 38 37 36 33 33 32 42 56 55 52 40 44 51
53 53 52 52 52 52 52 52 52 52 52 51 48 49 42 38 43 54 56 52 52 52 46 46 44 42 40 38 41 41 37 44 43 48 45 42 36 34 35 32 33 56 56 47 52 55 54
53 52 52 52 52 52 52 52 52 52 52 52 45 49 48 39 42 54 57 58 56 56 52 51 45 46 48 43 45 42 39 45 45 40 50 43 51 46 48 49 60 60 56 59 56 53 54

GFSGBSN_sfc_temp_030.txt.gz
Temp
63 63 63 63 63 63 63 62 62 62 62 62 62 62 62 62 61 61 62 61 62 63 63 64 64 63 61 55 57 70 70 71 71 67 64 64 61 60 55 59 62 58 61 66 67 67 65
63 63 63 62 63 63 62 61 61 61 61 61 62 62 61 60 60 60 61 61 61 62 63 64 63 63 57 49 74 74 73 72 71 66 63 65 63 66 62 60 58 62 62 62 64 64 63
62 63 63 62 62 62 61 61 60 59 60 60 61 61 60 60 60 59 60 61 59 60 61 64 63 62 56 56 72 73 73 70 73 70 62 66 66 61 63 58 64 61 53 57 59 61 59
62 62 62 62 61 61 62 60 60 59 59 59 59 60 60 59 59 58 58 59 59 58 59 63 63 61 52 70 71 69 71 69 72 71 67 67 67 59 58 60 60 53 53 44 58 61 62
62 62 62 62 61 60 60 59 58 59 59 59 58 58 59 58 57 57 57 58 59 58 59 61 58 56 50 65 62 68 70 66 68 67 67 67 64 56 55 50 47 51 41 46 52 60 59
61 61 61 61 60 60 60 59 58 58 58 58 58 58 58 57 57 56 57 58 59 58 58 59 61 50 58 55 63 66 70 69 63 60 56 55 53 49 49 45 37 43 45 47 47 55 55
61 61 59 60 60 60 59 58 58 58 58 57 57 57 58 56 56 57 55 52 48 47 51 47 49 55 57 63 66 63 67 64 63 57 48 52 44 41 46 49 50 52 49 46 51 58 52
60 60 60 59 59 58 58 58 57 57 57 57 56 57 58 55 56 55 53 45 47 47 43 52 56 59 62 63 53 59 67 55 53 46 52 46 41 51 55 55 51 49 44 43 50 55 51
59 60 59 58 58 57 57 57 57 57 57 56 56 57 57 56 56 52 48 48 52 48 40 47 54 55 56 61 53 54 61 56 50 46 46 44 48 55 52 49 47 45 42 42 43 49 50
59 59 58 58 58 57 57 57 56 56 57 57 57 57 56 56 50 50 48 56 50 50 33 39 46 53 56 58 51 62 64 57 51 45 47 46 54 50 47 46 48 39 51 49 46 40 31
59 59 57 57 57 57 57 56 57 57 57 57 56 56 56 56 48 46 53 51 50 45 25 41 45 62 57 52 52 53 63 58 48 49 48 42 46 45 42 46 50 43 49 46 44 38 36
59 58 57 57 57 57 56 56 56 57 56 56 56 56 56 52 52 54 54 52 47 28 24 36 44 45 46 51 51 53 53 58 58 50 50 48 54 49 48 51 49 49 45 44 42 38 26
58 58 57 56 56 56 56 57 56 57 57 56 56 55 54 55 48 55 52 45 29 24 38 34 38 44 45 44 45 47 44 42 39 33 34 43 45 50 51 43 47 45 39 24 23 24 21
58 57 56 56 57 56 57 56 56 56 56 56 55 54 54 56 55 54 47 37 24 34 34 45 43 43 40 44 43 44 41 38 46 44 38 31 32 44 48 44 41 41 39 26 21 22 27
57 57 56 56 57 56 57 56 56 56 55 54 54 50 48 54 55 52 41 30 32 39 44 40 41 37 36 43 43 42 40 40 45 46 35 34 36 49 49 50 47 38 32 40 31 33 22
57 56 56 56 56 56 56 56 56 56 55 54 47 45 46 55 56 48 36 33 34 49 48 46 35 42 34 38 39 40 40 47 45 50 50 43 33 45 48 50 49 44 45 30 29 15 19
57 56 57 56 56 56 56 56 56 56 55 54 44 40 47 56 52 42 32 33 43 52 52 47 42 40 41 38 42 39 40 48 50 49 51 46 38 36 39 38 37 38 35 37 36 32 21
56 57 57 56 55 55 55 55 55 55 55 52 44 35 49 53 36 37 35 38 46 49 53 51 51 47 43 43 41 41 41 46 53 51 44 47 41 27 33 46 47 45 38 37 25 24 28
56 57 56 56 55 55 55 55 55 55 55 47 40 38 50 47 34 35 39 42 46 48 50 49 48 50 50 44 39 46 46 49 50 49 45 46 34 23 30 40 44 37 42 42 39 36 28
56 56 56 56 55 55 55 54 54 54 55 50 42 35 42 46 46 40 38 39 41 51 50 52 49 52 48 45 48 43 42 47 49 50 50 50 40 29 24 30 36 31 36 40 37 29 31
56 56 56 55 55 55 54 54 54 54 54 50 41 38 40 37 41 45 45 42 43 44 50 52 48 49 48 43 44 43 46 44 48 49 47 44 32 30 35 39 38 36 36 38 33 35 30
55 55 55 55 55 54 54 54 54 54 54 46 39 37 40 45 49 47 44 39 45 47 48 46 45 48 48 45 44 42 46 45 42 45 43 44 31 32 31 39 39 34 39 40 39 37 37
55 55 55 55 54 54 54 53 53 53 52 45 44 45 40 45 45 46 46 47 47 49 49 51 50 48 45 46 48 49 48 48 48 44 41 40 34 32 24 39 36 33 38 40 40 42 40
55 54 54 54 54 54 53 53 53 53 52 45 44 43 39 40 45 46 49 50 48 49 46 49 51 47 49 54 51 49 48 46 47 45 48 40 36 35 28 32 27 42 48 45 42 45 46
55 54 54 54 53 53 53 53 53 53 53 46 46 42 40 37 46 48 49 49 49 49 49 49 50 50 52 48 42 40 40 41 42 43 45 45 40 33 29 30 38 43 47 46 40 39 49
54 54 54 53 53 52 52 52 52 52 53 48 46 46 42 37 43 50 49 49 45 46 46 48 51 51 49 43 41 34 31 37 36 38 44 45 43 35 31 28 26 42 48 52 46 36 49
53 54 53 53 52 52 52 52 52 52 52 49 46 47 42 38 47 47 47 47 51 48 43 45 45 45 48 39 35 33 35 42 35 36 35 36 36 33 33 31 36 49 49 49 34 39 48
53 53 53 53 52 52 52 52 52 52 52 48 45 48 41 38 41 49 54 50 49 48 43 44 42 42 40 38 36 38 34 38 37 42 40 36 33 33 34 31 28 50 49 41 45 47 49
52 53 53 53 52 52 52 52 52 52 52 51 43 49 48 38 41 49 51 54 53 52 48 48 44 45 45 40 39 39 37 40 40 36 44 36 43 40 40 40 52 51 49 50 49 46 46

GFSGBSN_sfc_temp_033.txt.gz
Temp
63 63 64 63 63 63 63 63 61 62 61 61 61 61 61 62 62 61 61 61 62 62 63 63 64 64 59 50 53 69 72 74 71 67 62 59 55 54 51 53 55 52 55 61 62 62 61
63 63 62 62 63 62 62 62 61 60 60 60 60 61 61 60 60 61 61 60 61 61 60 61 63 63 53 45 67 70 68 67 66 63 60 60 57 59 54 54 52 57 57 56 59 59 59
62 63 62 63 62 62 61 61 60 59 59 59 60 60 60 60 60 60 59 59 60 60 59 61 62 60 53 52 68 68 71 66 67 64 59 64 62 57 56 56 57 56 49 53 54 56 55
62 62 63 62 62 61 60 61 60 59 59 59 59 58 59 59 59 58 58 58 59 59 59 59 62 58 47 66 66 68 67 65 67 67 65 66 66 57 53 56 55 49 48 39 52 57 58
62 61 61 60 61 60 60 59 59 58 58 58 58 58 58 58 58 57 57 58 58 59 60 58 55 53 47 66 60 65 66 63 64 65 62 65 60 54 52 47 44 45 36 40 46 57 56
61 60 60 61 59 59 59 59 58 58 58 58 57 57 57 57 57 57 56 58 58 58 57 56 57 48 54 53 60 64 66 65 60 58 55 54 51 47 46 45 34 38 38 40 42 52 52
60 60 60 59 59 59 59 59 58 58 58 57 57 57 57 58 56 56 52 47 42 44 47 47 48 50 55 61 64 60 64 62 58 52 47 50 44 40 41 44 46 49 46 41 45 53 47
60 60 60 59 59 59 59 59 58 57 57 57 57 57 58 57 56 56 51 42 43 45 38 49 53 55 60 62 52 57 64 54 50 43 46 43 40 49 53 51 49 44 40 38 45 50 47
59 60 60 59 58 58 58 58 57 57 57 58 57 57 57 56 56 52 46 46 50 51 36 45 52 53 54 58 51 52 59 54 48 44 44 39 45 51 50 48 46 40 37 38 39 45 44
59 60 59 58 58 58 57 57 57 57 57 57 57 57 57 57 50 49 45 52 50 50 31 38 44 51 55 57 48 59 61 55 50 44 47 45 51 49 45 44 44 36 46 45 43 36 28
59 59 58 58 57 58 57 58 57 56 57 57 56 57 57 56 47 45 49 50 50 45 19 40 44 61 55 49 51 52 62 56 47 47 46 41 46 45 41 44 47 41 47 43 41 34 30
58 59 58 57 57 58 57 58 56 57 57 57 56 56 56 52 50 51 51 50 45 28 19 36 44 44 43 49 50 52 52 58 56 49 48 46 51 48 45 48 47 48 42 39 37 32 17
58 57 57 57 57 57 57 57 57 57 57 56 55 55 53 54 46 52 50 43 26 19 34 33 39 44 43 43 44 46 44 42 38 32 32 42 43 47 49 41 43 43 32 17 17 23 20
58 57 57 58 57 57 57 57 57 57 56 54 54 54 52 54 53 51 45 34 21 32 33 43 43 43 38 43 42 44 41 36 41 39 30 27 25 41 46 41 37 36 35 21 17 18 23
58 57 57 57 56 57 57 57 57 56 55 55 54 48 47 50 52 50 39 25 27 34 38 39 41 36 36 42 41 41 40 39 40 41 31 28 31 45 46 47 45 36 28 37 27 26 17
57 57 57 57 56 56 56 56 56 56 55 54 42 44 45 52 52 46 36 33 33 40 45 46 32 39 32 38 37 38 38 43 42 46 44 39 31 43 46 49 47 41 42 28 23 11 16
57 57 57 57 56 56 56 56 56 56 55 55 42 40 47 52 50 40 31 32 40 47 49 45 38 39 39 38 39 38 37 44 47 45 48 45 38 33 41 37 34 36 36 37 32 25 18
57 57 57 57 56 55 55 55 55 55 55 50 40 35 47 49 35 36 32 35 43 45 50 49 45 42 40 40 38 39 36 41 49 50 41 46 37 25 30 41 44 39 34 33 21 21 24
56 57 57 56 55 55 55 55 55 55 55 45 40 39 48 45 33 34 41 41 45 47 48 48 46 46 46 41 36 41 42 47 51 49 45 45 33 18 32 33 39 34 38 38 34 32 26
56 56 56 56 55 55 54 54 54 54 55 45 41 34 39 42 42 40 38 39 42 49 48 48 46 47 45 43 43 41 40 45 48 49 50 47 35 25 23 28 33 25 34 37 34 27 29
56 56 55 55 55 55 54 54 54 54 54 44 37 35 39 30 36 40 43 41 40 41 48 49 47 46 44 41 43 41 42 41 45 48 46 43 31 26 33 36 35 32 34 36 33 35 29
55 55 55 55 55 54 54 53 53 54 53 42 38 37 40 38 44 39 39 38 41 43 44 43 42 46 46 42 42 41 43 40 39 41 40 40 26 32 30 35 35 32 37 38 38 37 37
55 55 55 55 54 54 53 53 53 53 51 43 44 45 40 38 38 41 40 43 44 44 46 47 47 44 43 43 44 44 48 46 44 39 38 39 34 24 19 34 34 33 37 38 40 42 41
54 55 55 54 54 53 53 53 53 53 52 44 44 42 38 34 38 41 44 46 44 44 43 46 47 44 46 50 47 47 45 44 44 45 43 37 35 33 27 30 25 42 47 46 42 43 46
54 54 54 54 53 53 53 53 53 53 53 44 45 41 39 34 41 45 45 44 44 45 46 45 46 46 48 44 38 36 35 40 40 41 44 44 37 33 29 28 36 42 45 44 38 41 46
54 54 54 54 53 53 52 53 53 53 53 46 45 45 41 37 38 42 44 44 42 41 43 47 47 48 47 41 37 32 32 37 35 37 43 43 42 35 31 26 26 41 47 49 46 35 48
53 53 53 53 53 53 53 52 53 53 52 44 44 46 41 37 43 41 39 40 48 46 41 44 43 44 44 36 33 29 31 39 31 33 34 36 36 32 32 31 34 45 47 47 33 38 46
52 53 53 53 53 52 52 52 53 52 52 45 40 47 41 37 39 46 48 44 47 47 41 43 41 42 40 35 34 34 32 35 33 38 37 34 33 33 34 31 28 48 46 41 45 44 45
52 52 52 53 52 52 52 52 52 53 52 50 36 44 47 38 39 46 48 51 48 47 44 46 43 41 44 39 40 38 34 36 34 33 42 36 39 37 38 37 47 49 49 46 45 43 42

GFSGBSN_sfc_temp_036.txt.gz
Temp
63 63 63 63 63 63 63 62 62 60 61 61 60 60 60 61 60 60 61 61 62 61 62 62 62 63 59 49 52 67 71 72 71 66 61 58 53 52 48 51 52 47 51 57 59 59 57
63 63 63 63 62 62 62 61 61 61 61 60 60 59 59 60 59 59 60 60 61 60 61 60 61 61 54 43 65 69 67 69 68 63 59 58 55 57 52 52 50 53 55 55 57 56 56
62 63 62 62 62 61 60 60 59 59 59 60 59 58 58 59 58 59 59 60 59 59 60 61 60 57 52 50 65 67 66 63 64 63 58 60 59 55 55 51 57 54 49 51 53 54 53
62 62 61 62 61 60 60 60 60 60 60 59 58 58 58 58 58 58 57 57 58 59 59 60 61 55 47 65 65 67 66 63 65 63 63 65 61 56 53 54 53 49 47 40 51 54 56
62 61 61 61 60 60 60 60 60 59 59 58 58 58 57 57 58 57 57 57 58 59 60 60 53 51 46 65 58 63 64 61 62 62 60 65 60 53 51 45 41 42 35 39 45 54 53
61 61 61 61 60 60 60 60 59 59 58 57 57 57 57 57 57 56 56 56 57 57 56 57 55 46 52 51 60 63 63 63 58 57 54 54 51 46 44 41 32 37 36 38 40 48 49
60 61 61 60 59 59 59 58 59 58 58 57 57 58 57 58 56 56 53 48 41 42 46 45 47 48 52 59 63 60 62 60 56 52 45 50 43 41 45 46 46 45 43 41 43 50 46
60 60 61 59 59 58 59 58 59 58 57 57 58 57 57 57 56 57 51 42 43 44 38 50 49 50 58 59 51 56 63 54 50 44 47 44 41 48 50 48 47 45 40 39 44 48 45
60 60 60 59 58 58 58 58 58 58 57 58 57 57 57 56 57 51 45 46 51 48 36 41 46 47 54 58 50 50 58 55 47 43 44 42 45 51 48 47 44 43 37 36 38 43 42
60 60 59 58 59 57 59 58 58 57 58 57 57 57 57 57 50 47 43 51 51 49 31 36 42 49 54 54 47 59 61 54 48 42 45 42 50 47 45 43 43 35 44 43 41 36 28
59 59 58 58 58 58 58 58 58 58 57 57 56 56 56 56 47 45 48 51 50 45 20 38 43 59 53 47 50 49 61 55 45 45 45 40 44 43 40 44 47 39 45 42 39 32 29
59 59 58 58 58 57 57 58 57 57 57 55 55 55 55 51 49 51 50 48 45 26 21 33 43 44 44 47 48 51 53 57 56 48 47 44 49 47 44 46 46 46 41 37 34 29 18
58 58 58 58 58 57 57 57 57 57 56 55 56 56 53 53 46 51 50 41 23 20 34 32 38 44 43 41 43 46 44 44 38 33 33 42 41 45 48 40 43 41 32 19 17 20 20
58 58 58 58 58 57 57 57 57 57 56 55 55 53 52 53 51 50 44 34 20 30 29 39 42 42 38 43 43 43 42 38 43 38 31 29 29 40 44 40 37 36 34 21 18 17 21
58 58 58 58 57 57 57 57 57 56 56 55 53 46 47 50 52 50 39 25 25 31 35 40 42 35 36 40 41 41 40 39 42 39 31 27 30 43 45 45 43 35 27 36 25 24 16
57 57 57 57 57 56 56 56 56 56 56 55 42 42 46 52 53 46 35 31 32 38 44 43 32 37 31 36 36 38 38 44 41 44 42 37 28 41 44 48 46 39 41 25 19 9 15
57 57 57 57 56 55 55 56 55 56 56 55 40 38 46 50 50 40 31 32 38 46 49 43 36 35 36 36 38 38 37 41 45 43 44 41 33 33 42 36 33 35 33 32 29 23 17
56 57 57 56 55 55 55 55 55 55 55 48 38 29 47 48 35 34 32 37 42 43 46 45 43 40 37 40 37 37 35 38 46 46 39 42 33 21 31 39 42 38 34 32 19 19 22
56 56 56 56 55 55 55 54 54 55 55 42 36 36 45 44 34 35 41 42 45 43 45 45 42 43 43 38 35 38 39 45 47 46 41 42 29 18 28 33 37 32 35 36 32 30 17
56 56 56 55 55 54 54 54 54 54 55 43 37 29 36 42 38 35 36 37 40 47 46 46 43 45 42 39 41 37 39 44 49 49 50 46 32 26 22 27 30 23 33 35 32 22 24
55 56 55 55 54 54 53 53 53 54 54 42 36 36 37 30 36 37 39 38 39 39 45 46 45 45 44 39 40 38 41 40 46 49 46 41 24 23 30 34 32 32 33 34 29 33 25
55 55 55 55 54 54 53 53 53 53 53 41 36 37 40 36 38 37 38 38 39 41 42 42 40 46 47 40 39 37 39 37 38 43 38 38 25 28 27 34 33 28 34 35 36 36 36
54 55 55 55 54 53 53 53 53 53 51 42 43 44 40 39 37 35 36 40 41 43 45 45 45 44 42 43 44 43 45 44 42 39 36 36 29 27 23 32 31 28 34 37 36 38 38
54 54 55 54 54 53 53 53 53 53 52 44 44 42 38 33 35 39 42 43 42 42 41 44 45 43 45 49 47 46 44 43 42 42 44 37 35 30 24 26 22 39 45 44 40 42 44
54 54 54 54 53 53 53 53 53 53 53 44 45 41 39 35 37 40 41 42 42 43 42 43 44 44 46 44 38 37 37 39 41 43 43 44 38 31 26 24 35 40 45 42 38 40 45
53 53 53 54 53 53 52 53 53 53 53 41 45 45 40 36 35 40 39 41 41 37 43 44 45 47 45 40 37 33 31 37 33 36 43 42 40 33 31 27 26 39 45 47 44 33 45
53 53 53 54 53 53 52 52 53 53 52 42 42 46 41 36 40 40 39 42 46 41 38 42 44 43 43 35 32 29 31 38 32 33 34 35 35 32 31 30 34 43 44 45 31 37 44
52 52 53 53 53 52 52 52 52 52 52 43 38 46 41 36 39 44 47 42 42 42 38 41 39 40 36 33 32 32 31 35 32 36 36 35 33 32 33 31 27 45 42 38 44 43 43
52 52 52 52 52 52 52 52 52 52 52 49 35 42 46 37 37 44 46 48 48 46 45 45 41 40 44 37 37 38 34 34 32 29 37 35 38 35 35 36 48 46 46 45 44 42 41

GFSGBSN_sfc_temp_039.txt.gz
Temp
64 63 63 63 63 62 62 61 60 60 60 60 61 60 60 60 60 60 59 60 61 62 62 61 62 62 57 48 50 66 70 71 69 66 60 57 52 52 48 50 50 47 50 55 58 58 55
62 63 63 62 63 62 61 61 61 61 60 61 60 59 59 58 59 58 59 59 60 61 61 60 61 61 52 42 64 67 66 66 66 62 59 57 54 56 52 50 49 52 53 54 56 55 55
62 62 61 62 62 61 60 61 61 60 60 60 59 59 58 58 58 58 58 59 59 60 59 60 60 57 50 49 63 65 67 65 64 62 57 59 58 55 53 49 55 52 47 48 52 53 53
62 61 61 62 62 61 60 60 60 60 60 60 58 58 58 58 58 57 58 57 57 57 58 60 60 54 47 63 64 63 63 61 60 60 61 62 61 54 51 52 51 47 45 39 49 53 54
61 61 61 61 61 60 59 59 59 59 59 58 58 58 58 57 57 57 56 57 58 58 59 59 53 49 45 65 57 62 63 59 58 59 60 65 58 52 49 44 39 41 34 37 45 53 51
61 61 61 61 60 59 59 59 59 59 59 58 57 58 58 58 58 56 56 56 56 56 55 56 54 46 50 50 59 62 62 64 58 55 54 55 51 44 42 42 33 36 36 36 38 46 47
60 60 60 60 60 59 59 59 59 59 58 57 58 58 57 57 57 57 53 47 41 41 44 41 45 46 52 59 63 58 61 60 55 51 45 49 44 40 42 44 43 43 40 37 41 48 43
60 60 60 59 59 59 58 59 59 59 58 58 58 57 57 57 57 57 50 42 43 46 38 47 49 52 53 59 49 53 62 53 49 44 47 44 41 46 50 48 45 45 39 36 42 46 43
59 60 59 59 59 59 59 58 59 59 58 58 57 57 57 57 56 50 46 44 52 48 36 42 47 45 49 57 50 50 58 54 48 44 44 41 44 49 48 45 44 44 40 36 37 42 40
59 59 59 59 59 59 58 58 58 58 57 57 56 56 56 56 49 49 42 51 50 47 22 34 39 46 50 54 46 57 60 54 48 42 44 43 48 48 45 43 45 38 42 42 39 35 29
59 59 59 58 59 58 58 58 57 57 57 56 56 57 56 55 48 42 48 50 47 45 20 38 41 56 53 47 48 51 58 55 45 44 44 38 43 43 42 44 46 40 44 40 38 32 28
59 59 58 58 58 58 58 57 57 57 56 56 56 56 55 49 48 49 48 50 44 27 21 33 42 42 44 46 46 50 50 57 55 46 47 43 50 47 43 45 46 46 40 35 32 29 18
58 58 58 58 58 57 57 57 57 57 56 56 56 55 52 52 43 49 48 42 26 22 32 32 36 43 43 43 44 46 44 43 39 33 33 41 41 46 47 40 43 40 32 19 18 17 20
58 58 58 58 57 57 57 56 57 56 56 56 55 53 51 51 48 48 44 33 20 30 29 39 43 43 38 44 42 43 40 37 43 39 32 29 29 40 43 39 36 35 33 21 18 16 20
57 57 57 57 57 56 56 56 56 55 56 55 53 45 48 50 52 50 39 26 28 30 33 40 42 36 35 40 41 39 38 38 41 38 32 27 29 42 44 44 42 35 25 34 24 22 16
57 57 57 57 56 56 56 56 56 55 56 54 41 43 44 50 51 43 34 33 33 40 46 40 32 35 31 34 36 36 37 44 42 42 41 36 28 39 43 46 44 38 40 25 19 14 16
57 57 57 56 56 55 55 55 55 55 56 53 40 37 47 51 47 40 31 32 40 46 45 41 34 34 34 34 37 35 37 42 46 42 43 39 33 35 41 35 33 34 31 30 29 24 18
56 57 56 56 55 54 54 54 55 55 55 47 37 29 46 48 37 35 34 38 42 42 44 44 42 40 36 37 36 38 36 39 46 45 38 40 32 28 34 38 40 37 34 31 19 19 20
56 56 56 55 55 54 54 54 54 55 55 41 35 35 44 43 33 30 39 40 41 40 42 43 41 42 41 37 33 38 38 44 46 44 40 41 28 19 27 32 36 31 34 34 30 25 13
55 56 56 55 54 54 53 53 54 54 54 42 35 30 35 38 37 33 35 36 39 45 43 44 41 43 41 38 40 36 37 42 46 47 50 45 32 25 22 27 30 24 32 33 28 20 23
55 55 55 55 54 54 53 53 53 53 54 41 37 36 39 30 35 36 36 37 37 37 43 44 41 42 42 36 37 36 39 39 46 49 44 40 25 24 31 34 32 31 32 32 26 31 24
55 55 55 55 55 54 53 53 53 53 52 40 38 37 41 38 36 36 38 37 38 40 41 41 40 44 44 39 37 36 39 37 39 41 40 38 26 27 26 33 31 27 32 33 34 34 33
54 54 55 55 54 54 53 53 53 53 50 42 43 44 40 36 34 34 35 38 39 41 44 46 46 44 42 43 41 41 43 43 42 39 35 35 28 24 22 29 30 26 32 34 37 39 39
54 54 54 54 54 53 53 53 53 53 50 43 43 42 38 31 33 36 39 41 40 41 40 41 44 42 45 47 46 45 43 41 41 40 41 33 33 31 19 26 21 36 43 42 38 40 41
54 54 54 54 54 53 53 53 53 53 52 40 44 40 38 34 34 37 39 39 40 41 40 41 42 43 44 42 37 36 37 39 41 42 42 43 37 28 26 23 31 39 44 42 38 41 45
53 53 53 53 53 53 53 53 53 53 52 39 44 44 40 35 33 38 37 38 36 34 38 40 43 45 44 39 36 31 29 36 33 36 42 42 39 32 29 24 26 39 45 47 44 34 43
52 53 53 53 53 53 52 52 53 53 53 40 38 44 40 36 42 39 35 37 41 37 35 38 40 40 41 34 31 28 31 38 32 33 34 34 35 31 31 29 33 45 45 45 30 36 43
52 52 52 52 52 52 52 52 52 52 52 42 37 44 37 36 37 40 43 42 41 42 36 39 39 38 35 32 31 31 29 34 32 35 34 34 32 32 33 30 27 46 42 38 43 41 43
51 52 52 52 52 51 52 52 52 52 52 47 34 41 42 37 35 41 42 45 45 44 41 43 39 38 39 34 33 34 32 32 31 28 36 33 35 34 34 36 46 48 44 44 43 42 40

GFSGBSN_sfc_temp_042.txt.gz
Temp
63 63 63 62 62 62 62 61 61 61 61 62 61 61 60 59 60 59 59 59 59 60 61 61 61 61 56 48 50 63 69 70 68 65 60 56 54 51 47 48 50 46 49 54 57 57 54
63 63 62 62 62 62 61 61 60 60 60 60 61 60 59 59 59 58 58 59 59 59 60 61 60 59 51 43 63 64 65 66 64 62 58 57 55 56 52 50 48 51 53 53 55 55 54
63 62 62 62 61 61 60 60 60 59 60 60 60 59 59 58 58 58 58 58 59 58 59 60 59 56 49 49 62 62 64 63 65 62 56 59 58 55 53 49 53 51 45 47 50 52 52
62 62 62 61 61 60 60 60 59 59 60 59 59 58 58 58 57 58 58 58 57 57 58 59 58 53 44 61 60 57 62 60 62 60 62 61 60 55 51 51 50 46 44 37 47 51 53
62 62 61 61 60 60 60 60 59 60 60 59 58 57 58 58 58 57 56 57 57 58 58 58 50 49 45 62 54 60 59 56 57 57 59 65 58 51 49 43 39 39 32 36 44 51 50
61 61 61 60 60 61 60 60 60 60 60 59 58 59 58 58 58 56 56 57 57 55 54 55 52 44 49 49 57 60 58 60 57 57 55 54 50 44 43 43 32 36 34 36 38 45 44
61 61 60 60 60 60 60 60 59 59 59 58 58 58 58 57 57 57 53 47 41 41 43 39 42 45 49 55 60 56 59 57 55 52 45 49 44 40 43 43 42 42 39 36 40 46 42
60 60 59 60 59 60 60 59 59 59 58 58 58 57 56 57 57 57 48 41 41 45 36 45 47 48 52 56 50 54 60 51 49 44 46 44 41 48 48 47 45 42 38 35 41 45 41
60 60 59 60 60 59 59 59 58 58 58 57 57 57 56 56 57 49 46 44 51 48 36 41 48 45 48 54 47 50 56 52 46 44 44 38 44 50 49 45 43 42 39 35 36 41 38
59 59 59 59 59 59 58 58 58 58 57 57 57 57 57 55 48 46 43 50 50 47 27 34 40 46 50 53 44 57 59 52 48 44 45 43 48 47 44 42 44 38 44 42 39 35 29
59 59 59 59 58 58 57 58 57 57 57 56 56 56 56 55 45 42 47 48 47 44 9 38 40 52 52 48 46 50 57 54 45 43 44 39 43 43 41 43 45 40 44 40 37 31 29
58 59 59 58 58 58 57 57 57 57 57 56 56 55 54 48 46 46 50 48 44 22 18 33 42 40 42 46 45 50 49 55 54 45 45 43 50 47 44 45 47 45 40 35 32 29 18
58 58 58 58 57 57 57 57 57 57 56 56 56 55 51 52 42 48 47 41 24 18 32 32 34 41 42 42 43 45 42 42 39 33 33 37 39 46 47 39 43 40 33 21 19 16 20
58 58 58 57 57 57 57 57 56 56 56 56 55 54 51 51 49 50 45 30 18 30 25 38 42 43 38 41 42 41 40 37 43 37 33 29 30 41 44 39 37 34 34 23 19 18 22
57 57 57 57 57 56 56 56 56 56 56 55 53 44 45 49 51 49 37 27 28 31 34 38 40 36 36 40 40 39 38 36 40 38 33 30 29 42 43 42 41 34 25 33 23 21 16
57 57 57 57 56 55 55 55 55 55 56 55 40 43 45 50 48 43 35 34 36 39 45 41 33 35 31 36 36 36 36 41 40 41 40 35 28 38 41 44 42 37 38 25 19 13 16
56 57 57 56 56 55 54 55 55 55 55 53 39 36 45 48 45 38 32 33 38 43 44 39 34 33 33 34 35 33 35 40 43 41 42 37 33 34 38 34 33 34 30 29 28 23 18
56 56 57 56 55 54 54 54 55 55 55 46 36 32 45 46 36 36 34 38 43 41 43 42 41 38 34 35 33 34 34 38 45 45 37 38 32 27 34 37 39 36 33 31 19 18 21
56 56 56 56 55 54 54 54 54 54 54 40 34 34 43 42 32 29 36 39 40 41 42 41 39 41 39 36 33 35 38 43 45 43 39 40 28 19 27 32 36 31 34 33 30 26 15
55 55 56 55 55 54 54 53 54 54 54 40 35 29 35 37 37 32 33 35 37 44 42 42 40 43 40 37 39 35 37 42 44 44 49 44 31 26 21 27 30 24 32 32 29 18 22
55 55 55 55 55 54 54 53 53 53 53 41 36 35 39 31 33 33 35 36 36 36 42 43 40 40 39 34 35 34 38 39 44 47 42 39 24 23 30 33 31 31 32 31 26 29 23
55 55 55 55 55 54 53 53 53 53 52 40 38 37 40 37 34 33 37 36 36 37 38 38 38 41 41 37 36 34 37 35 36 39 41 39 27 28 25 32 31 27 32 32 32 32 31
54 54 55 55 54 54 53 53 53 53 49 41 42 44 39 36 33 33 34 37 39 40 42 43 45 43 41 42 40 40 41 42 41 38 34 36 28 22 19 29 30 26 30 33 33 37 39
54 54 54 54 54 54 53 53 53 53 48 42 43 41 37 31 31 34 37 38 39 40 38 41 45 41 44 44 43 45 42 40 41 38 39 32 31 29 19 26 19 35 40 39 38 40 42
54 54 54 54 54 53 53 53 53 53 52 40 43 40 38 34 36 35 37 37 38 39 39 40 41 41 43 41 36 34 36 39 40 42 42 42 37 26 25 25 29 37 39 38 38 41 43
54 53 53 53 53 53 52 52 53 53 52 40 43 43 40 35 31 39 37 36 35 33 36 39 42 43 42 37 35 28 26 31 33 36 41 41 37 29 29 23 20 38 43 46 46 35 44
53 52 53 53 53 53 52 52 52 53 52 42 37 39 39 35 39 41 37 36 39 35 34 36 38 39 40 33 31 27 28 35 31 31 33 34 34 29 31 27 30 44 45 46 34 36 42
52 52 52 52 52 52 52 52 52 52 52 43 38 41 35 34 37 38 41 41 41 37 34 38 37 37 34 32 31 30 28 32 30 33 33 31 31 31 32 27 26 45 44 40 43 43 42
51 52 52 52 52 52 51 52 52 52 52 47 36 40 41 33 32 40 42 43 45 44 41 40 38 36 38 33 31 32 32 30 30 29 34 32 34 31 33 34 45 47 47 48 44 42 40

GFSGBSN_sfc_temp_045.txt.gz
Temp
64 64 63 63 63 62 62 61 61 61 60 61 61 60 60 60 60 59 59 59 59 59 59 60 61 61 57 48 50 63 67 68 68 65 60 57 54 54 50 51 52 50 52 56 59 58 58
63 63 63 62 61 62 61 61 61 60 60 60 60 59 59 59 59 59 59 59 59 59 59 59 60 60 49 42 61 59 63 66 64 62 59 59 56 58 54 52 51 53 55 55 57 57 58
63 62 63 62 61 61 61 61 60 60 60 61 61 59 58 58 58 58 58 59 59 58 58 59 60 55 48 48 62 60 62 62 65 63 58 60 62 57 55 50 55 53 48 52 54 55 55
62 62 62 61 62 61 61 61 60 60 61 61 60 59 58 59 59 59 58 57 58 58 57 58 58 51 43 61 59 59 59 61 65 64 63 61 62 56 55 55 52 48 49 42 51 53 55
62 62 62 61 61 61 61 60 60 60 60 59 59 58 59 58 58 58 57 57 57 58 57 57 52 48 43 60 55 60 58 56 60 58 58 62 59 54 52 46 42 44 36 39 46 52 52
61 61 61 60 60 61 61 60 60 60 60 59 59 58 57 58 58 57 57 57 57 54 54 55 53 43 49 48 55 59 60 58 56 54 54 54 51 45 44 42 34 38 37 40 42 49 49
61 61 61 60 60 60 60 60 59 59 59 59 58 57 57 56 58 57 52 46 40 40 44 39 41 43 48 54 59 55 59 56 57 53 45 49 42 39 44 46 45 44 41 40 44 49 47
60 60 60 60 60 60 60 59 59 59 59 58 58 57 57 57 56 57 47 40 42 45 36 45 47 48 52 52 48 53 58 49 48 43 47 44 40 47 48 48 46 44 40 39 44 47 46
60 60 60 60 60 59 59 59 58 58 58 58 57 57 57 56 56 48 44 43 50 48 36 40 45 44 48 51 46 49 53 51 47 42 38 40 46 51 49 46 44 43 40 39 40 44 43
59 59 60 59 59 59 58 58 58 58 58 57 57 56 56 56 48 45 41 50 49 47 20 33 40 45 48 51 44 56 58 52 47 39 40 38 47 48 46 44 46 38 45 43 41 39 34
59 59 59 59 58 58 58 57 57 57 57 57 57 56 56 53 44 42 46 47 46 42 15 37 40 52 51 46 47 50 58 53 44 44 45 38 43 43 41 43 47 41 46 42 39 35 35
58 58 58 58 58 57 57 57 57 57 57 56 56 56 54 48 47 47 49 48 44 20 19 33 42 41 43 45 46 50 49 55 52 45 45 42 49 46 42 45 45 45 41 37 35 34 27
58 58 58 58 57 57 56 56 56 56 56 56 56 56 51 51 42 48 47 40 20 20 30 32 34 42 42 40 43 45 42 42 39 33 33 38 39 46 45 39 44 42 37 27 25 23 27
57 58 57 57 57 56 56 56 56 56 56 56 55 54 50 50 47 50 46 29 21 30 30 38 40 42 38 41 41 41 39 38 42 38 33 31 30 40 45 41 37 38 38 29 24 24 27
57 57 57 57 57 56 56 56 56 56 55 55 52 44 46 47 51 49 39 30 28 26 34 38 41 35 36 39 40 39 35 38 39 41 35 31 31 44 44 44 43 37 32 36 26 25 24
57 57 57 57 56 56 55 55 55 55 55 55 40 39 41 49 47 42 35 34 35 38 42 39 33 35 33 36 36 36 36 42 40 42 42 37 30 40 42 45 43 39 39 29 25 20 23
56 56 57 57 56 55 55 55 55 55 55 53 38 37 44 47 44 38 31 33 39 43 42 38 33 33 36 37 35 33 36 41 43 41 42 39 35 34 40 37 35 35 33 31 31 26 24
56 56 57 56 55 55 54 54 55 55 55 45 36 33 45 45 35 36 34 38 43 40 43 41 40 37 34 35 33 33 34 38 46 45 38 39 35 30 33 38 40 38 34 32 25 23 23
55 56 56 56 55 55 54 54 54 54 54 40 34 34 43 43 29 27 35 38 39 40 40 41 38 40 39 36 33 36 37 43 45 43 39 40 30 24 30 35 37 34 35 34 31 27 21
55 55 55 56 55 55 54 54 54 54 54 40 34 29 35 37 35 31 32 35 37 42 41 41 39 41 39 36 37 34 36 41 43 44 48 44 32 28 24 30 32 26 33 33 30 23 25
55 55 55 55 55 55 54 53 53 53 53 41 35 35 39 31 32 32 32 34 34 36 41 42 39 39 38 33 34 34 37 38 43 47 42 39 25 24 32 34 32 32 33 32 28 30 27
55 55 55 55 55 54 54 53 53 53 52 40 35 37 40 38 33 30 36 33 35 36 36 37 37 39 39 36 36 34 37 36 36 38 38 37 29 27 26 33 32 28 33 33 34 34 32
54 54 54 55 55 54 53 53 53 53 48 40 42 44 39 35 31 30 32 35 37 39 39 41 41 40 39 40 39 39 39 41 40 38 35 35 29 24 21 30 30 26 31 33 33 35 37
54 54 54 54 54 53 53 53 53 53 47 41 42 41 37 32 31 33 34 36 37 38 37 39 43 41 42 43 42 42 40 39 40 37 39 34 31 27 21 26 19 35 40 39 37 39 41
54 54 54 54 54 53 53 52 53 53 51 39 42 39 38 34 38 33 34 35 38 38 37 38 39 40 43 42 38 33 36 39 40 42 42 43 37 27 23 26 29 36 37 37 36 39 44
54 54 53 53 53 52 52 52 52 53 52 40 39 39 39 35 30 39 37 37 33 31 35 37 41 42 42 38 37 29 27 30 32 35 41 40 37 31 26 25 21 36 44 46 45 35 47
53 53 53 53 53 53 52 52 52 52 51 41 37 39 36 34 36 41 37 37 37 34 33 35 38 38 39 33 34 30 28 33 30 31 33 33 33 29 28 28 30 39 46 46 34 37 46
53 53 52 52 52 52 52 52 52 52 52 43 38 40 35 32 33 37 39 39 41 39 32 36 37 37 33 32 33 31 28 31 32 32 36 32 31 31 32 27 23 43 43 40 45 45 45
53 52 52 52 52 52 52 52 50 53 52 47 36 40 40 33 34 40 43 44 41 43 38 42 36 35 37 32 31 30 30 29 30 31 33 30 33 31 33 34 42 44 47 50 47 45 44

GFSGBSN_sfc_temp_048.txt.gz
Temp
63 63 63 63 62 62 62 62 62 61 61 61 61 62 60 60 59 59 59 59 60 59 59 59 60 60 59 49 52 67 66 68 68 68 63 62 59 57 54 58 60 59 60 63 66 64 64
64 62 63 62 62 62 62 62 61 61 61 62 62 62 60 59 58 59 59 59 60 59 58 59 59 59 53 41 68 67 63 67 67 65 62 64 63 63 59 58 57 62 61 62 64 63 63
63 63 62 62 61 62 61 62 60 61 61 61 60 60 59 58 59 60 59 59 59 59 59 58 59 58 51 50 65 64 62 64 69 66 60 65 68 62 61 55 62 60 56 60 60 62 62
62 62 62 62 61 61 61 61 60 61 61 60 60 59 59 58 59 59 59 58 57 57 58 58 58 56 47 65 66 60 59 62 68 68 66 67 69 64 61 62 58 55 56 49 60 61 61
61 62 62 61 62 61 60 61 60 60 60 60 59 59 59 57 58 58 58 58 58 59 59 58 55 52 46 64 55 59 62 60 64 64 65 64 65 60 57 53 49 53 48 49 52 60 61
61 62 61 61 61 61 60 60 59 59 60 60 59 58 58 58 56 58 58 57 57 56 58 58 57 45 53 51 58 59 62 62 61 59 54 55 55 52 54 51 41 46 48 49 50 54 56
61 61 61 61 60 60 60 59 58 59 59 59 59 58 58 58 56 58 56 55 51 47 50 45 46 45 49 54 62 57 61 55 59 54 47 51 44 43 50 54 53 53 50 49 52 54 53
60 61 61 60 60 60 59 59 58 58 59 59 58 58 58 57 55 56 56 49 48 50 42 49 50 50 52 52 49 53 59 49 52 45 50 44 41 54 56 55 51 51 49 49 50 52 53
60 60 60 60 59 59 59 58 58 58 58 58 58 57 57 56 55 54 52 48 55 54 43 44 48 46 46 51 50 49 53 51 51 46 46 42 48 55 52 51 49 49 48 47 48 49 50
60 59 59 59 59 58 58 58 57 57 57 57 57 57 56 56 53 52 49 53 56 55 34 34 39 46 48 52 46 55 52 50 42 40 42 43 51 52 51 49 53 44 51 50 47 46 44
59 59 59 59 58 58 57 57 58 57 57 57 57 57 55 55 52 48 49 54 55 50 23 36 40 53 52 47 49 47 54 49 40 41 42 38 42 47 47 50 54 45 51 48 46 46 44
58 59 58 58 58 57 57 57 57 57 56 56 56 56 54 55 53 50 54 54 51 32 23 33 41 42 45 45 47 51 50 56 54 47 46 40 46 44 42 43 51 50 47 44 44 44 35
58 58 58 58 58 57 57 57 57 57 56 56 56 56 55 56 50 55 54 48 33 28 34 33 36 44 43 41 44 47 44 47 45 35 36 39 38 43 46 38 43 45 44 33 32 31 36
58 58 58 58 57 57 56 56 56 56 56 55 55 54 54 56 53 53 50 39 29 33 32 39 43 44 38 41 42 40 41 43 47 46 37 35 31 41 42 43 40 38 39 38 31 33 37
57 57 57 57 57 57 56 56 56 56 56 55 53 54 54 55 55 54 43 32 31 33 36 39 43 40 38 44 43 39 37 42 46 48 39 35 33 46 47 49 49 40 36 44 35 34 35
57 57 57 57 57 56 56 56 55 55 55 54 50 50 52 55 55 51 43 35 37 41 46 45 38 41 38 39 41 40 37 46 45 48 49 43 32 43 45 50 48 47 47 36 36 29 31
56 56 57 57 56 56 55 55 55 55 55 53 50 49 53 54 52 49 34 35 42 48 48 44 41 41 43 39 42 41 41 45 49 47 50 48 43 36 44 43 42 41 41 40 42 37 35
56 56 57 56 56 55 55 55 55 55 55 50 47 45 53 52 44 43 39 41 44 47 50 48 48 45 44 43 41 42 43 45 51 51 46 47 44 34 37 44 46 46 43 44 38 32 34
56 56 56 56 55 55 55 54 54 55 54 48 44 45 54 51 41 41 44 45 45 47 47 47 45 47 47 44 41 44 44 48 51 50 47 48 39 30 33 40 42 39 42 42 39 37 30
55 55 55 55 56 55 54 54 54 54 54 50 45 42 48 49 46 45 43 43 44 48 47 48 47 49 46 43 46 42 43 46 49 50 48 49 40 36 36 36 40 33 38 40 38 33 37
55 55 55 55 55 55 54 54 54 54 53 50 44 37 41 40 43 43 43 43 42 43 48 49 47 47 46 41 42 42 44 45 48 48 48 48 33 33 38 39 38 37 38 38 33 40 34
55 55 55 55 55 54 53 53 53 53 52 50 40 38 43 42 41 43 43 43 42 43 44 45 45 47 48 45 46 42 44 45 45 47 46 45 33 34 34 38 37 33 39 40 40 41 41
54 54 54 55 54 54 53 53 53 53 51 46 46 46 40 40 41 43 44 43 44 45 46 47 49 48 46 47 49 50 53 52 51 47 44 43 35 34 32 36 36 33 38 40 41 43 44
54 54 54 54 54 53 53 53 53 53 50 47 44 42 38 37 41 42 41 41 44 45 44 47 49 49 49 53 53 53 52 50 50 47 50 42 40 37 33 34 27 42 46 46 43 45 46
54 54 54 54 54 53 53 53 53 53 51 48 46 42 39 34 41 40 38 38 44 47 46 47 47 49 54 50 45 42 42 43 43 45 47 48 43 35 32 33 40 43 42 42 40 43 49
54 54 53 53 53 53 53 52 53 53 52 49 45 45 41 35 39 40 39 40 42 45 45 45 49 51 50 47 43 36 35 39 36 39 45 45 47 40 33 27 28 43 49 52 51 40 52
54 54 53 53 53 53 53 52 52 53 51 49 45 45 42 36 43 43 39 38 43 43 43 45 46 46 48 44 37 36 38 42 35 33 34 37 38 34 34 31 39 49 50 52 37 40 53
54 54 53 53 53 52 52 52 52 51 52 48 46 46 42 36 40 42 43 41 42 41 41 43 44 44 43 40 39 37 39 42 40 43 38 38 35 33 35 31 28 51 48 43 50 52 53
54 53 53 52 52 52 52 52 52 51 52 49 42 46 45 38 39 45 47 49 46 44 37 41 43 45 49 44 42 43 39 41 42 35 44 37 44 41 42 42 51 53 53 56 53 52 51

GFSGBSN_sfc_temp_051.txt.gz
Temp
64 64 63 63 62 62 62 62 62 61 62 62 62 61 61 60 60 59 59 60 60 60 60 60 60 58 57 51 55 70 67 72 70 67 66 64 63 60 56 61 62 60 66 69 69 65 66
63 63 63 63 62 62 62 62 62 61 62 62 61 60 60 60 58 59 60 60 60 60 59 59 59 58 53 42 70 70 65 69 65 65 67 67 65 67 60 61 60 64 65 66 68 64 65
63 62 63 62 62 62 61 61 61 60 61 61 61 60 59 59 57 59 60 60 59 58 59 59 59 59 51 52 70 67 63 66 69 66 65 70 71 64 64 57 65 63 59 62 65 65 63
62 62 62 62 62 62 61 61 60 60 60 61 60 60 59 59 58 59 59 59 58 58 58 59 59 58 46 67 70 62 61 64 70 69 70 70 71 67 61 63 60 57 58 49 61 63 64
62 62 62 62 62 61 61 60 60 60 60 60 60 59 59 59 58 58 58 58 59 59 59 59 57 53 47 66 59 63 65 60 64 62 69 69 65 60 60 54 49 53 47 51 56 65 62
62 61 61 61 61 61 61 60 60 60 59 60 59 59 58 59 57 57 58 57 57 56 59 61 59 47 55 53 60 60 63 59 57 61 56 55 54 51 55 53 42 46 48 54 54 58 60
61 61 61 61 60 60 60 60 59 59 59 59 59 58 58 58 57 58 58 58 52 48 53 47 49 48 51 56 59 54 57 56 59 58 48 51 45 42 51 56 58 56 53 53 57 58 56
60 60 60 60 60 60 59 59 58 59 58 58 58 58 57 58 57 56 60 52 50 52 44 52 52 52 54 50 46 52 57 50 54 47 50 44 40 54 58 58 56 53 52 52 54 57 55
60 60 60 60 60 59 59 58 58 58 58 58 57 58 57 57 56 59 55 51 59 58 45 47 50 48 46 49 48 48 53 52 53 48 48 43 44 54 54 53 52 52 49 52 51 53 55
59 59 60 59 59 59 58 58 58 58 57 57 57 57 56 57 54 56 51 57 59 58 35 36 40 43 47 48 45 53 52 52 44 46 49 46 49 50 52 51 55 47 55 54 50 48 45
59 59 59 59 59 58 58 58 58 58 57 57 56 57 56 57 57 51 52 57 58 53 24 38 40 52 48 47 47 46 53 50 42 43 42 37 45 46 48 52 57 49 55 52 50 48 47
59 58 59 58 58 58 57 57 57 57 57 56 56 57 56 58 59 57 59 59 54 33 25 34 41 44 44 46 47 48 48 55 55 44 44 41 47 47 49 51 55 55 51 49 48 46 36
58 58 58 58 58 57 57 57 57 57 56 56 56 56 56 61 54 59 58 51 33 30 37 34 39 46 41 42 44 43 42 41 38 33 34 36 36 44 46 44 49 51 46 35 33 32 37
58 57 58 58 58 57 57 57 56 56 56 55 55 54 57 61 60 58 52 42 31 35 34 42 43 45 39 46 44 43 46 43 49 48 39 33 30 35 42 43 41 45 46 40 32 34 39
57 57 57 58 57 57 57 56 56 56 55 55 54 60 57 60 60 57 45 34 34 35 38 43 47 42 41 46 43 39 43 46 50 53 41 38 33 43 43 45 45 37 36 48 40 42 39
57 57 57 57 57 56 56 56 56 56 55 55 56 57 58 59 59 51 45 36 39 43 47 49 41 44 40 44 45 45 43 49 48 51 54 47 33 44 47 51 50 46 50 36 38 31 33
56 56 57 57 56 56 56 55 55 55 55 55 55 53 57 59 56 53 35 37 45 52 51 47 46 45 46 44 47 46 45 48 53 51 54 52 46 39 45 44 44 44 43 44 44 40 37
56 56 56 56 56 55 55 55 55 55 55 56 53 46 57 58 48 49 42 48 47 51 54 51 51 49 48 48 46 46 45 50 55 55 49 50 46 35 39 48 50 50 49 49 40 35 39
56 56 56 56 56 55 55 54 54 55 54 51 50 53 58 56 44 45 49 49 51 51 50 50 48 50 51 48 44 48 48 51 54 53 51 51 41 32 35 43 47 42 47 48 45 40 33
55 55 55 55 55 55 54 54 54 54 54 53 51 43 52 58 54 51 49 48 47 52 51 52 50 52 50 47 51 46 47 49 52 53 49 53 45 39 37 38 43 35 43 45 40 34 40
55 55 55 55 55 55 54 54 54 54 54 53 52 41 42 42 49 50 49 48 46 46 52 53 50 51 50 45 47 46 49 49 51 48 51 51 33 34 42 43 41 39 41 42 35 41 37
55 55 55 55 55 54 54 53 53 53 53 55 43 39 45 46 48 47 45 47 46 47 48 48 48 51 52 48 50 46 49 50 48 51 50 49 35 36 37 42 41 35 42 43 42 42 43
54 54 55 55 54 54 54 53 53 53 54 51 50 49 42 45 48 47 49 48 47 49 49 52 52 52 50 51 54 55 57 56 54 51 49 46 38 35 34 39 39 35 41 42 44 46 45
54 54 54 54 54 54 53 53 53 53 52 52 48 42 39 39 46 46 45 46 47 49 48 51 53 52 51 58 58 58 56 54 54 52 55 46 42 40 34 35 27 43 49 50 46 49 50
54 54 54 54 54 53 53 53 53 53 52 52 51 45 39 38 44 45 43 42 46 51 49 51 52 55 59 54 47 43 43 45 47 50 51 53 47 38 34 36 43 48 46 44 43 45 52
54 54 54 53 53 53 53 53 53 53 52 53 50 50 43 37 43 44 41 42 40 47 49 50 52 57 53 50 44 35 34 41 38 42 49 50 50 41 35 30 30 45 50 54 53 41 55
54 54 54 53 53 53 52 53 53 52 52 51 50 50 46 38 46 46 44 39 43 44 44 49 49 49 50 45 39 38 37 46 37 38 37 40 41 35 35 32 40 53 53 55 38 40 54
53 54 54 53 52 52 52 52 52 52 51 50 49 51 46 40 42 45 47 43 45 41 38 43 46 47 46 42 41 42 42 44 43 45 41 39 37 36 38 32 29 54 52 45 51 54 54
53 54 54 51 52 52 52 52 52 52 51 51 46 51 51 41 42 48 48 50 48 48 40 39 39 47 51 46 48 48 44 46 45 37 50 39 46 43 43 43 54 56 55 58 56 54 53

GFSGBSN_sfc_temp_054.txt.gz
Temp
64 64 63 63 63 63 63 63 62 61 62 62 62 62 61 60 60 60 58 60 61 61 60 60 60 59 56 48 50 69 68 71 68 66 63 61 59 57 52 56 60 57 61 65 67 63 62
63 63 63 63 63 63 62 62 61 61 61 62 62 61 60 60 60 58 58 60 60 60 60 59 59 58 51 40 66 69 66 66 66 62 62 63 61 63 58 59 56 61 62 63 64 62 63
63 63 63 63 62 62 62 61 61 61 61 62 61 61 61 60 60 58 59 60 60 59 59 59 59 58 49 49 68 66 65 61 65 64 59 65 68 63 61 56 63 62 55 58 60 61 59
63 62 62 62 62 62 61 61 60 61 61 61 61 60 60 59 59 57 59 59 59 58 58 59 59 56 45 64 64 64 59 59 63 65 67 69 69 63 58 61 59 54 53 47 57 60 61
62 62 62 62 62 61 61 60 60 60 60 60 60 60 59 59 58 57 58 58 59 59 59 59 55 52 45 66 58 63 57 55 63 62 64 70 64 57 57 49 46 50 41 45 51 61 59
62 61 61 61 61 61 61 60 59 59 60 60 59 59 58 58 57 58 58 58 58 57 58 61 58 46 53 51 60 61 59 58 58 57 56 56 52 48 48 44 35 41 42 47 48 57 57
61 61 61 61 60 61 60 60 59 59 59 59 59 58 58 58 58 58 56 54 49 47 52 43 46 48 51 56 59 54 56 56 57 53 45 50 43 40 45 50 51 51 47 46 54 57 54
60 60 60 60 60 60 60 59 59 59 59 59 58 58 58 58 58 58 56 51 49 50 41 53 53 52 54 52 46 51 57 49 48 44 49 44 40 50 54 54 53 48 46 47 52 55 53
60 60 60 60 60 60 59 59 59 59 58 58 58 58 58 57 58 56 54 51 58 58 41 46 49 48 47 50 44 48 53 50 47 47 45 41 47 54 53 51 50 47 45 47 47 50 51
59 59 59 60 59 59 59 58 58 58 58 57 57 57 58 57 51 56 50 56 59 56 33 37 42 45 47 44 39 52 52 49 48 45 47 45 50 48 47 48 52 44 52 52 49 44 37
59 59 59 59 59 59 58 58 58 58 57 57 56 57 57 57 52 52 54 58 57 50 22 40 41 51 48 42 45 45 53 54 46 43 45 39 44 44 43 48 54 49 53 49 48 43 40
58 58 58 58 58 58 58 58 58 57 57 56 56 56 56 55 55 57 59 58 52 32 24 33 41 42 42 47 46 47 48 55 55 45 42 41 48 46 45 48 53 54 47 46 45 41 30
58 58 58 58 58 58 58 57 57 57 56 56 55 56 54 59 50 59 56 48 32 28 37 34 37 40 40 40 41 43 43 42 39 34 34 35 36 43 46 43 49 48 39 27 27 27 28
57 57 57 58 58 58 57 57 57 57 56 55 55 54 57 60 59 57 50 39 28 35 34 44 44 47 39 42 42 39 39 38 46 44 36 32 29 37 43 43 40 40 40 29 25 26 30
57 57 57 58 58 57 57 57 56 56 55 55 55 56 56 58 59 54 42 33 32 34 37 43 45 43 42 45 43 43 42 41 45 47 36 34 32 40 43 47 46 37 34 43 32 36 29
57 57 57 57 57 56 56 56 56 56 55 55 52 55 55 59 58 49 40 37 40 46 48 49 41 45 40 43 43 43 43 49 46 51 51 43 31 38 40 45 44 41 47 34 29 22 26
56 56 57 57 56 56 56 56 56 56 55 55 52 50 53 59 55 45 34 36 45 53 52 47 46 45 46 45 46 45 45 48 52 49 51 48 41 35 41 37 36 37 36 39 37 31 25
56 56 56 56 56 56 55 55 55 55 55 55 50 43 54 56 44 46 38 46 49 51 53 51 50 49 47 47 46 45 44 47 53 53 46 47 40 33 38 47 49 46 45 44 31 31 28
56 56 56 56 55 55 55 55 55 55 55 48 46 49 55 53 40 42 48 49 51 51 50 51 48 50 50 46 41 46 46 50 52 51 46 47 36 29 31 37 43 39 44 44 38 34 27
55 55 55 55 55 55 54 54 54 54 55 50 48 39 45 51 51 46 46 47 47 51 51 52 50 51 48 45 48 43 44 48 49 50 50 49 40 32 26 31 37 32 39 42 34 25 31
55 55 55 55 55 55 54 54 54 54 54 50 48 41 43 37 45 45 48 48 47 46 50 52 48 49 48 43 45 44 46 45 49 48 47 45 29 27 37 41 36 35 37 39 29 35 27
55 54 55 55 55 54 54 54 53 54 54 50 41 38 43 41 46 45 44 46 46 48 47 47 45 50 49 45 46 43 46 45 44 46 45 45 29 31 30 41 38 31 38 39 39 39 38
54 54 55 55 54 54 54 53 53 53 53 47 46 48 42 43 46 43 42 44 47 48 49 51 49 49 48 48 51 51 51 51 49 45 43 40 32 29 26 35 34 29 37 38 41 42 41
54 54 54 54 54 54 54 53 53 53 52 49 46 42 38 37 41 42 44 44 44 46 44 51 52 48 48 53 52 50 48 48 47 45 49 40 36 33 26 28 18 39 46 45 42 45 45
54 54 54 54 53 53 53 53 53 53 53 48 48 43 38 34 40 43 41 42 43 47 46 49 50 51 53 49 43 40 40 41 45 45 45 47 40 31 25 25 35 42 43 41 40 40 49
54 54 54 54 53 53 53 53 53 52 52 49 47 47 42 35 37 43 40 42 38 41 45 48 50 52 49 44 40 31 29 37 35 39 45 46 43 36 32 26 23 40 46 50 48 35 48
54 54 54 53 53 53 53 52 53 52 52 48 47 48 42 35 43 42 39 37 43 40 39 45 46 44 47 39 34 31 33 41 33 35 35 36 36 31 33 30 33 46 49 50 34 37 48
54 54 54 53 52 52 52 52 52 52 51 48 47 49 42 37 39 43 44 40 40 40 35 38 42 43 40 36 36 37 33 37 36 41 38 37 34 33 35 29 24 48 46 38 43 50 50
54 53 54 53 52 52 52 52 52 52 52 51 43 50 49 38 39 46 46 47 46 45 39 39 36 40 43 39 39 40 36 38 36 34 42 34 39 36 38 36 47 49 48 50 52 47 48

GFSGBSN_sfc_temp_057.txt.gz
Temp
64 64 64 64 63 63 63 62 62 62 62 63 62 62 62 62 61 61 59 59 61 61 61 60 60 59 54 45 47 63 69 70 69 65 59 57 53 52 49 52 56 53 58 62 63 62 60
63 63 63 63 63 63 62 62 61 61 62 62 62 62 61 61 61 59 59 60 60 60 60 59 60 59 49 38 63 65 64 67 65 61 58 59 56 57 53 54 52 58 59 60 62 59 59
63 63 63 62 62 62 62 61 61 61 61 61 62 61 60 60 60 59 59 60 60 59 59 59 60 56 47 46 64 59 64 64 66 59 57 61 61 57 57 53 59 58 52 55 56 56 56
62 62 62 63 62 62 61 61 60 60 60 60 61 60 60 59 59 58 59 59 59 59 59 59 59 53 41 62 61 58 62 59 62 62 63 62 62 58 54 57 55 52 51 42 55 56 57
62 62 62 61 62 62 61 61 60 59 60 60 60 60 59 59 59 58 58 59 59 59 59 59 52 47 42 62 56 59 59 53 58 58 61 67 60 56 52 46 42 46 38 42 49 56 56
61 62 61 62 61 61 61 60 60 60 59 59 59 59 59 58 59 58 59 59 59 56 56 58 56 43 50 48 55 56 57 53 52 55 52 54 52 45 46 41 34 37 39 45 45 52 54
61 61 61 61 61 61 60 60 60 60 59 58 58 58 58 58 58 59 54 49 43 42 48 41 43 46 49 53 59 54 54 51 51 52 44 50 41 38 42 44 46 47 44 43 49 55 52
60 60 60 60 60 60 60 59 59 59 59 58 58 58 58 58 58 58 53 45 45 46 38 51 51 51 51 51 46 49 53 46 48 41 46 43 37 44 49 49 46 46 42 41 48 54 52
60 60 60 60 60 60 60 59 59 59 58 58 57 57 57 58 57 52 48 48 54 52 38 45 47 46 45 49 42 44 49 49 45 42 44 41 44 50 49 46 45 43 41 41 43 47 47
59 59 59 59 59 59 59 59 59 59 58 57 57 56 57 57 50 49 45 53 53 51 30 37 42 43 46 45 42 52 51 49 45 43 46 44 48 48 45 45 47 39 48 48 46 41 34
59 59 59 59 59 59 59 58 58 58 57 57 56 56 57 57 46 46 50 54 52 45 20 40 40 51 46 41 45 47 53 48 43 42 42 38 41 42 42 45 49 44 50 46 44 40 38
58 58 58 58 59 58 58 58 58 57 57 56 56 56 56 52 52 54 54 53 47 27 23 33 38 37 38 39 44 46 47 50 53 45 43 40 46 45 44 48 48 51 45 42 40 37 27
58 58 58 58 58 58 57 57 57 57 57 56 56 56 53 56 48 54 54 45 29 22 38 35 37 43 42 40 41 45 44 41 38 34 33 37 37 43 45 43 46 46 39 24 23 22 24
57 57 57 58 58 57 57 57 57 57 56 55 55 55 54 56 53 52 47 36 23 35 32 42 44 44 38 41 39 40 43 37 43 39 31 29 29 39 42 41 40 41 39 27 21 21 25
57 57 57 57 57 57 57 57 57 56 56 55 55 47 48 51 54 52 42 26 26 31 36 40 44 39 39 43 40 40 40 39 41 41 34 32 30 40 42 45 44 38 30 41 29 29 22
56 57 57 57 57 57 56 56 56 56 55 55 43 44 46 54 52 44 36 33 37 42 46 47 38 41 36 40 38 40 40 45 44 46 45 39 30 38 41 45 45 42 45 32 26 20 22
56 56 57 56 56 56 56 56 56 56 56 55 43 40 48 53 50 40 32 31 41 48 49 44 41 44 41 42 41 41 41 45 48 46 45 43 36 35 39 37 37 38 36 37 36 28 22
56 56 56 56 55 55 55 55 55 55 55 48 40 34 48 49 39 34 30 40 48 48 49 47 45 47 42 46 41 39 39 42 50 50 44 46 37 31 34 44 46 43 40 40 29 29 27
55 56 56 55 55 55 55 55 55 55 55 44 36 38 48 46 32 34 41 45 47 46 46 46 44 46 45 44 38 41 41 48 50 46 44 45 35 27 30 37 43 36 41 42 38 34 29
55 55 55 55 55 55 54 54 54 55 55 43 37 32 37 41 41 37 39 43 42 47 47 48 46 47 43 41 43 39 39 45 47 47 50 48 37 31 28 33 37 33 39 40 34 24 30
55 55 55 55 55 54 54 54 54 54 54 43 37 37 41 29 36 38 39 44 43 42 46 48 44 45 43 38 40 39 41 41 46 48 45 42 27 25 35 39 35 35 36 37 32 36 28
55 54 55 55 54 54 54 54 53 54 53 40 33 33 36 33 38 38 40 42 41 45 43 42 41 45 45 42 41 39 42 40 39 41 40 40 26 28 29 38 36 30 36 37 37 37 37
55 54 55 54 54 54 53 53 53 53 49 36 36 39 39 36 39 36 38 41 43 43 48 47 45 42 42 44 45 45 46 46 45 42 39 37 29 24 21 32 32 27 34 36 37 39 40
54 54 55 54 54 53 53 53 53 53 50 39 37 36 30 29 34 38 41 42 41 41 40 45 46 42 46 50 48 48 45 46 46 43 44 36 33 28 21 26 16 35 43 42 40 42 41
54 54 54 53 53 53 53 53 53 53 53 40 39 35 31 26 32 36 38 37 39 41 41 44 45 46 46 44 39 36 35 37 41 42 42 42 36 27 23 20 31 38 40 39 36 37 45
55 54 54 53 53 53 53 53 53 52 52 41 39 40 34 28 29 38 34 38 35 34 41 43 47 48 45 40 38 28 26 32 31 38 41 43 44 33 30 22 23 39 43 47 44 32 44
55 54 54 53 53 52 52 52 52 52 52 43 42 43 35 28 34 37 32 33 39 38 33 42 41 41 43 35 31 27 29 38 29 30 33 34 35 30 32 29 32 43 45 47 33 36 45
54 54 54 53 52 52 52 52 52 52 52 44 41 46 37 32 33 38 40 36 37 36 32 38 38 40 37 33 31 31 30 34 32 35 35 31 29 29 34 28 23 45 43 38 43 45 48
54 54 54 53 52 52 52 52 52 52 52 50 37 46 48 38 34 41 43 44 43 42 35 36 35 38 40 36 35 36 33 32 32 28 36 31 36 32 34 34 44 46 45 46 47 48 45

GFSGBSN_sfc_temp_060.txt.gz
Temp
64 64 64 63 63 63 63 63 61 61 62 63 63 62 62 61 61 60 60 60 60 60 60 60 60 60 54 43 45 62 66 65 67 63 57 55 50 50 46 50 55 51 56 60 60 58 56
63 63 63 63 63 63 63 62 61 61 61 62 62 62 61 61 60 59 60 60 60 60 59 59 60 59 48 37 59 62 60 63 63 60 56 56 52 54 50 52 52 55 57 57 57 58 59
63 63 63 62 63 62 62 61 61 60 61 61 62 61 60 60 60 59 60 60 60 59 59 59 59 56 46 44 60 60 59 61 64 62 55 58 58 53 53 50 56 56 50 53 56 56 57
62 62 62 63 62 62 62 61 61 60 60 61 61 60 60 60 59 59 59 59 59 59 59 59 59 51 41 59 58 58 58 59 60 62 59 60 61 53 51 54 52 50 49 41 53 55 58
62 62 62 62 62 61 61 61 60 60 60 60 60 59 59 59 59 59 59 59 59 59 59 59 51 46 39 60 55 58 59 55 56 57 57 61 57 52 50 44 41 45 37 40 48 55 55
61 61 61 61 61 61 61 60 60 60 60 60 59 58 58 59 58 58 59 59 59 56 56 57 55 42 49 46 54 55 56 56 50 52 50 51 49 44 42 41 34 37 39 44 45 51 52
61 61 61 61 61 61 61 61 59 59 59 59 59 57 58 58 58 59 54 48 42 41 46 41 44 44 47 53 55 51 53 52 49 49 43 49 41 37 41 42 45 45 43 42 46 53 51
60 60 60 60 60 60 60 60 60 60 59 58 58 57 57 58 58 58 51 43 44 46 37 49 49 48 51 50 45 47 53 44 46 42 47 42 39 43 48 47 45 45 41 41 46 53 50
60 60 60 60 60 60 59 59 59 59 59 58 57 57 57 57 57 51 46 47 52 51 37 44 48 45 44 48 43 43 49 47 44 42 42 40 43 49 48 43 42 40 40 40 42 46 47
59 59 59 59 60 59 59 59 59 59 58 57 57 57 57 57 50 48 44 52 53 52 27 37 42 44 47 46 42 50 49 48 43 41 46 43 48 46 44 42 44 35 47 47 44 41 35
59 59 58 58 59 59 58 58 58 58 57 57 56 57 56 56 45 44 50 52 51 47 22 40 40 51 48 43 43 45 52 50 41 43 44 38 41 42 41 44 47 42 47 45 43 39 37
58 58 58 58 58 58 58 58 58 57 57 56 56 56 56 51 47 50 52 50 45 26 23 33 39 39 41 42 43 46 45 51 52 45 43 41 45 43 41 45 48 48 43 40 39 37 27
58 57 57 58 58 58 57 57 57 57 57 56 56 56 53 54 45 52 51 42 25 23 37 35 38 42 41 40 41 40 43 41 38 33 33 37 38 42 44 42 46 45 37 26 26 26 24
57 57 57 57 57 58 57 57 57 57 56 55 55 55 52 54 51 50 45 33 22 33 31 42 43 42 37 41 40 42 41 37 42 39 33 31 29 40 43 40 38 40 36 25 21 21 26
57 57 57 57 57 57 57 57 57 56 56 55 54 46 46 49 52 48 37 23 26 28 35 38 42 37 37 40 40 41 40 37 40 39 33 33 31 41 43 45 43 39 34 38 28 26 21
56 56 57 57 57 56 56 56 56 56 55 55 42 43 45 52 50 43 33 32 32 41 43 43 35 40 35 36 38 37 39 42 41 43 42 36 30 40 42 44 44 41 43 31 26 19 21
56 56 56 56 56 56 56 56 56 56 55 54 43 40 47 51 48 38 27 29 39 47 46 41 39 41 43 39 39 40 38 46 46 43 43 39 34 35 40 38 37 38 37 34 34 27 22
56 56 56 56 55 55 55 55 55 56 55 47 38 34 47 48 40 33 28 38 47 45 47 44 43 42 41 41 38 37 37 40 48 47 40 43 35 31 35 43 45 41 39 40 30 24 23
55 55 55 55 55 55 54 55 55 55 55 41 35 36 46 45 32 30 40 43 45 44 44 44 42 44 43 40 36 39 39 45 47 45 42 44 31 22 30 35 42 37 38 40 36 32 21
55 55 55 55 55 54 54 54 54 55 55 43 36 29 35 40 38 38 36 40 40 45 45 46 44 45 41 39 42 37 38 44 46 46 50 47 35 31 26 30 33 29 36 38 35 27 32
55 55 55 55 55 54 54 54 54 54 54 43 34 34 38 28 34 35 36 42 44 40 44 45 42 42 40 35 37 36 38 39 44 47 42 41 27 26 34 37 35 35 36 37 32 37 32
55 54 54 54 54 54 54 53 54 54 52 37 32 30 34 31 35 34 38 37 40 42 45 40 39 43 41 39 40 37 39 37 38 39 38 38 25 28 30 35 34 30 36 37 38 38 37
55 54 54 54 54 54 53 53 53 53 47 35 34 36 34 34 33 38 38 40 41 41 47 45 43 40 40 42 43 42 44 44 42 40 37 35 28 23 21 31 31 27 33 35 36 38 40
55 54 54 54 53 53 53 53 53 53 47 37 35 34 29 29 30 34 37 40 40 41 38 43 44 41 44 48 46 44 43 43 42 39 41 33 31 27 19 26 16 34 40 40 39 41 40
55 54 54 53 53 53 53 53 53 53 51 39 37 34 29 26 29 33 34 35 38 41 39 41 43 44 44 43 37 34 33 36 38 41 40 40 34 27 22 19 29 35 38 37 35 37 43
55 54 54 53 53 52 52 52 52 52 52 40 38 37 33 27 28 35 32 33 33 34 38 41 45 45 44 39 36 28 26 30 29 34 38 43 42 31 28 20 20 35 42 44 42 31 43
55 54 54 53 53 52 52 52 53 52 52 42 39 40 34 28 32 34 30 29 34 36 34 38 40 39 41 35 31 26 28 35 28 28 30 33 35 28 29 28 30 41 43 44 30 34 43
55 54 54 53 53 52 52 52 52 52 52 43 38 42 36 32 32 37 38 34 34 33 30 37 38 39 36 32 32 30 28 32 30 32 32 31 31 28 33 26 22 43 41 37 42 43 43
54 54 54 53 52 52 52 52 52 52 52 46 36 46 47 37 36 39 41 42 41 40 35 34 34 34 37 36 32 32 31 30 30 27 33 30 34 30 32 32 42 44 44 45 46 47 47

GFSGBSN_sfc_temp_063.txt.gz
Temp
64 63 63 63 63 63 63 63 62 61 62 62 63 62 61 61 61 60 61 61 61 60 60 60 60 60 53 42 42 58 64 63 63 61 55 53 50 47 45 47 52 49 55 59 56 56 56
63 63 63 63 63 63 62 62 61 61 61 62 62 61 61 61 60 60 60 60 60 60 59 59 60 59 47 35 56 60 60 60 62 59 54 54 51 52 48 49 49 53 56 56 54 55 57
63 63 62 63 62 62 62 62 61 61 61 61 61 60 60 60 60 60 60 60 59 59 59 59 59 55 44 42 57 57 58 57 59 60 54 56 56 53 50 47 54 52 49 51 52 54 54
62 62 62 62 62 62 62 60 60 60 61 60 60 60 59 60 59 59 59 59 59 59 59 59 59 49 39 57 55 58 59 57 60 62 60 57 59 53 48 51 50 46 47 41 50 54 56
62 62 61 61 62 62 62 61 60 60 60 60 60 59 59 59 59 59 59 59 59 59 59 59 49 44 38 57 52 56 57 53 55 59 57 58 56 50 48 42 39 41 35 39 46 56 54
61 61 61 61 61 61 61 61 60 60 59 60 59 58 58 58 58 59 59 59 58 56 55 56 54 41 47 46 53 56 55 55 50 52 49 50 48 42 41 39 33 35 36 41 43 51 52
61 61 60 60 60 61 61 61 61 60 59 59 59 58 57 58 58 58 53 48 42 40 45 41 43 44 47 50 54 51 53 52 50 48 41 47 40 37 39 41 41 42 40 41 45 52 50
60 60 60 60 60 60 60 60 60 60 59 59 58 58 57 57 58 58 49 45 43 44 38 49 48 47 50 49 44 47 53 45 44 40 43 41 37 43 47 49 44 43 39 39 46 51 51
59 59 59 59 60 60 60 59 59 59 59 58 57 57 57 57 57 50 45 46 52 49 37 44 47 44 44 48 44 43 49 45 41 39 39 36 44 47 47 45 41 37 38 39 41 46 46
59 59 59 59 59 59 59 58 58 59 58 57 57 57 57 56 49 46 43 51 51 49 24 36 41 44 47 46 42 50 50 46 42 39 42 42 47 45 43 41 42 34 43 45 44 41 33
59 59 58 58 58 59 58 58 58 58 57 57 56 56 57 56 44 43 49 50 49 44 16 39 40 51 49 42 44 45 52 47 40 42 42 37 41 41 40 42 46 40 45 44 42 38 35
58 58 58 58 58 58 58 58 58 57 57 56 56 56 56 50 46 49 51 49 44 24 17 34 41 41 42 43 43 46 46 50 50 45 43 40 44 42 41 45 47 47 41 40 38 36 26
58 57 57 57 57 58 57 57 57 57 57 56 56 56 52 52 44 50 49 41 26 20 36 35 39 43 42 38 41 42 41 41 37 33 35 38 38 41 43 42 45 42 34 25 26 25 24
57 57 57 57 57 57 57 57 57 57 56 56 55 54 52 52 49 49 44 31 22 34 33 42 42 42 38 41 40 42 41 37 43 41 34 32 30 37 41 39 38 40 35 25 21 22 25
57 56 56 57 57 57 56 56 56 56 56 55 53 45 45 48 51 50 38 22 27 26 33 37 40 34 37 41 40 39 36 37 41 40 33 31 31 41 43 43 41 38 30 36 26 24 21
56 56 56 56 56 56 56 56 56 56 56 55 42 42 44 49 50 46 31 29 31 40 41 40 32 38 31 38 38 36 36 40 40 41 41 35 31 40 41 45 43 39 41 32 24 17 19
56 56 56 56 55 55 55 55 56 56 56 53 41 40 45 49 49 37 24 26 37 45 44 40 37 38 36 35 35 35 36 42 43 40 41 37 34 34 41 38 38 38 36 35 33 26 22
56 56 55 55 55 55 55 55 55 55 55 46 37 34 46 47 40 32 27 37 46 43 45 43 41 41 40 40 40 35 36 38 45 44 38 39 34 31 35 42 45 43 40 35 26 23 22
56 55 55 55 54 54 54 55 55 55 55 40 35 35 45 47 29 28 38 42 43 42 42 42 41 43 42 38 34 36 37 44 46 44 40 41 28 28 30 36 41 37 39 39 34 29 20
56 55 55 55 54 54 54 54 54 55 54 41 35 29 35 38 36 32 33 38 39 44 43 44 42 43 40 37 39 36 36 42 44 45 50 47 33 29 25 29 32 33 38 37 34 26 32
55 55 54 54 54 54 54 54 54 54 53 41 33 30 33 26 35 37 34 38 39 38 43 43 40 41 38 33 35 35 37 38 43 47 42 41 29 26 33 35 33 32 33 36 30 37 31
55 55 54 54 54 54 53 53 53 54 51 36 30 30 31 30 32 31 35 35 38 39 41 38 37 40 39 37 38 35 38 36 38 38 37 36 26 27 29 35 33 29 34 35 37 38 37
55 55 54 54 54 53 53 53 53 53 46 33 33 35 32 33 31 31 32 35 39 40 45 43 40 38 38 40 41 41 42 42 41 39 35 34 28 24 20 29 31 27 32 35 35 37 38
55 54 54 54 53 53 53 53 53 53 46 36 34 32 29 29 30 31 35 36 39 38 36 43 42 38 41 44 44 42 41 40 40 37 40 32 30 27 18 25 16 33 39 39 37 41 40
55 55 54 53 53 53 53 53 52 52 50 38 35 33 29 26 29 31 32 33 37 40 40 40 42 42 43 42 37 33 32 34 36 38 37 38 32 26 22 19 28 34 35 35 34 35 41
55 55 54 53 53 52 52 53 52 52 51 39 37 36 32 28 28 32 30 30 28 30 35 40 44 43 44 41 37 28 25 29 28 31 37 42 41 33 24 22 19 33 39 42 40 29 41
55 54 54 53 52 52 52 52 52 52 51 41 38 38 33 28 30 32 28 28 32 31 30 35 37 38 39 34 34 31 27 32 27 27 29 33 34 27 30 24 29 38 41 43 27 33 41
55 54 54 53 52 52 52 52 52 52 51 42 38 41 36 34 31 34 36 32 32 30 27 34 35 38 36 33 35 32 27 30 28 30 30 30 30 30 31 28 21 40 39 35 40 42 42
54 54 53 53 52 52 51 52 52 52 51 45 36 43 44 37 33 37 39 40 40 38 32 31 32 34 35 34 32 31 30 28 28 26 31 29 33 29 31 31 41 42 42 44 44 44 44

GFSGBSN_sfc_temp_066.txt.gz
Temp
63 63 63 63 63 63 62 62 62 61 62 62 62 61 61 61 61 61 61 61 61 60 60 60 60 59 53 41 42 59 64 64 64 60 55 52 50 46 43 46 49 45 51 57 58 57 55
63 63 63 63 63 63 61 62 61 61 62 62 61 61 60 61 60 60 60 60 60 60 59 59 59 58 46 34 53 57 59 61 58 56 54 53 52 51 47 47 47 52 54 56 54 55 55
63 62 62 62 62 62 63 61 61 61 61 61 60 60 60 60 60 60 60 60 60 59 59 59 59 54 44 41 54 55 58 58 59 56 53 56 56 52 50 46 52 52 48 50 51 53 52
62 62 62 62 62 62 62 61 61 60 61 61 61 59 59 59 59 59 59 59 60 59 59 59 58 48 38 55 53 55 56 58 58 57 58 58 57 53 50 50 49 46 47 41 48 50 52
62 61 61 61 61 62 62 62 61 60 60 60 60 60 59 58 59 59 59 59 59 59 59 58 48 43 38 58 51 53 54 53 55 54 57 59 53 49 48 42 39 44 35 37 42 52 49
62 61 61 61 61 61 61 61 61 60 60 60 59 59 58 58 58 58 59 58 58 56 55 55 53 39 46 44 50 54 55 55 50 51 48 48 46 42 39 40 32 34 33 35 37 48 49
61 61 60 60 60 60 61 61 60 60 59 59 59 58 58 57 58 58 52 48 42 41 44 39 42 43 47 50 54 51 53 51 49 49 39 41 38 37 39 40 40 40 38 37 40 50 47
61 60 60 60 60 60 60 60 60 59 59 59 58 58 57 57 57 57 48 42 43 45 38 47 47 46 50 49 43 47 52 44 43 39 42 37 35 41 46 46 43 42 37 35 41 48 48
60 60 59 59 59 59 60 59 59 59 59 59 58 57 57 57 57 49 44 45 50 50 37 43 47 45 45 48 44 42 47 45 42 38 37 36 40 46 46 42 40 37 36 36 38 43 44
60 59 59 59 59 59 59 59 58 58 58 58 57 57 56 56 48 45 42 49 49 48 28 36 41 43 47 46 41 50 50 45 42 38 39 39 47 44 42 42 41 34 42 43 41 38 31
59 59 58 58 58 58 58 58 58 58 57 57 56 56 56 56 44 43 47 49 47 44 15 40 41 51 49 42 45 45 52 48 39 41 39 37 42 40 40 41 47 39 44 42 40 35 33
59 58 58 57 58 58 58 58 57 57 57 56 56 56 56 49 46 47 49 48 44 23 15 33 42 41 41 44 43 45 46 49 49 44 43 41 45 42 42 44 45 45 40 38 35 33 22
59 58 57 57 57 57 57 57 57 57 57 56 55 56 52 51 43 48 48 40 24 21 37 31 38 42 41 39 41 42 42 39 35 33 33 39 39 41 42 41 45 41 34 23 23 22 21
58 57 57 57 57 57 57 57 57 57 56 55 55 53 52 51 48 48 47 30 20 30 33 42 42 43 37 40 40 40 41 37 41 39 34 30 30 39 41 39 38 36 34 24 20 21 23
58 57 56 56 57 57 56 56 56 56 56 55 53 44 44 47 51 50 37 20 25 25 32 36 41 35 37 41 40 40 37 36 39 40 34 29 31 42 43 41 41 37 32 34 25 21 19
57 56 56 56 56 56 56 56 56 56 56 54 41 41 43 49 49 47 30 29 31 38 40 39 31 37 32 37 34 34 34 39 39 41 40 34 30 40 40 42 41 39 39 31 24 18 18
57 56 56 56 55 55 55 56 56 56 55 53 41 39 45 48 49 37 25 25 36 44 43 39 35 36 33 33 33 33 35 41 42 40 40 36 33 34 40 35 34 37 33 33 32 26 22
57 56 55 55 55 55 55 55 55 55 55 46 37 33 45 46 38 33 27 35 45 42 42 41 40 39 38 35 33 32 34 37 44 44 37 37 33 31 35 41 41 39 36 34 26 23 21
56 56 55 54 54 54 54 54 55 55 53 40 35 35 43 46 27 26 36 40 42 41 40 41 39 43 44 40 34 35 36 43 44 43 39 40 29 28 30 33 39 37 40 40 34 29 21
56 56 55 54 54 54 54 54 54 54 53 40 34 29 35 37 35 31 32 36 37 43 42 42 40 41 40 38 38 35 35 41 43 43 49 45 32 28 24 29 32 33 37 39 36 32 34
56 55 55 54 54 54 53 53 54 53 52 40 32 29 30 26 32 32 32 36 37 36 41 42 38 39 37 33 34 33 36 37 44 46 41 42 27 23 31 34 32 31 33 38 33 37 33
56 55 55 54 54 53 53 53 53 53 50 35 31 30 30 28 31 30 34 33 36 37 39 37 37 39 37 35 35 34 36 35 36 37 35 36 25 27 27 32 32 29 33 34 37 38 36
55 55 54 54 53 53 53 53 53 52 46 33 31 33 32 31 30 29 29 33 37 37 41 41 39 37 37 38 39 39 40 40 39 38 34 34 27 23 21 28 30 26 33 34 33 36 38
55 55 54 54 53 53 53 53 53 51 45 35 32 31 29 29 30 30 32 34 35 37 34 40 41 37 40 43 42 40 40 39 38 36 38 31 29 27 18 24 15 33 37 38 36 39 38
55 55 54 53 53 53 53 52 52 52 49 36 34 32 29 26 29 30 31 30 33 36 39 38 41 40 41 41 37 36 31 33 34 35 34 36 31 26 21 18 27 32 34 34 33 35 38
55 54 54 53 52 52 52 52 52 52 49 38 35 35 31 28 27 31 28 29 26 26 32 38 41 41 44 40 36 28 26 28 27 30 35 38 40 34 23 23 19 32 37 40 39 28 40
55 54 54 53 52 52 52 52 52 51 50 40 37 36 33 28 30 30 27 27 30 27 26 33 36 38 39 37 32 29 28 30 26 27 28 33 34 27 29 28 29 37 39 40 27 31 40
55 54 53 53 52 52 52 52 52 51 50 41 37 39 35 29 30 33 35 30 30 28 25 30 35 36 37 33 32 30 27 29 26 29 29 29 28 27 30 27 22 40 37 33 39 40 41
54 54 53 53 52 52 52 52 52 51 50 44 35 41 45 35 33 36 36 37 37 36 31 30 31 33 34 33 32 30 29 27 27 25 29 28 32 29 31 30 40 40 42 43 42 42 42

GFSGBSN_sfc_temp_069.txt.gz
Temp
64 63 63 63 63 63 62 62 61 62 62 62 62 62 61 61 61 61 60 61 61 60 60 60 60 59 54 44 44 58 63 63 63 61 55 53 51 50 48 50 51 50 54 59 57 57 58
64 63 63 63 63 63 63 62 61 61 62 62 62 61 61 60 60 60 60 60 61 60 60 60 60 58 47 37 55 57 58 60 56 54 54 53 52 54 52 50 50 52 54 55 56 56 56
63 63 62 62 62 62 62 62 62 61 61 62 61 61 60 60 60 60 60 60 60 60 59 59 59 54 44 42 56 55 56 58 59 53 51 56 55 52 53 48 54 54 49 50 53 54 53
63 63 62 62 62 62 62 62 61 61 60 61 60 60 59 59 59 59 59 60 60 59 59 59 58 49 39 56 55 55 56 57 60 58 55 58 55 52 51 53 52 46 47 42 50 53 50
63 62 62 61 61 61 62 62 61 61 60 60 60 59 59 58 59 59 59 59 60 59 59 59 49 45 38 58 51 54 54 53 56 56 56 59 54 50 50 44 42 45 37 40 43 53 49
63 62 61 61 61 61 61 61 61 61 60 59 59 58 59 58 58 58 58 58 58 56 54 55 52 40 46 44 51 54 55 55 53 52 50 49 44 43 42 41 34 37 36 39 41 47 49
61 62 61 60 60 60 61 61 60 60 60 59 58 59 58 57 57 58 51 46 42 40 45 40 41 42 47 51 54 50 53 51 50 48 40 40 34 36 40 43 44 42 41 40 44 49 47
62 62 60 60 60 60 60 60 60 59 59 59 58 58 58 57 57 57 48 42 43 44 38 48 46 46 51 49 42 47 52 44 42 38 40 37 34 41 46 48 43 43 39 40 46 49 49
61 61 60 60 59 59 59 59 59 59 59 58 58 57 57 57 57 49 44 45 49 47 37 43 48 45 46 47 44 43 48 45 40 39 39 36 41 46 45 43 41 40 39 39 41 45 48
61 61 60 59 59 59 59 59 59 59 58 58 57 57 57 56 49 44 42 49 49 47 27 37 40 44 47 47 41 50 51 46 41 38 42 40 46 44 42 41 43 37 44 44 41 40 35
61 60 59 58 58 58 58 58 58 58 58 57 57 56 56 56 44 42 46 48 47 44 20 41 41 51 49 42 45 46 53 47 40 40 40 37 41 41 40 43 47 41 45 43 42 38 38
61 60 59 58 58 58 58 58 58 58 57 57 56 56 56 49 45 46 48 47 44 23 16 34 42 41 41 43 44 46 46 49 49 43 41 41 45 44 43 45 47 44 42 40 38 38 31
60 59 58 57 57 57 57 57 57 57 57 56 56 55 51 50 43 47 49 40 23 20 36 33 38 42 41 40 41 43 42 40 37 32 33 39 40 43 44 43 46 44 36 29 29 28 27
59 58 57 57 57 57 57 57 57 57 56 56 54 54 52 50 48 50 47 32 20 29 33 42 42 42 37 41 40 41 40 36 41 40 34 32 30 39 42 42 39 41 37 28 22 24 28
59 58 57 57 56 56 56 56 56 56 56 55 53 43 44 46 51 50 39 18 26 26 33 37 41 35 37 40 40 40 37 37 41 42 34 30 32 42 43 42 42 38 32 38 27 27 26
58 57 57 56 56 55 55 56 56 56 56 54 41 41 42 48 51 46 29 29 31 37 39 38 32 36 32 38 35 35 36 41 40 43 41 36 30 41 42 43 43 40 41 32 28 21 23
58 57 56 56 55 55 55 55 55 56 55 52 40 38 44 48 50 38 22 25 35 42 42 38 34 34 33 33 35 34 34 41 43 40 41 38 35 35 41 38 37 38 35 34 34 30 26
58 57 56 55 55 54 54 55 55 55 55 46 37 33 44 47 38 33 25 34 44 40 41 40 39 40 35 34 33 33 34 37 44 44 38 38 35 31 36 42 42 40 37 36 29 26 24
57 57 56 55 54 54 54 54 54 55 53 39 35 35 43 47 27 25 35 38 40 40 39 40 38 44 43 36 33 35 37 43 44 42 39 40 31 28 30 37 39 37 38 38 35 33 22
57 56 55 54 54 54 53 53 54 54 52 39 34 29 34 36 34 31 32 34 35 42 40 41 39 41 43 40 38 34 35 41 44 43 48 44 33 29 26 31 34 32 36 38 37 31 33
57 56 55 54 54 53 53 53 53 53 52 39 32 30 31 26 31 31 31 34 35 34 41 41 38 38 36 33 33 33 36 37 42 46 42 41 28 25 33 35 34 33 35 37 34 37 32
56 56 55 54 54 53 53 53 53 52 49 34 31 30 29 28 30 29 32 31 33 35 36 36 36 38 36 34 35 34 36 35 36 39 37 37 26 28 29 34 34 29 34 34 37 39 38
56 55 55 54 54 53 53 53 53 51 46 32 30 32 32 30 29 29 28 31 36 35 39 39 37 36 36 37 38 38 39 39 39 38 36 37 29 25 22 29 31 28 33 33 35 37 39
55 55 55 54 53 53 52 52 52 51 44 35 32 31 30 28 30 30 31 32 33 37 33 40 40 36 38 41 40 39 39 38 39 36 38 31 30 31 26 26 18 34 38 38 36 38 38
55 55 54 54 53 53 52 52 52 51 48 35 33 32 30 26 30 30 30 29 31 33 36 37 41 40 41 41 38 34 32 34 34 35 34 36 32 26 23 20 28 33 35 35 34 36 39
55 55 54 53 53 53 52 52 52 51 49 37 34 33 31 29 26 31 28 27 25 24 29 37 43 44 42 42 36 28 26 28 27 30 35 37 36 33 24 22 20 33 38 40 40 30 42
55 54 54 53 53 52 52 52 52 51 49 39 35 35 33 28 28 28 26 26 29 26 25 29 33 36 41 37 31 27 28 30 26 26 27 33 34 29 28 27 30 38 40 41 29 33 42
54 54 53 53 52 52 52 52 51 51 49 41 36 38 34 28 29 32 33 28 29 27 25 29 31 36 36 33 33 29 27 28 27 28 28 28 28 26 29 27 23 40 38 35 40 41 42
54 54 53 52 52 52 52 52 51 51 49 44 35 43 41 32 32 35 35 35 35 34 30 28 30 32 33 32 33 29 29 26 26 25 29 28 32 29 31 31 40 40 42 44 43 42 43

GFSGBSN_sfc_temp_072.txt.gz
Temp
65 64 63 64 63 63 63 63 62 62 62 62 62 62 62 61 61 61 61 61 61 61 60 60 60 59 57 47 48 63 64 66 68 65 59 57 56 57 54 59 60 57 62 65 66 66 67
65 64 63 63 63 63 63 63 63 62 62 62 62 61 61 60 61 60 61 61 61 61 60 60 59 59 53 43 61 63 63 64 63 62 58 58 57 62 59 59 57 62 61 63 64 64 64
65 64 63 63 62 62 63 63 62 62 61 62 61 60 60 60 60 60 60 60 60 60 60 60 59 59 50 49 62 63 62 62 62 60 57 56 60 59 59 56 62 60 55 59 60 62 60
64 63 63 62 62 62 62 62 62 62 61 61 61 60 59 60 59 60 59 60 60 60 60 59 59 56 48 61 65 60 62 61 63 62 59 57 58 59 60 61 59 54 56 46 59 60 56
64 63 63 62 62 61 62 62 61 61 61 61 60 59 59 59 59 59 59 59 60 60 60 59 56 52 46 62 55 60 61 57 60 59 56 59 54 52 55 51 49 50 46 48 49 61 54
63 63 62 62 61 61 61 61 61 61 61 60 59 59 59 58 58 58 58 58 58 59 59 59 57 47 52 48 55 57 60 58 57 53 49 49 44 42 50 49 40 46 49 50 50 54 55
63 63 62 61 61 60 61 61 61 60 60 59 58 58 58 57 58 58 57 58 52 49 52 47 47 46 47 51 57 54 57 55 54 49 39 42 37 35 49 54 56 55 51 47 52 53 52
63 62 62 61 60 60 60 60 60 60 60 59 58 57 58 57 58 57 56 52 51 52 45 51 51 49 50 49 45 50 56 49 43 34 41 39 35 43 55 53 53 52 50 49 52 55 54
63 62 61 61 60 60 59 59 59 59 59 59 58 58 57 57 57 55 54 52 57 55 45 45 48 48 47 47 46 43 50 48 44 36 40 39 42 46 50 50 49 51 50 49 49 52 54
62 61 61 60 60 59 59 59 59 59 58 58 57 57 57 57 52 54 52 56 57 56 37 39 41 46 49 49 42 51 52 48 42 38 43 40 47 45 49 49 52 44 55 52 49 48 44
62 61 61 60 59 58 58 58 58 58 58 57 57 57 57 56 54 51 53 57 56 54 28 43 43 54 51 43 47 46 53 48 39 42 44 39 41 45 46 49 54 47 53 52 51 49 47
62 61 60 59 58 58 58 58 58 58 57 57 56 56 56 54 55 54 56 56 54 34 26 35 44 42 40 46 46 48 49 49 51 42 45 45 54 50 50 51 53 52 50 50 49 48 36
61 61 60 59 58 57 57 57 57 57 57 56 56 56 55 56 52 56 55 52 34 31 40 37 39 41 43 40 42 44 43 42 39 34 34 42 45 48 49 47 51 52 47 33 31 32 36
60 60 59 58 58 57 57 57 57 57 56 56 54 55 54 56 55 53 50 41 31 35 35 44 43 41 38 43 42 43 42 38 44 43 39 35 32 43 47 50 46 48 49 39 29 31 38
60 58 58 58 57 57 57 56 56 56 56 55 54 54 54 54 55 52 44 34 36 36 40 42 43 40 38 40 41 41 42 38 46 50 39 37 33 44 46 49 50 45 40 47 38 38 38
59 58 58 57 57 57 56 56 56 56 56 54 53 52 52 54 54 49 40 36 40 44 45 45 40 43 38 39 39 41 38 44 45 48 50 44 33 43 44 50 50 48 52 39 39 29 30
58 58 58 57 57 56 55 55 55 55 55 52 51 48 51 52 51 45 36 36 42 48 48 45 43 42 42 41 42 42 41 45 49 46 49 49 44 37 44 40 43 44 43 43 45 41 37
58 58 57 57 56 55 55 55 55 55 54 51 49 42 51 50 40 37 39 42 46 47 48 47 47 46 44 43 42 42 41 44 51 51 46 47 45 34 40 46 46 46 47 48 39 35 38
58 58 57 56 55 54 54 54 54 54 54 50 47 45 51 48 39 40 44 44 47 46 47 47 46 48 49 45 41 43 44 48 49 49 47 48 41 32 31 40 43 41 46 47 45 41 33
58 57 57 55 55 54 54 53 54 54 53 52 47 40 45 47 45 44 43 42 43 48 47 48 47 49 48 45 46 42 43 47 49 50 48 50 42 39 36 39 44 36 42 45 42 35 40
57 57 56 55 55 54 53 53 53 53 53 52 46 43 42 38 42 43 42 42 42 42 47 49 46 46 45 42 43 42 44 46 48 48 48 48 34 34 40 41 40 39 41 43 37 41 37
56 56 56 55 55 54 53 53 53 53 51 47 45 43 42 41 39 41 40 40 40 41 43 43 44 45 46 44 44 43 45 46 46 47 45 45 35 36 36 39 39 35 42 42 43 44 44
55 56 55 55 54 54 53 52 52 52 51 45 41 42 46 37 40 41 41 39 39 41 44 45 44 45 44 43 45 47 50 49 50 48 45 44 38 36 33 36 37 34 41 43 43 46 45
55 55 55 55 54 53 53 53 52 51 50 48 43 44 46 38 42 40 38 39 39 40 40 44 46 45 45 49 48 49 50 48 49 46 49 42 37 36 33 33 27 42 46 46 44 47 48
54 55 55 54 54 53 53 52 52 50 48 45 42 46 46 38 40 37 37 37 39 41 41 41 43 45 49 47 44 41 41 42 43 44 45 47 44 36 33 33 39 42 42 42 42 44 49
54 54 55 54 53 53 53 52 52 51 48 45 41 44 47 42 37 39 38 36 38 38 40 41 46 45 47 46 42 35 34 38 36 39 43 44 46 42 35 29 28 42 47 50 49 40 51
54 54 54 54 53 53 52 52 52 51 49 46 42 43 46 39 39 39 39 37 38 37 39 38 38 41 44 39 34 36 37 40 36 35 36 38 39 35 35 33 39 48 49 49 36 41 51
53 54 54 53 53 53 52 52 52 50 49 47 42 45 46 39 38 40 40 38 37 38 38 37 38 40 37 35 35 38 39 41 39 40 38 39 37 34 37 32 29 49 46 42 51 51 51
53 53 53 53 53 52 52 52 51 51 49 48 42 47 48 42 40 42 42 43 42 42 40 38 36 34 35 34 35 38 39 39 38 36 41 37 43 41 41 42 49 50 51 54 52 52 53

GFSGBSN_sfc_temp_075.txt.gz
Temp
65 65 64 64 64 63 63 63 63 63 62 62 63 62 62 62 61 61 61 61 62 62 61 61 60 59 59 53 51 63 64 67 68 66 59 57 55 58 56 62 62 55 61 62 59 65 70
66 64 64 64 63 63 63 63 63 62 62 62 62 61 61 61 61 61 61 61 61 61 61 60 60 59 57 47 65 66 66 67 68 64 61 59 58 63 60 62 61 65 63 60 62 59 68
65 64 64 64 63 63 62 62 62 62 62 62 62 61 60 60 61 60 60 60 61 61 60 60 60 62 53 52 66 66 65 64 65 66 59 61 60 57 62 60 67 64 59 61 58 54 59
65 64 63 63 63 62 62 62 62 62 62 62 61 60 60 60 59 59 60 60 60 60 60 60 60 60 51 64 68 64 66 63 66 65 59 58 59 52 57 66 62 56 59 47 60 61 61
66 64 63 63 63 62 62 61 61 61 61 61 60 60 60 59 59 58 59 59 59 60 60 60 58 56 49 64 59 63 64 60 62 62 62 59 55 51 53 52 48 51 46 49 55 63 59
66 64 63 63 62 62 61 61 61 61 61 61 60 59 59 58 58 58 58 58 59 59 61 63 61 49 55 49 57 60 63 61 58 57 53 49 46 45 47 47 41 45 48 52 53 57 59
66 64 63 62 62 61 61 61 61 60 60 60 59 58 58 58 58 58 58 60 54 52 55 50 50 50 50 55 60 56 60 59 57 53 43 43 38 37 49 53 58 57 53 52 57 61 55
65 64 63 62 61 60 61 60 60 60 60 59 59 58 58 57 57 58 58 55 54 55 48 54 53 52 52 52 47 53 60 51 48 41 42 38 36 44 50 55 52 55 53 51 55 58 55
65 64 63 62 61 61 60 60 59 59 59 59 58 58 57 57 57 56 58 56 61 60 48 48 50 49 48 48 45 47 54 52 45 37 38 38 44 47 44 46 44 53 54 50 50 54 56
65 63 63 61 61 60 60 59 59 59 58 58 58 57 57 57 51 59 56 60 62 60 37 40 44 49 51 50 40 54 54 50 43 38 36 41 47 41 44 48 54 46 59 57 54 49 43
64 63 62 61 61 60 59 59 58 58 58 57 57 57 56 56 58 55 57 61 61 56 28 45 46 58 53 46 48 47 56 51 41 38 47 43 44 40 45 50 57 51 58 55 52 49 52
64 63 61 61 60 59 59 58 58 58 57 57 56 56 56 56 59 59 61 61 57 35 27 35 45 45 45 49 49 50 47 48 53 48 51 49 54 49 49 56 57 57 54 52 52 50 38
63 62 60 60 59 59 58 58 57 57 57 56 56 56 56 62 54 61 60 55 34 32 42 38 40 44 46 43 45 47 41 39 38 34 36 43 46 50 52 49 54 54 48 35 33 33 36
63 62 60 59 58 58 58 57 57 57 56 55 55 56 55 61 59 57 55 44 30 39 36 48 46 45 41 43 43 45 42 38 46 47 41 34 32 45 53 51 48 49 50 40 30 33 39
62 61 59 58 58 58 58 57 57 56 56 55 54 59 57 58 58 55 48 34 39 38 40 45 45 41 42 43 43 43 41 40 45 51 42 40 34 46 50 53 54 47 41 50 42 45 41
62 60 58 58 58 58 57 57 56 56 55 54 57 54 52 59 57 52 42 38 44 49 49 50 39 46 38 41 42 44 39 47 48 51 54 48 33 43 48 52 53 51 55 41 41 31 32
61 59 58 58 58 57 57 56 56 56 55 54 56 46 53 55 54 47 35 38 47 52 52 48 46 44 45 43 46 44 41 45 52 50 53 53 47 38 47 45 46 46 45 47 47 43 36
60 59 57 56 57 57 56 56 56 55 54 52 54 44 52 53 40 40 40 47 48 50 53 50 50 49 47 48 46 46 42 48 54 54 47 51 46 35 42 49 52 49 48 50 39 37 42
59 58 57 56 56 56 55 55 55 55 55 56 52 45 50 48 37 42 49 48 50 49 50 49 49 50 53 49 44 48 48 51 53 52 50 52 42 32 35 44 48 44 50 51 51 44 36
58 57 56 55 56 55 55 55 55 55 55 54 52 41 45 44 51 48 48 47 46 51 51 52 51 52 51 48 51 46 47 49 52 53 49 52 47 41 37 40 47 39 46 49 44 36 41
57 57 56 55 55 55 55 54 54 54 54 54 52 50 50 39 47 49 48 48 46 45 51 52 49 50 50 45 47 46 49 48 51 48 51 51 35 35 43 44 43 41 43 46 39 42 38
57 56 55 55 55 55 54 54 54 53 53 52 49 48 47 48 48 49 44 46 47 45 47 47 47 49 51 47 47 46 49 50 49 51 50 50 36 39 39 43 42 38 44 46 46 47 46
56 55 55 54 55 55 54 53 53 54 54 53 50 50 53 43 47 47 48 47 46 47 47 49 49 50 48 46 50 51 54 53 53 50 49 47 41 36 35 40 40 36 44 45 46 49 49
56 55 54 54 55 54 54 53 52 54 53 55 53 54 51 43 48 47 44 46 45 45 45 47 51 50 47 54 53 53 54 53 53 51 53 46 41 38 34 36 28 44 50 49 48 50 52
55 54 54 54 55 54 53 53 52 53 52 53 51 53 53 45 48 43 43 44 45 46 45 45 46 48 53 51 47 42 43 45 47 49 49 51 45 38 34 36 44 47 46 45 44 46 53
55 54 53 53 54 53 53 53 52 51 50 52 49 51 55 47 44 47 43 44 44 45 44 45 49 50 52 48 45 37 36 42 39 41 48 48 50 41 38 31 30 45 49 53 52 40 54
54 53 53 53 54 53 53 52 51 51 51 52 47 49 54 44 43 46 44 43 44 44 46 44 44 45 46 42 35 38 39 46 38 38 37 40 41 36 36 32 41 52 52 53 37 42 54
54 53 53 53 53 53 53 52 52 51 51 52 46 50 52 45 42 45 45 43 42 44 43 42 42 43 40 35 36 39 41 44 42 45 42 40 37 36 37 31 30 53 49 43 50 55 55
53 53 53 53 53 53 52 52 51 51 51 53 46 53 55 47 42 48 46 46 45 45 45 43 39 37 39 38 38 42 42 45 43 37 46 39 46 42 44 43 51 55 54 56 55 53 54

GFSGBSN_sfc_temp_078.txt.gz
Temp
66 65 65 64 64 64 64 63 63 63 63 63 63 63 62 62 61 61 61 61 62 62 61 61 61 60 57 51 51 64 63 62 59 60 56 55 53 53 49 54 56 48 55 58 60 59 57
66 66 65 63 64 63 63 63 63 62 62 63 62 62 61 61 61 61 61 61 61 61 61 61 61 60 54 45 65 66 66 62 64 62 58 56 55 59 55 57 55 57 59 57 58 59 57
66 66 65 63 63 63 63 63 62 62 62 62 62 61 61 60 60 60 60 60 60 61 61 61 61 60 53 51 66 66 66 64 63 64 57 59 59 54 57 55 64 62 52 52 53 57 54
67 66 66 64 63 63 63 62 62 62 62 62 62 61 60 60 60 59 59 60 60 60 60 60 61 58 49 64 65 64 65 63 66 63 58 57 58 54 53 56 59 54 53 42 50 56 57
66 66 66 64 62 63 63 62 62 61 61 61 61 60 60 59 59 59 58 59 59 60 60 61 56 55 45 64 58 63 64 59 61 62 59 59 55 51 52 44 45 46 39 45 48 54 51
66 66 66 65 63 63 62 62 62 61 61 61 60 59 59 59 59 58 58 59 60 59 59 63 61 48 53 50 56 59 63 61 57 55 52 50 46 43 44 41 34 39 42 46 47 49 51
66 66 65 64 63 63 62 61 61 61 61 60 60 59 58 59 58 58 57 57 50 48 55 50 50 51 51 55 60 57 61 58 56 52 41 43 38 37 40 41 50 50 47 46 51 58 53
65 65 65 64 62 62 61 61 61 60 60 60 59 58 58 58 58 58 56 52 53 54 46 55 53 52 53 53 48 53 60 50 48 39 42 38 35 43 48 45 47 43 46 47 52 53 51
63 65 65 65 62 61 61 61 61 60 60 59 58 58 58 57 57 55 55 56 61 60 45 48 51 50 50 51 45 48 54 52 46 37 40 35 42 49 46 46 41 41 44 46 42 51 51
62 64 64 64 62 61 60 60 60 59 59 58 58 58 57 57 51 58 54 60 61 60 35 41 45 49 50 49 43 56 55 51 44 38 41 37 45 45 43 43 46 40 52 53 50 44 38
61 62 64 64 62 61 59 60 59 59 58 57 57 57 57 57 54 53 57 61 60 53 25 45 46 58 54 46 47 47 56 50 41 38 40 39 42 40 41 45 50 46 55 51 49 45 44
60 61 63 63 62 60 59 59 59 58 58 57 56 56 57 55 55 58 61 60 53 33 22 35 46 45 44 47 45 48 47 49 49 39 40 44 50 46 47 52 52 53 48 47 47 43 27
60 60 60 63 61 59 58 59 58 58 57 57 56 55 55 61 52 60 59 51 33 29 43 37 40 45 47 44 45 40 41 38 37 31 34 43 43 47 49 46 51 49 41 28 25 24 26
59 59 60 62 61 59 57 58 58 58 57 56 55 56 56 61 59 57 52 41 29 40 35 48 45 46 42 44 44 42 38 37 44 43 35 31 27 41 48 47 44 44 42 30 24 23 29
57 59 60 61 60 58 57 58 58 57 56 55 55 54 54 57 58 55 45 33 36 36 39 45 45 41 41 45 44 43 42 42 44 46 37 34 33 46 50 51 49 42 37 44 35 37 29
57 59 59 61 59 58 56 58 57 56 55 55 52 52 50 59 57 50 40 36 42 50 51 50 37 44 38 42 40 41 40 46 46 50 51 43 32 43 48 50 49 45 50 35 31 23 25
56 57 59 60 58 57 56 57 57 56 56 55 51 45 51 55 52 44 34 37 47 52 52 47 44 44 44 42 42 42 41 44 51 48 49 47 40 37 44 41 42 42 39 42 40 33 25
57 58 59 59 57 56 55 56 57 56 55 52 51 40 50 52 39 39 37 45 49 50 52 50 49 48 46 47 45 43 41 45 54 51 45 48 41 31 38 47 50 46 42 43 29 31 32
57 57 58 58 56 55 55 56 56 56 55 52 47 42 48 48 35 36 46 48 51 49 50 49 48 50 52 47 41 45 46 50 52 50 47 48 36 28 30 40 44 40 45 46 43 36 30
57 57 57 57 55 54 54 56 56 56 56 51 49 37 40 42 45 41 45 45 45 50 51 52 50 51 49 46 48 44 43 48 49 51 50 49 42 35 28 33 38 33 42 45 40 29 34
56 56 57 56 55 54 54 55 55 55 55 50 47 44 44 35 40 44 47 48 45 43 50 51 48 49 48 43 45 44 45 45 49 48 47 45 31 29 38 42 39 38 39 42 35 39 29
55 56 56 56 55 54 54 55 55 55 55 47 44 43 44 46 48 45 44 44 46 45 47 46 45 49 48 44 44 43 46 45 44 45 44 44 31 31 31 41 38 32 40 41 43 43 41
55 56 57 56 55 53 54 54 54 54 54 46 47 48 45 44 44 43 43 46 47 47 47 49 49 47 46 44 46 47 48 49 47 47 43 41 34 30 26 34 33 29 38 40 41 44 44
55 55 56 55 54 53 54 54 54 54 54 51 49 48 43 37 41 44 46 46 46 46 44 47 49 46 45 50 50 48 47 47 47 45 49 41 36 33 26 29 19 38 45 45 44 46 47
55 56 55 54 53 53 54 54 54 54 54 49 48 46 45 40 42 43 44 44 44 43 43 46 45 46 49 46 41 38 38 39 43 44 43 47 41 32 28 27 35 38 42 41 39 41 48
54 56 54 54 53 53 54 54 54 54 53 49 46 45 46 42 37 46 42 43 39 39 40 43 47 47 47 44 40 30 28 35 34 36 42 45 44 36 30 25 24 37 44 48 45 32 47
54 55 54 53 53 53 53 53 53 54 53 49 44 46 46 38 39 42 39 38 41 41 38 41 42 43 43 41 34 31 33 40 31 32 31 34 36 28 29 26 33 45 47 47 29 33 47
54 54 53 52 53 53 53 53 53 52 53 49 43 48 45 38 38 44 45 39 39 39 36 37 38 40 39 32 32 33 33 37 34 37 37 34 31 29 31 29 24 46 43 36 42 47 47
54 53 52 52 53 53 53 52 52 52 52 52 42 51 50 41 38 44 44 44 42 42 39 38 36 36 36 36 34 34 34 35 35 30 39 31 37 34 35 34 45 46 46 48 48 46 45

GFSGBSN_sfc_temp_081.txt.gz
Temp
67 67 66 65 65 64 63 64 63 63 63 63 63 63 62 62 62 62 61 61 62 62 62 62 61 61 55 45 47 61 63 61 58 57 52 52 49 49 46 48 52 49 52 54 57 55 57
67 67 66 66 65 64 63 63 63 63 63 63 63 62 62 61 61 61 60 61 61 61 61 61 61 61 49 39 59 63 64 57 55 53 52 51 51 52 51 51 51 53 54 54 56 57 53
67 67 67 66 66 64 62 62 63 62 62 62 62 62 61 61 61 60 60 60 61 61 61 61 61 58 48 46 61 61 63 60 54 57 51 57 56 51 51 50 57 55 49 51 52 54 51
65 67 67 67 66 65 62 62 62 62 62 62 62 61 61 60 60 59 59 60 60 60 60 61 61 53 46 62 59 62 63 61 61 61 58 55 56 52 50 52 54 50 49 41 51 52 53
63 64 66 66 66 66 63 62 62 62 62 62 61 61 60 60 60 59 59 59 59 60 60 61 52 48 44 63 55 59 61 57 60 57 57 58 53 49 50 43 43 45 35 39 42 52 49
62 62 63 65 65 66 63 62 62 61 62 61 61 60 59 59 59 58 59 59 58 58 57 60 58 46 50 48 54 57 60 60 55 52 50 49 45 40 41 41 34 38 38 42 42 46 49
62 62 62 63 65 65 64 62 61 62 61 61 60 59 58 59 58 59 54 50 45 43 48 45 48 50 50 53 58 55 59 55 53 48 39 42 35 33 36 43 42 44 44 42 48 50 47
61 62 62 61 62 65 63 62 60 61 61 60 59 59 58 58 58 58 51 45 47 49 42 53 51 51 51 51 47 52 58 47 45 37 41 37 33 42 47 45 43 42 42 43 49 50 50
61 61 62 61 62 64 63 62 60 60 61 60 59 58 58 58 58 52 48 50 56 54 39 47 50 48 47 48 44 46 52 50 43 36 38 35 39 46 45 41 40 40 40 41 44 47 47
60 60 60 61 60 61 63 61 60 60 60 59 58 57 57 58 49 50 47 56 56 53 30 40 43 47 49 47 42 53 53 48 40 34 39 36 43 44 42 41 44 36 46 47 46 41 35
59 59 59 60 59 60 62 61 59 58 59 58 57 57 57 57 48 50 53 56 54 47 23 44 44 56 51 44 44 45 53 47 39 37 39 37 40 40 40 43 46 41 47 47 47 43 39
58 58 59 59 59 59 60 60 59 57 58 57 57 56 57 52 49 54 55 53 47 30 15 36 44 41 43 45 45 47 46 48 47 40 41 40 49 45 45 50 49 49 45 43 43 41 29
58 57 58 58 59 58 59 59 58 57 58 57 56 56 54 58 49 54 53 44 32 21 40 35 38 43 41 39 40 40 41 38 36 29 32 40 41 46 47 43 48 45 38 29 28 28 28
58 57 57 57 58 57 58 59 57 57 57 56 55 55 54 59 53 52 47 38 24 39 32 46 42 41 39 43 41 41 39 34 41 37 35 30 29 41 47 44 41 42 39 27 23 23 27
57 56 56 57 57 56 58 58 57 56 56 55 55 49 49 51 54 49 43 27 30 32 37 42 41 36 38 42 41 40 37 40 40 39 34 33 32 45 47 48 45 41 35 41 33 33 27
55 56 55 55 56 56 57 57 56 55 56 55 47 49 49 53 55 48 38 33 37 45 46 46 36 39 36 37 38 38 37 41 42 45 43 38 30 43 47 48 47 44 46 32 27 24 25
55 54 54 54 56 56 58 57 56 55 56 55 48 41 48 53 52 42 32 32 42 49 49 45 41 41 43 37 39 37 36 42 47 45 44 42 35 35 42 38 37 39 37 38 37 29 24
54 53 54 57 57 56 57 56 55 55 56 52 45 38 49 51 38 38 35 39 48 46 48 46 47 44 44 44 39 38 37 42 49 49 40 41 36 32 35 42 45 41 40 40 27 30 27
54 53 54 56 56 56 56 55 55 55 55 47 41 41 47 47 33 34 38 44 46 45 45 45 44 46 46 43 37 41 40 47 49 46 43 43 32 28 32 36 40 37 42 43 39 33 25
55 54 55 55 55 56 55 54 54 56 56 50 40 34 40 42 40 38 37 40 40 46 47 48 47 46 44 43 44 39 39 45 47 47 50 48 37 30 24 30 35 31 39 42 37 23 31
55 56 55 55 55 56 54 54 54 56 56 49 42 35 39 33 36 38 38 42 40 39 45 47 43 44 44 39 40 39 40 42 46 48 45 43 30 26 36 40 38 36 37 39 32 38 30
56 56 55 55 55 55 54 54 54 55 55 44 39 38 39 35 39 36 37 40 41 42 43 41 40 45 44 38 38 40 41 39 39 42 43 42 29 31 31 38 36 32 37 38 39 40 40
56 55 54 55 55 55 53 53 54 55 53 42 43 43 41 39 37 36 36 41 43 43 44 45 44 43 40 40 41 43 43 47 44 41 39 38 31 26 23 34 32 28 35 37 38 41 41
55 54 54 54 56 54 53 53 55 55 53 44 44 42 38 34 36 39 42 44 42 41 40 42 43 41 42 46 44 43 42 44 46 44 46 41 36 32 25 28 19 35 42 42 40 42 43
55 54 54 56 55 54 53 54 54 54 54 45 44 43 40 33 37 39 41 38 39 40 40 40 41 42 43 41 37 34 34 36 39 41 41 45 35 32 25 22 32 36 40 39 38 38 44
54 54 54 55 54 53 53 54 54 54 55 44 43 42 40 37 32 39 37 38 33 32 35 39 43 43 43 39 36 28 25 30 29 32 40 42 40 32 29 21 22 35 42 45 43 30 44
54 53 54 54 53 53 52 54 54 54 54 45 41 44 40 34 35 38 35 34 37 35 32 36 38 39 40 34 29 27 28 36 28 28 29 31 32 28 26 28 31 41 42 44 28 32 44
53 53 53 54 53 52 53 54 54 54 53 46 41 45 40 32 34 38 38 35 35 34 31 35 36 37 34 31 35 30 29 34 31 34 32 30 27 26 28 25 22 42 42 34 39 42 43
53 52 54 53 52 52 52 53 53 54 53 48 39 48 46 37 34 41 40 40 39 37 35 34 33 33 33 29 29 31 31 31 31 27 35 30 35 31 32 32 43 46 42 43 43 41 41

GFSGBSN_sfc_temp_084.txt.gz
Temp
66 66 67 67 67 66 65 64 62 63 64 64 63 63 63 62 62 62 61 61 62 62 62 62 62 61 54 43 43 60 65 62 60 56 52 49 48 47 43 46 49 48 52 55 54 55 55
65 65 65 65 66 66 66 65 62 62 63 63 63 63 62 61 61 61 60 61 61 61 61 61 61 60 48 37 57 60 60 56 54 52 50 51 51 52 45 49 47 53 51 54 53 54 54
64 64 64 65 64 66 66 65 63 62 63 63 63 62 61 61 61 61 60 60 61 60 60 61 61 57 46 44 59 58 61 55 54 53 48 54 54 48 50 49 52 52 46 49 50 52 51
63 64 64 63 64 64 65 65 63 61 62 62 62 62 61 60 60 60 60 59 60 59 59 60 61 51 41 60 57 59 61 56 60 56 54 57 55 50 48 50 48 47 47 40 47 51 51
63 63 63 63 63 63 64 65 63 61 61 62 62 61 60 59 59 59 59 59 59 59 60 61 51 48 41 62 53 57 57 55 57 55 53 58 52 48 48 41 40 41 35 40 43 52 49
62 62 62 62 62 62 62 62 63 62 60 61 61 60 59 58 59 59 59 59 58 57 57 58 55 44 49 47 52 55 58 57 53 52 50 48 44 41 43 39 32 35 36 40 41 46 48
61 62 61 61 61 62 61 62 63 62 60 60 61 60 58 58 58 59 53 48 45 42 46 44 46 48 48 51 55 53 57 53 52 47 37 41 37 34 38 41 44 41 39 39 44 49 46
61 61 61 61 60 60 62 60 60 62 60 59 59 59 58 58 58 58 50 44 46 47 39 51 50 49 51 50 44 50 56 45 43 35 40 37 33 40 45 45 42 43 42 40 46 49 46
60 60 60 60 60 60 60 61 60 62 60 58 58 58 58 57 57 51 47 49 54 52 37 45 48 47 46 47 42 44 50 47 40 35 37 34 37 43 44 41 40 40 39 41 40 45 48
60 60 60 60 59 59 59 60 59 60 59 58 58 58 57 57 50 49 46 54 54 52 27 36 41 47 48 47 40 51 51 46 39 34 39 38 40 43 41 39 42 38 46 46 44 40 35
59 59 59 59 59 58 58 59 59 59 58 57 57 57 57 56 47 47 52 54 52 46 13 42 42 54 49 42 43 44 51 46 36 36 39 36 40 40 39 42 46 41 47 45 45 39 39
58 58 58 59 58 58 58 58 59 58 58 56 56 57 56 52 48 51 53 52 47 30 15 33 42 40 42 44 44 46 45 47 45 39 42 41 49 44 43 47 48 47 42 41 41 38 30
58 58 58 58 58 57 57 57 58 57 57 56 56 56 53 55 46 53 52 44 31 20 38 33 36 40 41 40 38 40 39 34 32 24 30 39 40 45 46 42 46 43 36 27 28 27 27
57 57 57 57 57 56 56 57 58 57 56 55 55 56 54 56 52 51 46 34 24 33 31 46 40 39 37 41 40 40 39 33 38 38 35 28 28 40 45 43 38 39 37 28 23 25 28
57 57 57 57 56 56 56 56 57 56 56 55 55 49 48 50 52 49 39 26 26 31 37 42 39 33 36 40 39 39 36 34 39 39 34 31 32 45 45 47 44 39 33 40 32 31 25
56 57 56 56 56 55 54 56 55 55 55 54 47 47 46 52 52 47 38 31 33 43 44 43 33 37 32 35 35 37 35 39 41 44 44 38 31 41 44 46 45 41 45 31 27 23 24
56 56 56 55 53 52 53 55 56 56 55 55 48 41 47 53 52 42 32 30 39 47 48 45 37 38 39 35 38 34 35 40 44 45 43 41 37 34 40 37 35 38 36 37 35 28 24
56 56 56 55 53 52 54 56 56 55 54 52 45 36 48 51 38 38 34 38 46 45 46 44 44 43 43 41 38 39 35 38 46 46 39 40 35 26 33 40 42 39 36 36 26 26 24
56 57 57 56 53 53 54 55 57 54 55 48 41 40 47 47 31 34 38 39 46 43 43 43 42 44 44 40 35 38 39 45 47 45 39 41 31 28 32 36 39 36 40 40 37 31 23
56 56 56 56 54 53 54 55 54 54 56 49 41 34 40 42 41 36 33 38 41 45 45 46 44 45 42 40 41 36 37 43 45 46 50 47 34 29 24 29 33 30 36 39 35 24 29
56 56 56 56 54 53 54 55 54 54 56 50 40 34 41 33 35 38 36 40 38 38 43 45 41 42 41 37 38 35 38 39 44 47 43 41 28 24 33 38 36 34 35 37 32 36 28
56 56 56 56 53 53 54 55 54 54 54 44 38 35 37 34 38 36 38 36 38 40 41 39 39 43 42 39 37 37 39 37 38 39 38 39 27 30 30 37 36 33 37 37 37 38 37
56 56 56 55 52 53 54 54 53 54 53 42 40 41 41 37 33 35 33 38 41 41 42 43 43 40 38 40 41 40 41 43 42 40 37 37 31 27 23 31 33 29 34 36 36 39 40
55 55 55 54 53 54 54 53 53 53 52 46 42 40 38 33 34 37 40 42 41 41 39 40 42 40 41 44 44 44 44 43 43 40 42 35 32 28 22 26 17 35 40 40 38 40 41
55 55 55 54 54 54 54 53 53 54 53 45 43 42 37 31 36 38 39 37 38 39 39 39 39 40 42 42 36 35 34 35 37 38 38 40 34 31 23 21 30 34 38 37 35 35 40
55 55 55 54 54 54 54 53 53 53 53 44 42 43 40 36 32 36 36 37 33 32 34 37 42 42 41 38 35 27 25 29 28 31 39 39 37 32 30 21 21 33 39 43 41 29 41
54 54 54 53 53 54 53 53 53 54 53 45 41 43 39 33 32 35 34 34 36 34 31 35 37 38 39 32 28 26 27 34 27 27 29 32 33 29 26 27 29 38 41 42 28 31 40
53 53 54 53 54 53 53 53 53 54 52 46 41 44 39 31 32 36 36 34 35 34 31 34 36 37 34 30 30 29 27 32 29 31 30 29 26 25 27 28 23 42 39 33 38 39 40
53 53 52 53 53 53 53 53 53 54 53 49 40 45 45 36 33 39 38 38 38 36 34 33 32 32 34 28 29 30 30 29 28 26 32 29 33 30 31 31 40 39 39 40 41 40 39

GFSGBSN_sfc_temp_087.txt.gz
Temp
64 64 65 65 65 65 65 65 66 64 63 63 63 63 63 63 62 62 62 61 61 61 61 61 61 61 52 42 42 58 65 63 58 55 51 48 45 46 41 42 46 44 50 51 54 54 53
64 64 63 64 64 64 64 64 64 65 63 62 62 62 63 62 61 61 61 61 61 61 61 61 61 60 47 38 56 58 58 57 54 52 49 49 48 50 43 44 44 46 52 49 55 53 52
63 63 63 63 63 63 63 63 63 63 63 62 61 61 62 62 61 60 60 60 60 61 60 60 61 56 47 44 56 57 58 56 55 52 46 51 53 47 46 44 50 51 47 47 51 50 51
63 63 63 63 62 62 62 63 62 63 64 62 61 60 61 61 60 60 60 60 59 59 59 60 60 50 41 57 56 57 59 57 58 54 52 54 54 49 47 48 46 44 44 36 48 49 50
62 62 62 62 62 62 62 62 62 61 62 62 60 60 60 60 59 59 59 59 59 59 59 60 50 48 39 60 52 55 56 54 55 53 52 56 53 45 48 39 36 40 34 36 41 50 48
62 62 61 61 61 61 61 61 61 61 60 62 60 59 59 59 59 59 58 59 58 57 56 57 54 43 47 45 51 54 56 55 52 48 45 46 44 37 40 36 28 32 35 37 36 44 45
61 61 61 61 61 61 60 61 60 61 60 60 59 58 58 58 58 58 54 48 44 41 45 43 44 45 47 51 53 52 55 51 51 47 37 40 37 33 39 38 42 43 38 37 42 47 44
61 61 60 60 60 60 60 60 60 60 60 59 59 58 57 58 58 58 50 44 46 47 39 48 48 47 49 48 44 49 54 44 42 34 39 35 34 40 44 44 42 41 39 38 44 47 45
60 60 60 60 60 60 59 59 59 59 59 59 58 57 56 57 57 52 47 48 53 51 37 44 47 46 45 47 41 43 49 45 39 34 36 33 37 42 41 42 40 39 38 39 40 44 46
60 60 60 59 59 59 59 59 58 59 59 59 58 57 56 56 50 49 45 53 52 51 25 35 40 45 47 45 39 50 50 44 39 32 38 36 41 40 40 38 40 35 43 44 41 39 34
59 59 59 59 59 59 58 58 58 58 58 58 57 57 56 56 49 47 51 52 51 47 11 40 40 52 48 42 42 42 50 45 34 35 38 36 37 39 38 37 42 39 45 43 43 40 38
59 59 59 59 58 58 58 58 58 58 57 57 57 56 55 53 50 52 52 51 47 29 14 32 40 39 41 43 44 44 44 45 43 40 42 41 47 44 42 45 45 45 42 42 41 38 29
58 58 58 58 58 58 58 58 57 57 57 57 56 55 53 53 46 52 50 43 27 24 36 31 34 38 40 38 38 39 39 33 29 29 32 38 40 44 45 41 43 42 36 28 27 27 28
57 57 57 55 56 58 58 57 57 57 57 56 55 55 54 54 53 50 45 34 22 31 29 42 38 38 36 39 39 39 36 31 38 38 34 29 25 39 44 43 38 39 36 29 24 25 25
57 57 57 54 56 57 57 53 54 56 55 56 54 50 48 50 52 49 38 23 25 29 36 39 37 31 33 39 40 36 33 34 38 38 34 30 32 44 44 47 44 38 29 38 31 29 25
56 56 56 57 56 57 56 54 55 55 55 55 48 46 46 52 52 45 33 30 32 41 42 41 31 35 29 33 36 36 33 39 40 41 41 36 31 41 44 47 45 42 42 32 29 23 23
56 56 56 56 56 56 56 55 54 53 54 54 46 41 48 52 50 39 26 28 36 45 46 41 36 34 34 33 37 34 33 38 42 42 42 40 35 36 40 35 34 38 38 36 34 27 23
55 56 57 56 56 55 54 53 52 53 54 51 45 34 48 51 36 36 29 36 44 43 45 43 42 40 37 37 37 38 33 36 45 45 39 39 33 29 31 38 40 37 35 35 26 26 23
54 56 56 56 55 54 53 52 52 54 55 47 40 40 47 46 30 30 36 37 40 41 42 41 40 43 42 38 34 40 36 44 45 43 38 40 30 20 26 33 37 35 37 37 34 30 22
55 56 56 56 55 55 53 52 53 55 55 48 41 33 40 42 41 34 32 34 40 44 43 43 42 43 40 38 41 35 36 42 44 44 49 45 33 29 22 29 33 30 35 37 32 23 27
55 55 56 56 56 55 53 53 53 55 55 47 40 36 40 33 35 35 35 38 41 37 42 43 39 41 40 35 35 34 37 38 44 47 41 40 27 24 33 36 34 33 33 35 29 32 27
55 56 56 56 56 53 53 53 53 55 54 44 38 36 39 35 40 38 38 34 39 38 39 38 38 40 40 38 37 35 37 36 37 41 37 38 26 29 29 35 34 31 34 34 34 35 35
55 55 55 56 55 52 52 53 53 54 51 42 41 43 39 39 37 36 36 34 38 40 40 42 41 38 38 39 40 40 39 41 40 39 36 35 29 25 22 29 32 27 32 34 34 36 37
55 55 55 55 55 52 52 54 54 54 49 44 42 42 37 32 35 36 37 37 39 40 38 38 41 39 40 44 43 42 42 41 41 38 40 34 30 28 22 26 17 33 38 38 37 38 39
55 55 55 55 52 52 53 54 54 52 50 43 42 41 37 29 33 34 38 36 37 37 37 37 38 38 42 40 36 33 32 34 36 36 37 38 32 29 24 19 28 32 36 36 34 33 37
55 55 55 54 52 53 54 54 54 52 50 45 41 40 39 35 28 33 35 37 32 31 33 36 40 41 41 36 34 26 25 28 27 30 36 37 36 34 31 21 21 32 37 41 39 29 38
54 54 54 53 53 53 54 53 54 51 51 46 41 41 38 30 30 32 33 34 35 33 31 33 35 37 38 32 28 26 26 32 26 26 32 33 34 29 30 27 29 37 39 40 26 31 38
54 53 53 53 53 53 54 53 53 52 52 46 40 42 38 30 32 34 35 34 34 33 32 34 35 37 33 30 30 28 27 29 27 29 28 29 27 25 30 28 22 38 38 32 37 37 39
53 53 52 53 54 54 53 53 53 53 52 49 40 44 44 35 33 37 37 38 37 35 34 32 32 32 34 29 28 29 30 27 27 25 29 28 32 29 30 30 38 36 37 38 40 39 37

GFSGBSN_sfc_temp_090.txt.gz
Temp
64 64 63 64 64 63 63 63 63 63 64 65 64 62 62 61 62 62 62 62 61 62 61 61 61 60 52 41 41 56 64 61 58 55 51 47 43 42 41 43 45 42 45 51 53 54 52
63 63 63 63 63 63 62 62 62 62 62 64 64 62 61 60 61 61 61 61 61 61 61 60 61 59 46 35 53 56 56 56 56 53 49 49 46 46 44 45 41 45 48 49 52 52 53
63 63 63 63 62 62 62 62 62 62 63 64 63 62 61 60 60 60 61 61 61 60 60 60 60 57 45 43 54 55 56 57 57 54 47 51 50 45 48 43 48 47 42 48 46 49 49
62 62 62 62 62 62 61 61 61 61 62 62 61 62 60 60 59 59 60 60 60 59 59 59 60 52 40 56 53 54 56 57 55 54 51 53 52 46 44 45 42 40 42 36 45 45 47
61 62 62 61 61 61 61 61 61 61 61 62 62 60 60 59 58 59 59 59 59 59 60 60 50 45 40 59 51 54 53 53 54 51 51 55 51 44 43 37 35 37 34 36 40 47 46
61 62 62 61 61 61 61 61 60 60 60 60 60 58 59 58 57 57 58 59 58 57 55 56 53 42 45 44 50 52 54 54 51 48 45 46 43 37 38 34 26 31 34 36 37 44 45
61 61 61 61 61 61 61 60 60 60 59 60 59 58 58 57 57 57 54 49 45 41 45 42 42 43 46 50 52 50 54 50 50 46 36 41 33 32 37 38 39 37 37 35 39 45 42
61 61 61 61 61 60 60 60 60 59 59 59 59 58 58 57 56 56 51 44 46 47 39 47 47 46 48 47 42 48 53 43 41 33 38 35 33 38 43 42 40 40 36 36 42 44 42
60 60 60 60 60 60 60 60 59 59 59 58 58 58 58 56 55 52 48 48 53 50 37 42 46 45 44 46 40 42 47 43 37 33 35 30 37 43 41 41 39 38 37 36 38 42 45
60 59 60 60 60 59 59 59 59 59 58 58 57 58 57 55 49 49 45 53 52 50 24 35 39 43 46 44 38 49 49 43 37 31 36 35 42 41 38 39 39 36 43 44 41 38 33
59 59 59 59 59 59 59 59 59 58 58 57 57 57 56 55 48 46 51 53 50 45 12 38 39 51 47 40 41 41 49 43 33 34 36 34 39 40 36 37 42 38 43 42 42 38 37
58 58 58 58 58 58 58 58 58 58 58 57 57 57 56 52 49 51 52 52 47 25 13 33 40 38 41 42 43 43 42 44 42 38 42 39 46 42 42 43 44 44 41 41 39 38 26
58 58 58 58 57 58 57 55 57 58 57 56 56 56 54 54 46 52 50 45 25 16 35 30 33 37 38 38 38 39 37 33 29 30 32 37 39 44 45 39 43 44 36 29 27 27 26
57 57 57 57 57 56 56 56 57 57 55 55 55 55 54 54 51 50 47 35 16 30 29 39 37 36 33 38 36 37 33 30 36 35 34 25 22 37 45 40 36 39 36 29 23 22 26
57 57 56 56 54 57 56 56 56 56 55 55 55 50 49 50 51 48 40 25 26 29 34 36 36 31 31 36 36 34 31 32 37 36 30 28 30 43 43 46 43 38 31 39 31 31 25
56 56 56 55 54 56 56 56 56 55 55 54 46 46 46 51 50 45 35 31 32 38 40 39 31 33 28 31 32 36 33 37 38 42 41 35 30 38 43 45 43 38 42 32 30 25 23
56 56 56 55 55 56 56 56 56 55 53 53 44 40 48 51 49 40 31 28 35 42 43 39 34 32 32 32 33 32 31 37 42 42 40 37 33 34 37 35 33 36 35 34 33 28 24
56 56 56 55 55 56 56 56 55 54 53 49 42 34 48 49 36 37 33 35 43 40 42 41 40 38 35 35 33 32 32 34 46 43 36 37 33 26 33 37 38 35 33 33 26 26 22
54 55 55 55 55 56 56 55 54 53 52 46 40 40 47 47 31 33 36 37 39 39 40 40 39 41 40 36 32 35 35 42 45 41 38 38 29 25 29 33 37 34 36 35 32 29 23
53 55 55 55 56 56 56 53 52 53 53 47 40 33 40 42 41 35 33 32 35 42 41 42 42 41 39 35 37 34 34 40 42 42 48 44 31 28 21 28 32 30 34 34 31 24 27
55 55 55 56 56 56 54 53 52 53 54 48 41 36 40 32 35 35 34 35 36 36 40 42 38 39 38 33 34 32 35 37 42 45 39 38 26 23 32 33 33 33 33 33 26 30 27
55 55 55 55 56 54 53 52 52 55 57 45 37 37 39 38 40 35 35 35 38 38 38 36 37 39 38 36 36 34 36 34 35 38 35 36 25 29 27 32 33 31 33 33 33 34 33
55 55 55 55 54 54 53 52 53 55 54 43 41 43 42 38 38 35 31 34 41 40 39 41 40 38 37 38 39 39 38 39 38 37 34 34 29 25 21 28 31 26 32 33 33 34 35
55 55 55 55 55 53 52 53 53 53 51 45 42 42 38 32 37 37 36 36 37 37 37 37 40 38 39 42 42 42 40 39 39 37 39 34 30 28 20 26 17 31 36 36 35 37 37
55 55 55 55 53 53 53 54 54 52 51 44 42 41 37 33 36 33 35 34 35 36 35 36 37 37 41 39 35 32 31 33 34 34 35 37 31 28 22 18 28 31 33 34 33 33 36
54 54 54 54 54 53 53 55 51 52 52 44 41 41 37 32 28 31 34 34 31 30 32 35 39 40 40 35 33 26 24 28 26 29 35 36 35 31 31 20 19 31 36 39 37 28 38
54 54 54 53 53 53 53 53 53 53 53 47 41 41 36 29 29 31 32 33 33 32 30 32 34 37 36 32 28 25 25 29 25 26 33 33 34 26 31 29 28 35 37 39 26 29 37
54 54 53 53 53 54 54 52 53 53 52 46 41 40 36 29 31 33 34 32 33 34 32 34 35 37 33 30 30 27 26 28 26 27 27 30 27 24 27 23 20 36 36 31 36 35 37
53 53 52 53 54 54 54 52 53 53 52 49 38 42 42 34 32 36 36 36 35 35 33 31 33 32 34 28 27 29 29 26 26 24 28 27 31 28 30 30 37 34 35 36 38 38 36

GFSGBSN_sfc_temp_093.txt.gz
Temp
63 63 63 63 63 63 63 63 63 62 62 63 63 62 62 63 62 62 62 61 62 62 61 61 61 60 53 43 43 57 64 61 58 55 51 49 44 43 39 43 45 42 46 50 52 52 53
63 63 62 62 62 62 62 62 62 61 62 62 62 62 62 62 61 61 61 61 61 61 61 61 61 59 48 36 55 57 56 56 56 54 52 48 45 47 43 43 43 45 47 47 50 52 53
62 62 63 62 62 61 62 62 61 61 61 61 62 62 61 61 61 60 60 60 61 60 60 60 61 57 45 43 56 56 55 55 58 54 48 52 50 44 46 43 48 46 37 44 47 51 50
63 62 62 61 61 61 61 61 61 61 61 61 61 61 61 61 60 59 59 59 59 59 60 60 60 54 41 56 55 54 57 56 56 54 51 53 53 47 45 44 42 38 39 35 46 48 45
62 62 61 61 61 61 61 60 60 60 61 60 60 60 60 60 58 58 57 58 59 59 59 60 52 48 39 58 51 54 55 53 54 51 51 55 50 45 44 35 32 38 32 36 39 47 44
62 61 61 61 61 61 61 60 60 60 60 60 59 59 58 59 58 56 57 58 57 57 55 56 54 42 46 45 50 52 54 53 51 49 47 47 43 37 37 32 28 32 35 38 38 43 44
61 60 61 61 61 60 61 61 60 59 59 60 59 58 58 59 57 56 53 50 46 43 45 43 43 43 47 51 52 50 54 50 50 46 37 41 34 30 37 36 39 39 38 37 41 45 42
61 61 61 61 60 60 60 60 60 60 59 59 58 58 58 58 57 56 51 45 46 48 39 46 47 46 49 48 43 48 53 43 42 35 38 35 33 38 38 38 40 39 38 37 40 44 42
60 60 60 60 60 60 60 59 60 59 59 58 58 58 58 56 56 52 48 47 52 52 39 43 46 45 45 46 41 42 47 44 38 34 35 31 38 43 43 41 39 38 37 37 36 42 43
59 59 59 59 59 59 59 59 59 59 58 58 57 57 57 55 50 49 46 52 51 51 30 36 39 44 46 45 38 49 49 43 39 34 36 37 43 41 40 39 40 35 42 43 39 39 34
59 59 59 59 59 59 59 58 58 58 58 57 57 57 57 55 47 46 49 51 49 47 20 38 39 50 46 41 41 42 49 44 35 36 37 35 39 39 35 38 42 39 44 43 41 39 38
58 59 58 58 57 58 57 57 56 56 56 57 56 56 56 51 49 50 51 50 47 30 21 33 39 37 40 41 43 43 43 45 43 39 40 39 47 43 41 43 44 45 42 40 40 38 30
58 58 58 57 57 57 56 54 52 55 56 56 55 55 52 53 46 51 50 45 29 23 36 32 33 36 38 38 38 38 37 34 31 29 32 37 39 43 45 37 43 42 36 29 27 26 27
57 57 57 57 57 57 55 54 55 55 56 55 55 55 51 52 52 50 46 35 24 31 32 39 35 35 33 38 36 36 34 31 38 36 32 23 23 38 43 40 37 37 36 29 23 24 28
57 57 56 56 56 57 54 55 56 56 55 53 54 45 46 50 51 50 39 28 29 31 35 35 35 31 34 37 36 34 31 31 37 38 31 28 31 43 44 44 43 38 33 39 31 32 30
56 56 56 56 56 55 53 56 56 55 54 53 45 43 45 51 51 45 35 31 32 39 39 37 31 32 28 31 31 33 34 37 39 41 40 35 29 37 43 46 44 41 43 33 30 23 23
56 56 56 55 55 54 55 56 56 54 53 51 44 38 47 50 50 38 30 31 35 42 42 38 32 31 31 30 32 31 31 37 43 41 40 40 36 36 39 37 34 37 36 35 35 30 28
55 54 54 55 55 54 55 55 56 54 53 48 42 34 47 49 36 36 32 34 43 40 41 39 39 36 33 34 32 32 31 34 45 43 36 38 33 31 34 39 40 38 35 35 30 29 25
55 55 55 56 54 54 55 56 56 54 52 44 38 37 47 47 31 33 36 36 39 38 39 39 37 40 38 35 31 35 34 42 46 42 38 39 30 26 29 34 38 36 37 35 33 32 25
55 55 55 55 55 55 56 55 53 53 52 45 39 32 39 42 41 37 33 33 34 41 40 41 39 40 38 35 36 33 34 41 44 43 47 43 31 28 23 30 33 32 36 36 33 27 30
55 55 55 55 56 55 54 53 52 52 52 46 39 35 39 32 35 36 36 35 33 37 42 40 37 38 37 32 33 32 35 37 42 45 40 38 27 24 31 33 35 35 35 35 29 33 30
56 56 56 56 55 54 54 53 53 53 53 44 38 37 40 38 38 35 35 33 35 38 38 35 36 38 37 36 36 33 36 34 35 39 35 36 26 30 29 33 34 33 35 34 36 35 35
55 55 55 55 54 52 53 53 53 55 53 39 38 42 42 37 35 34 31 37 40 40 39 39 39 37 37 37 39 39 38 38 38 37 34 33 30 26 23 29 31 28 33 34 35 36 36
55 55 55 55 54 53 53 54 55 55 51 42 39 41 38 33 35 36 36 39 41 40 36 36 39 38 39 41 41 41 39 38 37 36 38 33 30 28 21 27 19 33 37 37 36 37 38
55 55 55 55 54 54 54 55 55 54 54 43 42 42 38 31 36 37 34 37 38 37 34 34 36 36 41 39 36 33 35 36 35 34 34 36 32 27 23 21 28 32 35 36 35 34 38
54 54 54 54 54 54 54 54 54 54 52 43 39 41 39 33 32 32 36 37 35 29 32 37 39 40 41 35 33 27 25 27 26 30 36 36 35 30 26 21 22 32 37 40 39 30 38
54 54 54 54 54 54 54 54 54 54 53 46 39 39 37 28 27 30 35 35 33 31 30 32 33 39 39 32 29 26 25 28 25 26 32 34 34 27 26 22 29 36 38 39 28 33 39
53 54 53 54 53 54 54 54 54 53 53 46 38 39 36 28 30 33 33 30 33 33 32 34 37 38 34 32 30 27 26 27 25 26 28 31 26 25 27 22 21 37 37 34 38 37 39
53 53 53 54 54 53 54 54 54 54 53 48 37 41 40 33 31 35 34 34 34 33 33 31 33 32 34 28 27 29 28 25 25 24 28 27 31 28 30 30 37 36 36 37 39 39 38

GFSGBSN_sfc_temp_096.txt.gz
Temp
63 63 63 62 63 63 63 62 62 62 62 62 63 62 62 62 62 62 62 61 62 62 62 61 61 60 58 49 50 64 65 64 64 61 57 53 48 45 40 45 50 47 50 54 55 56 56
63 63 63 63 63 62 62 62 62 62 62 62 62 62 61 60 61 62 61 61 61 61 61 61 60 59 53 42 63 64 63 62 61 59 56 53 48 51 44 45 46 53 52 52 54 54 56
63 63 62 63 62 62 61 61 61 61 61 62 62 61 61 60 61 61 60 60 61 60 60 60 60 59 47 48 63 64 61 61 62 60 54 57 54 44 44 45 51 51 45 48 50 52 51
62 62 62 62 62 61 61 61 60 60 61 61 61 60 60 60 60 60 59 58 59 59 60 60 60 57 47 61 65 61 63 61 61 59 56 56 52 48 44 52 49 38 40 35 48 51 53
62 62 62 62 62 61 61 61 60 60 60 60 61 60 59 59 59 58 57 57 59 59 59 60 55 50 44 62 55 62 62 57 58 56 57 58 52 47 48 42 39 41 33 33 42 53 50
62 61 61 61 62 61 61 60 60 59 59 59 60 59 59 58 59 57 57 58 57 57 58 59 54 45 51 49 56 58 61 59 55 51 51 46 45 42 42 39 32 34 38 43 42 47 49
61 62 61 60 60 60 60 60 60 59 59 59 59 59 58 58 59 56 55 51 46 44 49 48 48 47 50 56 57 55 59 56 55 50 39 44 36 32 42 44 41 35 39 40 41 49 46
61 61 60 61 60 60 60 60 59 59 59 59 58 58 58 58 58 57 53 48 48 49 42 51 50 50 53 54 47 53 58 49 47 41 44 38 33 44 42 42 39 38 41 40 41 45 46
60 60 60 60 60 59 59 59 60 59 59 58 58 58 57 57 55 52 49 50 53 53 42 45 48 48 50 52 47 49 53 50 45 40 42 38 43 45 43 41 38 43 44 40 38 44 47
60 60 60 59 59 59 59 58 58 58 58 57 57 57 57 55 50 49 47 52 54 54 35 37 41 47 49 50 44 54 54 50 45 40 42 41 47 43 42 41 43 40 49 47 40 41 38
59 59 59 59 58 58 58 58 58 57 55 56 56 56 56 56 52 48 50 52 55 52 26 40 41 54 50 46 47 48 55 49 42 42 42 39 42 38 39 40 42 43 49 46 44 42 45
59 59 58 58 58 57 57 57 56 53 54 54 55 56 55 53 50 50 52 53 52 33 24 34 42 41 42 45 45 48 48 51 49 42 40 41 48 44 43 44 43 48 47 46 46 44 36
56 57 57 57 57 57 56 56 54 54 54 54 55 55 54 57 48 52 51 46 32 29 38 33 36 41 40 40 42 43 42 42 39 33 33 40 38 46 45 39 43 44 43 32 32 32 31
56 57 57 56 56 57 56 54 53 55 55 54 54 54 55 56 58 51 48 36 28 34 33 41 40 41 36 43 41 41 40 40 43 41 39 34 31 37 45 41 37 38 40 36 29 32 33
57 56 55 55 55 55 55 54 55 56 54 54 53 52 52 54 56 52 40 31 32 34 38 38 40 36 35 40 41 41 40 40 43 43 37 36 32 42 44 45 42 40 39 46 39 43 38
57 56 56 56 56 55 52 52 54 55 53 53 49 47 49 54 55 46 36 34 34 39 42 43 38 41 36 37 39 40 40 44 43 45 47 42 32 40 43 49 48 45 49 40 41 32 29
57 56 56 56 56 55 53 53 55 54 53 52 48 42 50 53 50 40 32 34 35 43 44 43 41 39 40 38 40 39 39 43 45 45 47 45 41 37 42 39 39 44 44 43 44 40 38
56 57 57 56 55 55 55 55 55 54 53 50 44 35 48 50 35 36 35 36 39 43 47 45 46 44 43 42 40 40 40 41 48 49 43 46 43 33 37 46 47 45 44 45 41 36 36
57 57 57 56 55 56 56 55 55 54 53 46 38 41 48 46 32 34 35 35 39 41 44 45 44 46 46 43 39 42 42 47 49 48 45 47 40 34 37 43 47 44 45 45 44 43 33
56 56 57 56 56 55 54 52 52 52 53 48 40 34 38 41 41 39 35 34 36 45 44 47 46 48 46 43 45 41 43 46 48 49 47 49 41 37 34 36 40 38 43 45 43 39 42
56 56 56 55 55 54 54 53 51 51 52 45 40 37 40 34 36 38 38 36 37 38 45 47 45 46 46 41 42 41 44 46 49 48 48 48 34 34 40 41 42 41 42 44 38 42 40
56 56 56 56 55 54 54 54 53 53 52 45 39 39 44 39 39 36 36 36 39 40 42 43 43 46 48 45 45 42 45 46 46 48 46 46 36 38 38 42 42 38 42 43 43 43 44
55 55 55 55 55 55 55 55 54 54 52 45 45 49 48 37 35 36 38 41 42 42 43 45 47 48 46 45 49 51 50 50 49 48 44 44 40 37 33 38 40 39 40 41 42 44 46
55 55 55 55 55 55 55 54 55 55 54 51 48 50 45 34 37 40 41 42 42 42 42 44 47 48 46 52 53 54 52 50 50 46 47 43 41 39 35 37 30 41 45 45 44 44 46
54 55 55 54 54 54 55 54 55 54 53 50 49 51 48 36 39 39 40 42 41 41 40 41 43 45 52 49 47 43 43 44 43 44 45 48 44 37 35 35 37 40 42 43 43 42 46
54 54 54 54 55 55 54 55 55 54 52 48 46 48 50 44 38 36 41 41 39 39 41 41 47 49 49 47 45 35 35 37 37 39 46 46 48 44 36 31 30 42 46 49 48 41 48
54 54 54 54 55 55 55 55 54 54 53 50 45 46 49 40 38 38 41 41 40 42 41 43 45 47 48 45 40 38 37 38 36 36 37 40 42 37 37 35 40 47 48 49 38 43 49
53 54 54 54 55 54 54 54 54 53 52 50 44 46 47 40 38 38 38 39 41 44 45 44 44 47 46 41 41 40 39 40 38 39 40 39 37 37 37 33 31 48 46 42 48 48 50
53 53 53 54 54 54 55 54 54 54 52 51 46 47 48 43 39 42 41 42 40 41 44 42 42 42 46 43 42 42 40 38 38 37 40 37 43 42 42 43 46 48 48 49 50 51 49

GFSGBSN_sfc_temp_099.txt.gz
Temp
63 63 63 63 63 63 63 63 63 62 62 62 62 63 62 62 62 61 61 62 62 62 62 62 61 61 60 54 57 68 66 66 66 64 59 55 50 48 44 48 51 49 53 55 57 57 57
64 63 63 63 63 63 62 61 61 61 62 62 62 62 61 61 61 61 61 61 61 61 61 61 61 60 58 47 67 69 67 65 63 62 59 56 51 51 45 46 45 52 53 54 56 56 57
63 63 62 63 63 62 62 61 61 61 60 61 62 61 61 60 60 60 61 60 60 60 59 60 60 62 53 54 68 69 65 63 64 62 57 59 56 48 47 44 53 51 46 51 52 54 53
63 63 63 62 61 61 62 61 61 61 60 60 61 61 60 60 60 60 60 59 58 59 59 60 60 60 51 65 68 64 65 63 66 63 60 59 58 50 44 52 50 45 46 37 51 52 54
62 62 62 62 62 61 60 61 61 60 61 59 60 60 60 59 59 59 58 57 57 58 59 60 58 55 49 63 57 64 66 59 62 60 60 60 54 47 45 38 40 46 36 36 39 53 52
62 62 62 62 62 61 61 60 60 60 59 59 59 59 59 59 59 58 56 56 57 58 57 60 58 47 55 52 60 61 65 62 57 55 52 47 44 40 43 38 34 38 38 42 38 49 50
61 61 61 61 61 61 60 59 60 59 59 59 58 58 58 58 58 58 55 51 48 44 50 49 49 51 54 59 61 57 62 58 57 51 41 46 37 33 40 43 46 45 41 38 41 42 48
60 60 60 60 60 60 59 59 59 58 59 59 58 58 58 58 58 58 54 47 51 53 41 52 55 55 56 57 50 55 61 50 50 41 45 38 33 45 45 44 43 43 40 40 45 47 47
58 58 58 59 59 60 58 58 58 58 58 58 57 57 58 57 55 52 49 52 55 57 42 48 53 50 52 54 50 51 56 53 48 44 42 36 44 50 43 40 39 42 41 43 39 42 48
58 56 55 57 58 58 57 57 58 58 57 56 55 56 57 55 50 50 47 56 55 59 35 40 44 49 51 53 46 58 58 52 48 42 46 45 51 46 44 42 44 36 51 46 38 36 34
56 56 57 58 58 57 57 58 57 56 54 54 53 54 57 56 53 49 52 58 57 56 26 42 42 56 53 48 50 50 58 52 44 46 44 41 44 39 39 39 42 43 52 44 42 41 38
56 58 58 58 57 57 56 56 56 54 53 54 54 55 56 56 56 56 53 56 52 32 26 34 43 42 43 47 48 51 50 53 53 45 45 44 52 45 44 46 45 46 47 47 46 42 32
57 58 58 57 57 57 55 55 54 52 54 54 53 54 55 61 52 57 56 45 32 28 42 34 38 43 43 42 44 46 45 43 40 33 35 44 45 47 46 38 44 44 42 31 30 31 30
58 58 57 57 57 57 55 53 54 54 56 55 55 55 55 60 60 55 49 36 28 37 34 42 43 44 40 45 43 44 44 42 47 45 40 36 31 40 45 40 36 41 39 33 29 30 32
58 57 57 58 57 56 55 54 56 55 55 55 55 55 55 58 60 51 41 31 33 34 40 40 43 38 39 44 44 44 44 43 47 47 34 37 34 45 43 44 43 44 39 49 42 46 38
57 58 57 57 57 57 56 56 56 55 54 54 51 51 52 59 60 48 36 33 35 40 44 46 37 42 36 41 41 42 43 47 45 48 50 39 33 39 43 44 47 44 51 38 41 33 30
57 58 58 57 56 56 56 56 55 55 54 54 54 45 50 58 54 40 33 34 36 45 45 44 42 42 45 42 42 44 43 45 47 47 47 42 36 38 43 42 42 45 45 47 47 42 39
57 57 57 57 56 56 56 56 55 54 54 54 48 36 49 55 36 37 36 38 38 44 49 48 49 47 46 46 44 44 43 44 50 51 40 46 43 34 39 49 50 48 47 49 43 40 45
57 57 57 56 55 55 54 54 54 54 54 52 42 38 47 49 34 35 36 37 40 44 47 47 46 50 50 47 41 46 46 50 52 50 47 50 43 33 38 45 50 47 50 51 49 47 37
56 57 56 56 55 54 53 51 52 53 53 55 44 34 38 41 44 42 36 35 38 47 47 48 49 52 49 47 49 44 46 49 51 51 48 51 44 39 35 37 43 41 47 49 46 41 45
56 56 56 56 56 55 54 53 52 53 53 52 46 39 42 35 41 42 38 37 41 40 48 50 48 50 49 44 46 45 48 49 52 51 52 52 36 35 44 45 45 45 46 48 41 48 41
56 56 56 56 56 55 55 55 54 53 53 48 43 44 45 42 43 38 37 40 42 43 45 44 46 50 52 47 48 45 48 50 49 53 51 52 39 42 41 46 45 41 46 47 47 49 49
55 55 55 55 55 55 55 54 55 53 53 49 52 55 51 38 37 40 42 44 45 46 48 49 50 51 49 47 54 55 56 55 54 51 49 48 43 40 35 43 43 40 42 45 46 49 51
55 55 55 55 55 55 55 54 54 53 56 59 56 56 49 35 39 43 45 45 45 46 45 49 51 51 49 58 60 59 57 55 54 52 53 47 45 43 37 40 32 42 48 48 47 48 50
55 55 55 55 55 55 55 54 53 54 55 59 57 55 52 38 42 44 45 46 46 48 45 46 47 52 56 54 50 45 47 46 47 49 50 52 49 41 38 39 41 44 46 46 45 45 51
54 54 55 55 55 55 55 55 55 55 54 58 53 53 55 47 42 46 44 46 46 46 47 46 51 55 52 52 48 38 38 40 40 43 50 50 51 46 39 33 32 45 49 53 52 43 52
54 54 54 55 55 55 55 55 54 54 54 58 51 52 55 47 45 44 45 47 48 47 48 48 49 50 51 49 43 41 41 43 39 38 40 43 44 39 41 37 43 50 51 53 39 43 53
53 54 54 54 55 55 55 54 54 53 53 56 50 52 53 48 43 44 44 46 47 49 48 49 47 49 50 44 44 44 43 45 42 44 43 42 39 39 41 36 33 53 49 45 50 54 54
53 53 53 53 54 54 55 54 54 53 53 55 52 53 55 50 44 47 46 46 45 45 47 49 47 48 51 47 47 48 44 45 44 40 46 39 47 44 45 45 50 54 52 54 56 54 54

GFSGBSN_sfc_temp_102.txt.gz
Temp
64 63 63 64 63 63 63 63 62 61 62 62 62 62 62 62 62 61 61 62 62 61 62 62 62 61 58 52 54 66 67 67 66 63 58 55 50 48 42 47 49 45 48 53 54 54 54
63 63 63 63 63 63 62 62 62 62 62 61 62 62 62 61 61 61 60 61 62 61 62 62 61 61 54 45 67 68 66 65 64 61 58 56 51 53 45 44 43 48 49 50 52 52 54
63 63 63 63 63 63 62 62 61 61 61 61 61 61 61 61 61 60 60 60 60 59 60 61 61 60 53 53 68 68 67 63 64 62 56 59 56 48 47 43 50 48 42 46 48 51 50
63 63 63 63 62 62 62 61 61 60 61 61 60 60 61 60 60 60 60 60 59 58 58 60 60 57 48 65 67 65 65 62 64 64 60 60 57 51 46 48 45 42 42 33 47 50 51
62 62 62 62 62 62 62 62 61 60 60 60 58 59 59 60 59 59 57 58 58 58 59 60 55 52 48 62 57 64 64 59 61 60 60 61 54 45 45 37 34 40 29 33 39 50 49
62 61 61 60 59 60 61 61 60 59 59 58 58 57 58 59 59 59 55 56 56 57 56 58 56 46 53 51 59 62 64 63 57 55 51 48 45 39 39 35 26 33 34 39 38 45 43
60 60 59 56 56 58 58 59 59 58 55 56 58 57 57 58 58 58 55 50 45 43 47 46 48 50 54 59 62 57 62 57 56 51 40 44 36 31 38 41 40 39 37 35 42 49 40
60 59 57 57 56 59 59 59 58 56 55 57 57 56 57 58 56 58 54 45 50 49 40 48 51 53 57 58 50 54 61 49 47 39 44 37 32 42 46 45 40 37 36 36 44 47 40
59 59 57 58 59 59 59 58 58 58 58 57 56 55 55 56 55 52 51 50 55 55 42 47 51 50 51 54 49 50 54 52 46 41 42 35 41 49 42 40 37 38 37 38 37 39 45
58 58 60 59 59 58 58 58 57 56 56 55 54 54 54 56 49 52 46 51 53 54 34 37 43 49 52 53 45 58 58 52 47 40 45 42 46 44 43 40 43 35 46 45 38 35 31
58 59 59 59 59 58 58 57 57 56 54 53 54 54 55 55 50 49 50 52 54 51 24 39 42 56 53 47 48 48 58 51 42 45 44 39 43 38 38 41 44 39 46 42 41 36 32
59 59 59 59 58 57 56 56 55 54 53 54 54 55 56 54 53 53 53 54 50 32 24 34 42 42 42 46 48 50 49 52 51 44 46 43 51 44 44 46 46 46 42 43 42 38 30
58 58 59 58 58 57 56 57 56 55 55 54 55 55 55 60 49 56 55 46 31 26 38 33 38 42 41 42 43 45 43 40 36 32 33 42 43 48 46 38 42 42 36 28 28 29 28
58 58 58 58 58 57 57 57 57 57 56 55 55 55 55 59 55 55 49 36 26 33 34 44 43 43 36 44 43 44 42 37 46 43 35 31 30 40 43 40 36 38 36 30 25 26 30
58 58 58 57 58 57 57 57 56 56 55 55 55 54 54 56 56 54 41 29 29 33 39 41 43 38 38 43 43 43 40 41 45 46 34 33 32 45 43 44 42 40 35 44 32 37 30
57 58 58 57 57 57 57 57 55 55 55 55 50 50 48 58 56 48 36 33 34 42 44 45 36 42 35 40 39 40 41 46 44 48 47 38 31 39 42 44 44 41 46 34 34 28 26
57 58 58 57 56 56 56 56 55 55 55 55 51 43 49 56 54 41 31 33 36 47 46 42 40 42 43 40 40 36 41 44 47 46 45 41 33 36 40 39 39 40 40 41 41 36 28
57 57 57 57 55 55 55 55 55 54 54 54 47 35 50 52 36 37 34 37 39 44 49 47 48 48 45 44 42 42 40 43 49 46 37 43 38 32 38 46 47 43 42 43 29 33 34
57 57 57 56 56 55 54 54 54 54 55 52 39 38 48 49 33 34 37 38 40 44 47 46 46 49 49 45 39 44 45 49 52 49 43 45 36 29 33 39 44 42 46 46 43 37 30
56 57 56 56 56 55 55 53 53 54 54 50 43 34 40 42 43 41 35 36 40 47 48 50 49 50 48 45 47 42 44 48 49 51 48 47 39 32 27 31 38 35 42 45 38 30 34
56 56 56 56 56 55 55 55 53 53 54 49 45 38 43 35 40 41 39 39 42 41 48 50 47 49 48 42 44 42 45 46 50 51 47 46 31 29 39 43 42 40 41 43 37 41 32
56 56 56 55 55 55 55 55 54 53 53 47 44 42 46 42 42 40 38 40 43 44 45 45 46 49 49 43 45 43 46 46 44 47 44 47 32 33 34 42 41 36 42 42 42 45 44
55 55 55 56 56 56 55 55 55 54 53 48 50 52 48 40 38 41 42 43 44 46 47 49 48 47 44 45 50 49 49 49 46 44 43 42 36 32 27 36 37 31 38 41 41 43 44
55 55 55 56 56 56 54 55 54 54 53 54 52 52 45 35 39 43 45 46 45 44 43 48 47 46 47 53 53 50 49 50 49 47 48 42 39 34 27 30 21 36 44 44 43 45 46
55 55 55 55 56 55 54 54 54 54 54 52 53 49 47 37 41 43 45 44 45 46 43 45 46 47 51 47 43 40 40 40 43 44 44 46 40 33 26 26 34 38 42 41 38 39 45
54 55 55 55 55 54 54 54 54 54 55 51 49 49 48 41 37 47 44 44 41 40 42 45 48 50 47 44 42 31 29 34 34 36 44 46 44 35 30 25 24 37 44 47 44 32 46
54 54 54 54 55 55 54 54 54 54 54 51 47 49 46 41 41 42 41 41 44 42 40 42 43 44 45 40 35 31 31 37 31 31 33 36 37 31 31 27 34 43 46 46 29 34 46
53 54 54 54 55 55 55 54 54 54 54 51 46 49 45 41 40 44 44 42 43 43 40 43 41 43 42 36 35 35 33 36 32 36 34 34 31 29 32 26 24 45 42 36 42 45 47
53 53 53 54 54 54 54 54 54 54 53 53 46 50 51 42 39 46 44 45 42 42 39 44 41 42 41 37 37 37 34 35 35 29 37 30 38 34 36 35 44 46 43 44 48 46 45

GFSGBSN_sfc_temp_105.txt.gz
Temp
64 64 64 63 63 63 63 63 62 62 62 63 63 62 62 62 62 62 62 62 62 61 61 62 61 62 56 47 48 65 68 67 64 61 56 52 46 46 42 41 43 41 44 49 50 51 51
64 63 63 63 63 63 63 63 63 62 62 62 62 62 61 61 61 61 61 61 62 61 61 60 62 61 52 42 60 66 63 62 62 58 54 52 49 51 45 40 39 43 45 45 48 48 50
63 63 63 63 62 62 63 62 61 62 62 62 61 60 60 61 61 61 60 61 61 62 61 61 61 59 51 51 63 63 63 60 61 59 54 57 56 49 46 39 48 47 38 43 44 47 46
63 63 63 62 62 60 59 59 59 60 61 60 60 59 59 60 59 60 59 59 60 60 59 59 60 55 46 61 61 62 62 60 62 61 58 57 54 50 46 46 42 38 37 29 43 46 47
62 62 61 60 57 57 59 58 59 60 59 58 57 57 56 57 58 59 58 56 59 58 58 58 53 50 46 63 57 61 61 57 58 58 60 60 51 44 43 36 31 34 23 28 36 47 47
62 59 58 59 58 59 59 59 59 59 59 57 54 54 54 55 57 58 58 55 57 57 57 58 56 46 50 49 57 60 60 59 56 53 50 47 45 39 39 33 20 26 27 34 34 42 45
58 60 60 61 61 61 61 60 60 59 58 57 56 56 54 56 58 58 54 51 45 42 48 45 46 49 50 57 60 56 59 55 53 50 39 44 35 30 33 35 35 35 32 31 37 44 42
59 61 61 60 60 60 60 60 59 59 58 57 56 56 57 57 57 58 52 44 47 47 39 47 49 51 56 57 48 53 58 46 44 38 43 37 32 38 41 40 38 37 34 32 38 45 40
60 60 60 60 60 60 58 59 59 58 58 57 55 55 56 55 56 52 48 47 51 52 40 43 47 48 51 53 48 47 53 48 44 38 38 31 38 45 41 39 37 36 34 33 35 40 40
60 60 60 60 59 58 58 57 57 56 56 55 55 55 55 55 50 48 45 52 53 53 33 36 42 47 50 51 44 55 54 48 43 37 39 37 44 42 41 40 40 33 43 43 38 34 29
59 59 59 59 59 58 58 58 57 56 55 54 54 55 54 55 48 47 49 52 52 48 21 38 41 55 52 45 46 46 55 48 39 40 40 36 40 37 36 39 42 38 43 39 38 36 32
59 59 59 59 58 58 58 58 58 57 55 55 55 56 56 51 47 50 52 52 48 31 21 33 41 40 41 44 46 48 47 49 47 41 41 39 46 43 41 44 44 45 40 39 39 36 28
58 59 58 58 58 58 58 57 57 57 56 56 56 56 55 57 45 51 51 44 29 24 37 32 36 40 40 39 43 42 39 35 32 27 31 39 39 44 44 37 42 40 36 26 27 27 27
58 58 58 58 58 58 57 57 57 56 56 56 56 55 53 55 52 50 45 36 25 33 32 42 41 38 36 41 42 41 37 32 39 38 30 24 25 38 43 40 36 38 36 29 22 26 29
58 58 58 57 57 57 57 57 56 56 55 55 55 46 46 49 53 49 39 27 29 33 38 39 40 34 35 40 39 38 35 36 40 44 32 32 31 44 43 44 42 39 34 39 31 34 29
57 58 58 57 57 56 56 57 56 56 55 55 43 42 43 52 51 44 32 32 34 42 43 41 32 38 30 34 35 34 36 42 43 45 45 38 29 39 41 44 43 38 43 32 32 24 25
57 57 58 57 57 56 56 56 56 56 56 55 42 36 45 50 46 36 30 33 37 44 45 40 37 38 37 38 38 35 36 42 46 43 44 38 33 35 40 38 35 37 37 40 38 34 29
57 57 57 57 56 56 56 55 55 55 55 51 40 31 47 47 32 36 33 36 42 41 46 45 44 43 40 39 39 37 38 41 46 45 38 42 37 30 36 44 45 41 40 41 28 32 30
57 57 57 56 56 56 56 56 54 55 55 42 36 38 45 43 27 29 38 39 40 43 45 44 43 46 45 41 38 43 42 48 48 47 42 44 33 25 31 37 41 38 42 42 40 34 29
56 56 57 56 56 55 56 55 53 54 55 43 36 26 35 38 39 32 34 33 38 44 44 46 44 47 44 41 43 39 40 46 47 48 49 46 37 30 23 30 35 34 40 41 37 26 30
56 56 56 56 56 56 56 55 54 53 54 43 37 32 36 29 34 34 33 34 39 37 44 46 45 44 42 38 39 39 42 43 47 50 45 43 30 28 37 40 39 36 37 39 36 37 31
55 56 56 56 56 56 56 55 55 54 53 41 36 34 41 40 37 32 34 35 39 41 42 40 40 44 42 38 38 37 42 41 38 44 42 42 29 32 33 39 38 34 38 39 41 41 39
55 55 56 56 56 56 55 55 55 54 51 40 41 43 40 37 33 32 34 38 40 41 44 45 42 41 40 41 43 43 44 44 42 40 39 39 32 28 25 34 34 29 35 37 38 40 40
55 55 55 56 56 55 55 55 54 54 51 44 43 47 39 34 34 36 41 42 40 40 39 43 43 41 43 47 47 45 43 44 44 43 43 38 35 30 24 27 19 35 41 41 40 43 42
54 55 55 55 56 55 55 55 54 54 54 44 44 45 40 30 38 38 40 39 39 40 39 41 42 44 45 42 39 36 35 37 39 40 41 41 36 30 25 21 31 34 39 39 38 38 44
54 54 55 55 55 54 54 54 54 55 55 45 42 41 41 35 32 39 38 38 35 33 37 41 45 46 43 40 37 28 26 30 31 35 41 43 40 32 27 24 24 36 41 44 42 31 45
53 54 54 55 55 54 54 54 54 54 54 46 42 43 39 33 34 37 35 35 39 36 35 38 40 42 42 35 32 28 29 34 28 28 30 33 33 28 28 23 32 40 43 44 29 34 44
53 53 54 54 55 55 54 54 54 54 54 47 42 44 41 33 35 39 40 36 38 38 35 39 39 40 37 33 31 30 29 33 29 33 32 32 28 27 28 24 24 43 41 36 40 41 44
53 53 53 53 54 54 54 54 54 54 54 50 40 46 45 38 36 41 40 40 39 39 35 38 38 38 38 31 32 32 31 30 30 26 34 30 35 32 33 33 42 42 41 43 45 44 43

GFSGBSN_sfc_temp_108.txt.gz
Temp
64 64 63 63 63 63 62 62 62 63 62 63 62 61 61 61 62 62 62 61 61 62 62 62 63 62 56 47 47 63 69 68 63 60 55 50 45 43 37 39 41 38 42 47 48 47 48
64 63 63 63 63 62 61 60 60 60 60 61 62 61 60 60 60 61 61 61 61 62 61 61 60 60 52 42 59 65 62 61 60 57 53 51 47 48 40 38 37 41 43 44 46 46 47
64 63 61 61 59 60 59 58 58 59 60 61 60 59 59 59 59 60 61 61 61 61 61 60 59 57 49 50 62 63 62 58 59 57 51 53 55 49 43 38 45 45 37 41 42 44 43
62 60 61 62 61 60 59 60 60 60 60 60 59 58 58 56 57 58 59 59 59 61 61 59 60 53 45 61 61 61 60 57 60 59 56 56 54 48 46 44 41 36 35 28 41 44 45
60 62 62 62 62 62 61 60 60 60 60 59 57 57 56 54 55 57 58 56 59 60 59 60 53 50 43 62 55 60 59 55 56 56 58 59 51 45 43 36 31 31 21 27 34 45 44
62 62 61 61 61 61 61 60 60 60 60 58 57 54 53 54 55 56 57 54 58 57 55 57 54 44 49 49 56 58 58 57 52 51 49 48 44 39 39 34 18 25 25 31 31 40 42
62 61 61 61 60 60 59 59 59 59 59 58 57 55 54 55 56 57 53 48 43 44 47 45 45 48 50 56 60 54 57 53 53 48 35 43 32 30 31 35 34 32 31 30 36 42 38
61 61 61 60 60 60 59 59 58 58 58 57 56 56 56 57 56 58 51 45 45 46 38 48 51 52 54 57 47 51 56 45 43 35 41 36 32 38 39 38 36 34 33 34 38 42 38
60 60 60 60 60 60 59 59 59 57 57 56 56 56 56 56 56 51 47 47 52 50 38 42 47 49 50 53 46 46 51 46 41 35 35 30 36 43 38 36 35 37 34 34 31 39 40
60 60 59 60 59 59 59 58 58 57 56 55 55 55 55 55 49 46 44 51 52 51 33 36 41 44 49 51 44 53 53 47 42 36 37 35 42 40 38 36 41 33 44 39 39 36 29
59 60 59 59 59 59 58 58 57 57 56 56 56 56 55 55 48 46 49 51 50 47 20 37 40 54 51 44 44 45 54 47 37 38 41 35 39 38 35 37 42 37 42 38 36 34 32
59 59 59 59 58 58 58 58 57 57 57 57 57 57 56 50 48 48 50 50 47 28 16 33 39 40 40 44 44 46 46 48 46 39 38 38 44 41 39 43 43 44 39 38 37 35 27
58 59 58 58 58 58 58 57 57 57 56 56 56 56 54 54 44 50 49 44 28 22 36 32 34 39 38 37 39 40 38 34 31 27 31 36 37 42 43 37 41 41 35 24 23 25 25
58 58 58 58 58 57 57 57 57 57 56 56 56 54 52 53 50 48 45 32 23 33 31 41 38 38 35 39 38 38 34 31 37 35 28 29 23 37 42 39 37 37 35 28 22 25 27
58 58 58 58 57 57 57 57 57 56 56 55 54 44 45 48 51 46 36 27 30 33 37 37 36 31 32 38 37 35 33 33 39 40 31 32 29 43 43 45 42 38 34 38 31 32 29
57 58 58 57 57 57 57 56 57 56 56 56 42 40 42 49 48 41 33 32 34 41 41 40 30 35 28 32 32 33 34 41 41 43 44 37 29 40 43 44 42 38 41 33 32 25 23
57 57 58 57 57 57 57 56 56 56 56 55 40 35 45 49 45 37 31 33 37 43 42 38 35 35 37 36 36 35 36 41 45 42 44 38 34 35 40 37 36 37 35 37 37 31 26
57 57 57 57 56 56 56 56 56 56 55 47 37 28 45 45 32 36 33 35 41 40 44 42 41 41 38 39 37 36 36 39 47 46 38 40 37 29 35 43 45 42 40 40 29 29 30
56 57 57 56 56 56 56 56 55 55 54 40 33 34 43 42 26 31 35 36 39 40 42 42 42 44 44 39 35 38 39 47 47 43 39 41 32 26 31 37 40 36 41 42 39 35 27
56 56 57 56 56 56 56 55 54 55 55 42 34 28 35 36 35 30 30 33 37 43 42 44 43 45 42 39 41 37 39 44 46 46 50 45 34 29 24 31 35 33 37 38 35 27 29
56 56 56 56 56 56 56 55 54 54 54 43 35 32 35 28 33 33 33 34 37 37 43 44 42 41 40 35 37 36 40 42 46 47 43 41 30 26 34 37 36 35 35 37 33 34 28
55 55 56 56 57 56 56 55 54 54 53 41 35 34 36 33 35 33 35 35 38 39 40 39 38 41 40 36 35 34 38 38 36 42 39 40 29 30 32 37 36 33 37 37 37 38 35
55 55 56 56 56 56 55 55 54 54 50 39 39 41 38 35 31 31 33 37 40 40 42 42 40 39 39 40 40 41 41 42 39 37 38 37 31 28 25 32 34 29 35 35 36 38 37
54 55 55 55 56 55 55 55 54 54 51 44 46 45 37 30 32 33 38 40 39 40 38 42 41 39 42 45 44 41 40 42 42 40 41 36 33 28 23 28 19 34 39 39 38 39 39
54 54 55 55 55 55 55 55 54 54 53 43 43 45 38 30 33 36 38 38 39 40 39 40 42 43 43 42 38 34 33 36 38 39 39 39 34 29 24 21 30 34 38 38 37 37 41
54 54 54 55 55 54 54 55 55 55 54 43 40 40 39 37 32 36 35 37 33 32 36 40 44 45 43 38 35 28 26 29 30 34 39 40 37 31 25 22 23 35 39 43 41 31 43
54 53 54 54 55 54 54 54 54 54 54 44 40 41 38 33 34 36 34 34 36 34 33 36 40 41 41 34 31 27 28 32 27 26 29 31 31 27 27 22 30 38 42 43 30 34 41
53 53 53 53 54 54 54 54 54 54 54 45 41 42 40 33 33 39 40 35 36 36 33 38 38 39 36 33 31 29 27 30 27 30 30 30 26 26 26 23 24 40 39 36 40 38 42
53 53 53 53 53 54 54 54 54 54 54 49 40 44 43 37 36 40 41 42 42 40 36 36 36 36 36 30 31 30 30 28 28 25 32 28 34 30 32 32 40 40 40 42 43 42 41

GFSGBSN_sfc_temp_111.txt.gz
Temp
64 63 63 62 62 62 62 62 61 60 57 58 59 62 62 61 61 61 62 62 62 61 62 62 61 60 57 47 48 62 69 69 61 58 53 49 43 41 35 37 39 36 40 45 46 45 45
63 63 62 63 63 62 62 61 60 60 59 60 59 60 60 60 60 59 61 61 62 62 62 62 61 60 53 43 61 64 62 60 58 55 51 49 46 46 39 37 36 39 41 42 44 44 45
63 63 63 63 62 61 61 60 60 60 60 61 60 60 59 58 59 59 60 60 61 60 61 62 62 57 51 47 60 63 62 57 57 56 50 52 51 46 41 37 43 42 36 39 41 42 41
62 62 62 62 61 61 60 60 60 60 60 61 59 58 57 57 56 57 59 59 59 59 60 61 59 54 44 57 59 61 59 56 58 58 55 54 53 47 45 43 40 34 33 27 40 42 44
62 62 62 61 61 61 60 60 59 59 59 59 58 55 54 55 56 53 57 57 59 61 62 59 52 49 42 57 52 60 60 54 55 55 56 58 50 44 44 35 30 30 20 26 32 43 42
62 62 61 61 61 61 61 60 59 59 59 58 57 56 54 54 55 55 56 56 54 57 54 56 53 44 47 47 52 54 59 56 51 49 48 47 43 39 39 34 17 24 24 29 29 38 40
61 61 61 61 61 60 60 59 59 59 58 57 57 57 55 55 56 56 52 46 44 42 48 43 45 46 47 55 54 50 56 52 50 45 34 39 31 24 30 33 32 32 32 31 35 40 38
61 61 60 60 60 60 60 59 59 58 58 57 56 56 57 57 58 57 51 42 43 45 39 48 50 49 52 55 45 51 56 45 42 33 38 37 29 35 38 36 35 36 33 34 37 41 38
60 60 60 60 60 59 59 59 58 58 57 57 56 56 56 57 56 51 48 47 51 50 38 42 47 47 49 53 45 45 50 45 39 33 34 29 35 41 37 35 32 36 34 36 35 38 41
60 60 59 59 59 59 59 58 58 58 58 57 57 57 57 56 49 46 45 51 51 50 33 34 40 44 50 49 42 51 52 45 40 34 35 33 40 39 36 34 38 32 41 42 39 35 28
60 59 59 59 59 59 58 58 58 57 57 57 57 57 57 54 45 44 46 50 50 47 16 38 40 53 50 43 43 43 51 46 35 36 37 32 37 37 36 36 40 35 41 38 36 34 31
59 59 59 58 58 58 58 58 58 57 57 56 57 57 55 49 46 49 50 48 45 25 19 32 40 40 39 42 42 45 44 47 44 37 37 36 42 40 38 41 41 43 39 38 36 34 26
58 59 58 58 58 57 58 58 57 57 57 56 56 56 53 52 43 48 47 41 24 19 35 33 34 37 37 35 38 39 36 32 30 22 26 34 35 40 42 35 39 40 35 23 21 22 24
58 58 58 58 58 57 57 57 57 57 56 56 55 53 50 51 47 46 42 31 21 32 32 39 37 37 34 38 36 36 33 30 35 34 29 29 23 36 41 39 36 37 36 28 20 18 25
58 58 58 57 57 57 57 57 57 57 56 56 52 43 44 47 49 45 37 28 29 32 37 35 36 31 31 36 36 34 31 32 39 38 28 32 31 42 41 44 42 37 34 38 31 31 28
57 58 58 57 57 57 57 57 56 56 56 55 41 39 41 48 47 41 35 33 33 38 39 38 30 33 27 31 31 31 32 40 40 42 42 37 29 38 42 44 43 39 41 32 32 25 24
57 57 57 57 56 56 56 57 56 56 55 54 39 36 45 48 45 37 31 32 37 43 41 37 34 34 35 35 36 35 35 40 44 43 44 40 34 34 39 35 35 37 35 36 35 31 25
56 57 57 57 56 56 56 56 56 56 54 46 36 30 45 44 33 30 30 34 41 39 42 40 39 40 38 38 36 36 36 39 46 44 37 40 37 29 35 42 44 42 38 38 28 28 28
56 56 57 57 56 56 56 56 55 55 52 40 33 33 43 42 27 27 33 36 38 40 40 41 39 42 42 38 33 36 38 46 46 42 38 41 31 25 31 36 38 36 41 41 38 34 27
56 56 56 57 56 56 56 55 55 55 53 41 34 29 35 36 34 30 30 32 36 42 41 42 41 43 40 37 39 36 38 43 45 44 48 45 33 30 23 30 34 32 35 37 36 26 29
56 56 56 56 56 56 56 55 54 55 54 43 35 32 34 27 32 31 32 34 36 35 41 42 41 39 38 34 36 34 38 40 43 45 41 40 30 27 34 36 35 34 33 35 30 33 30
56 55 55 56 56 56 55 55 54 54 53 40 35 33 34 31 33 31 34 34 36 38 38 38 37 40 38 34 34 32 35 35 35 39 36 38 28 30 31 35 34 33 35 36 36 35 34
55 55 55 56 56 56 55 55 54 54 50 39 37 39 37 33 30 30 31 35 38 38 41 41 38 37 38 38 39 40 40 39 38 35 36 36 30 27 24 31 33 29 32 33 34 35 36
55 55 55 55 56 55 55 55 54 54 51 43 41 40 35 30 31 33 35 37 37 38 35 40 40 38 41 43 42 39 37 40 41 37 39 35 31 27 22 27 19 34 37 37 36 38 39
55 55 55 55 55 56 55 55 54 54 53 42 41 40 35 30 32 34 35 35 36 37 36 39 40 42 42 40 37 33 32 35 35 36 37 37 32 29 23 20 30 31 37 37 36 37 41
55 54 54 55 55 55 55 54 55 54 52 42 39 40 39 33 32 36 34 34 32 30 35 38 43 44 41 37 34 28 25 28 29 33 37 37 34 30 25 22 23 34 37 40 40 31 42
55 54 54 54 54 55 54 54 54 54 54 44 39 40 38 33 34 36 33 35 36 32 32 34 38 39 40 33 31 26 27 30 26 25 28 30 29 26 26 22 29 36 39 42 30 34 39
55 54 53 54 54 54 55 54 54 54 54 45 40 40 39 32 34 38 39 34 35 35 34 37 36 37 34 32 30 28 26 29 27 29 27 29 26 24 25 22 22 37 38 35 39 38 39
54 54 53 53 53 53 54 54 54 54 54 48 39 42 42 37 36 38 39 39 38 41 37 34 37 34 35 29 29 29 30 27 26 25 30 28 32 29 30 31 39 40 39 42 41 41 39

GFSGBSN_sfc_temp_114.txt.gz
Temp
64 63 63 63 63 62 61 61 61 60 60 58 58 58 59 61 61 61 61 61 61 62 62 62 61 60 57 46 48 63 68 67 61 58 52 48 43 40 35 36 38 35 39 43 44 44 43
63 63 63 62 62 62 62 61 61 61 60 60 60 60 60 59 59 60 60 61 60 62 62 62 60 57 51 43 57 63 63 60 58 55 50 49 45 44 39 36 35 37 40 40 42 42 43
63 63 63 62 62 62 62 61 60 60 60 61 60 58 58 58 58 58 59 59 60 60 61 61 61 55 49 46 59 61 61 57 58 55 49 51 50 45 41 36 41 40 35 37 39 41 40
63 62 62 62 62 62 61 61 60 60 59 59 58 57 56 56 57 57 57 59 59 59 60 60 61 53 44 55 58 59 61 56 58 56 53 53 52 46 42 41 39 33 32 27 38 40 43
62 62 61 62 62 61 60 60 59 60 59 59 58 57 56 56 56 55 57 57 60 60 59 60 52 50 42 56 52 55 60 53 54 54 54 57 50 42 42 33 26 30 21 26 32 41 41
62 61 61 61 61 60 61 60 59 59 59 58 58 57 56 56 55 55 56 56 59 57 56 55 52 45 46 45 51 56 58 56 50 49 47 45 41 35 37 26 18 23 24 30 29 36 38
61 60 61 61 60 60 61 60 59 59 58 58 57 57 58 57 56 57 50 48 45 44 48 41 44 45 47 50 58 52 56 52 50 44 33 39 28 20 29 31 30 35 34 33 37 40 37
61 60 61 60 60 60 60 60 59 59 58 58 57 57 57 58 57 57 50 42 44 45 38 47 48 47 49 53 44 49 55 44 41 32 36 32 24 34 37 35 33 34 32 29 36 39 36
60 60 60 60 59 59 59 59 59 58 58 58 58 57 57 57 56 52 47 46 50 50 37 41 46 45 46 50 44 45 50 44 38 33 31 28 33 40 37 33 31 30 28 30 34 40 39
60 60 59 59 59 59 59 58 58 58 58 57 57 58 56 57 48 46 45 50 51 50 33 34 40 43 50 50 41 51 51 44 38 33 33 31 38 37 35 33 34 28 38 38 39 36 28
59 59 59 59 58 58 58 58 58 58 57 57 57 57 56 55 48 46 47 49 49 45 17 38 40 53 49 42 42 43 50 45 34 34 35 32 35 34 34 35 37 34 39 36 35 34 32
59 59 59 59 58 58 58 58 58 58 57 57 56 56 55 48 46 46 47 47 43 24 18 32 41 39 39 41 41 43 43 46 43 36 34 34 40 38 37 40 40 41 36 36 34 35 25
59 58 58 58 58 58 58 58 58 57 57 57 56 56 51 51 41 47 45 40 24 20 35 31 32 36 35 34 37 37 35 31 29 21 23 33 33 38 41 34 37 37 35 22 19 23 22
58 58 58 58 58 58 58 57 57 57 57 56 55 53 50 50 47 45 41 32 22 31 32 37 35 36 32 35 34 34 32 29 33 31 28 26 22 35 40 39 36 37 35 27 17 18 25
58 58 58 58 58 58 57 58 57 57 56 55 53 43 44 46 47 43 37 28 26 32 35 34 35 31 31 35 34 31 29 30 37 34 27 32 26 40 40 43 43 37 33 38 31 31 28
57 57 57 58 57 57 57 57 57 57 56 54 41 39 41 47 45 41 33 33 32 38 38 37 30 31 26 30 29 28 29 38 38 39 38 38 29 37 40 44 43 39 41 32 32 24 23
57 57 57 57 57 57 57 57 57 57 55 52 39 38 46 46 44 38 30 32 36 41 40 37 33 32 32 34 35 31 32 38 43 43 44 40 34 32 38 36 35 37 35 36 36 31 26
57 57 57 57 57 57 57 57 56 56 55 46 37 32 47 44 34 28 28 35 40 38 41 39 38 41 38 36 35 36 35 39 44 43 37 41 37 30 34 41 43 39 36 37 28 28 29
57 56 56 57 56 56 57 57 56 56 53 39 34 33 43 43 28 25 32 35 38 39 39 40 40 41 42 37 34 36 37 45 45 41 38 39 30 24 30 34 37 35 37 38 37 33 28
57 56 56 56 56 56 56 57 56 55 55 40 35 30 35 35 33 30 29 32 35 41 40 40 39 40 39 37 37 34 36 42 43 42 48 44 32 29 23 30 33 32 35 35 34 26 28
56 56 56 56 56 56 56 55 55 55 55 42 34 31 33 26 32 30 31 32 34 35 40 40 39 37 34 33 35 33 35 39 43 45 40 39 29 26 32 35 34 34 33 33 29 31 29
56 56 56 55 56 56 56 55 55 55 54 39 34 32 32 30 32 30 33 32 34 36 36 36 36 37 37 33 32 31 34 33 33 38 35 37 28 30 30 33 33 33 34 34 34 32 32
56 56 55 55 56 56 55 55 55 54 50 38 37 38 36 32 30 30 30 32 36 36 39 40 37 35 36 37 39 39 39 38 37 33 35 34 30 27 24 30 32 29 34 33 34 34 34
56 55 55 55 56 55 55 54 54 54 51 41 39 38 34 30 31 33 35 36 36 36 34 39 38 36 40 41 38 36 34 36 36 37 37 33 30 27 22 26 19 33 36 36 36 38 38
56 56 55 55 55 55 55 55 54 54 51 41 39 39 35 30 31 32 33 35 35 35 35 37 40 42 40 37 36 32 31 33 33 34 34 35 31 28 22 19 29 30 36 36 35 37 40
56 55 55 55 54 54 54 55 54 54 53 41 38 39 37 33 32 35 34 33 32 30 33 37 40 41 40 36 33 27 25 27 28 32 34 35 33 29 24 21 23 32 35 39 39 30 40
57 55 55 54 54 54 54 54 54 54 52 43 39 39 38 32 33 35 33 33 35 31 32 32 36 37 37 32 30 26 26 28 24 23 26 28 28 25 25 21 28 35 37 38 29 34 38
56 55 54 54 54 54 54 54 54 54 53 45 40 39 39 32 33 37 39 35 34 34 33 36 35 35 33 31 30 28 25 28 24 28 28 28 25 24 24 21 21 38 37 34 39 37 38
56 55 54 54 53 53 54 54 54 54 53 48 39 41 41 37 36 37 39 39 41 39 36 34 34 34 35 29 28 29 29 25 25 24 27 25 32 29 30 31 39 38 40 41 40 40 39

GFSGBSN_sfc_temp_117.txt.gz
Temp
64 63 63 63 63 63 62 62 62 61 61 60 59 59 58 58 59 60 61 60 60 61 61 62 62 59 54 47 48 61 67 67 61 58 53 50 45 43 38 40 42 40 41 44 46 45 45
64 63 63 63 63 62 62 62 61 61 60 60 60 59 59 59 59 59 60 60 60 60 61 62 60 59 53 44 55 60 61 61 59 56 52 51 47 47 41 40 40 41 41 42 44 44 45
63 62 62 62 62 62 61 61 61 61 60 60 59 58 57 57 58 58 59 60 60 61 61 61 58 56 51 45 56 57 59 58 59 57 51 53 52 47 45 39 44 42 38 40 42 43 42
63 62 62 62 61 61 61 61 60 60 60 60 59 59 58 56 57 58 58 58 59 59 60 60 59 53 44 55 55 53 60 56 58 58 55 54 53 47 45 45 40 36 36 34 42 43 45
62 61 61 61 61 61 61 60 60 60 59 59 59 58 58 57 56 58 58 59 60 60 60 60 53 50 42 55 51 56 60 54 55 55 56 58 52 45 44 35 32 33 29 30 35 43 42
62 61 61 61 60 61 61 60 59 60 59 59 58 58 57 56 57 56 58 59 59 57 57 57 54 45 47 45 50 55 58 56 51 50 48 46 42 36 36 31 28 28 28 32 32 39 41
61 61 61 60 60 60 61 60 60 60 59 59 58 58 58 58 57 56 52 49 44 42 47 42 44 44 46 50 56 53 56 53 50 45 36 41 32 27 33 35 34 34 33 31 36 41 37
61 60 61 60 60 60 60 59 59 59 59 59 58 58 58 58 57 57 50 43 44 46 36 46 47 46 49 51 45 50 56 44 42 34 38 34 28 36 38 36 34 33 30 30 36 40 38
60 60 60 60 60 59 59 59 59 59 58 58 58 57 57 58 57 52 48 46 51 50 36 40 45 44 45 50 43 45 51 45 39 35 35 31 36 39 38 35 32 31 30 31 33 39 42
60 60 60 59 59 59 59 59 59 59 58 58 58 58 56 57 51 48 44 50 50 50 32 34 40 43 48 49 41 51 51 46 40 35 35 34 39 37 35 33 35 30 37 37 36 35 29
59 59 59 59 59 59 58 58 59 58 58 57 57 57 57 54 45 43 47 48 48 45 17 37 41 53 49 43 43 44 50 46 36 36 36 34 35 35 34 35 37 35 41 37 36 34 32
59 59 59 59 59 59 58 58 58 58 57 57 57 57 55 48 44 46 46 45 44 26 19 33 41 39 40 41 41 43 44 46 43 37 36 35 41 39 38 40 40 42 37 37 36 35 27
58 59 59 58 58 58 58 58 58 58 57 57 56 56 51 50 42 46 45 39 25 22 35 30 34 37 36 35 36 37 35 33 31 24 25 34 35 39 41 36 39 38 34 22 21 25 23
58 58 58 58 58 58 58 58 58 57 57 56 55 53 50 50 46 44 41 32 22 32 30 36 35 35 33 35 34 34 34 30 34 33 27 24 24 36 40 38 38 37 36 25 18 21 25
57 57 57 57 58 58 58 58 58 57 56 55 53 42 43 45 46 42 37 28 28 33 34 33 34 30 30 34 34 33 30 31 37 35 28 32 26 40 40 42 43 36 33 39 31 32 28
58 57 58 58 58 57 58 58 58 57 56 55 40 39 42 46 44 41 34 33 31 37 37 36 30 31 27 31 31 30 31 39 39 40 39 37 29 37 41 44 43 39 42 32 32 23 22
58 57 57 58 57 57 57 58 58 57 56 54 39 39 47 45 44 38 30 33 35 40 39 37 32 32 32 34 34 31 33 40 43 43 44 39 34 33 39 37 36 37 35 35 35 32 26
58 57 57 57 56 56 56 57 57 57 54 45 37 33 47 44 34 28 26 33 40 37 40 39 37 38 36 36 37 36 35 39 44 43 38 41 37 30 34 41 44 40 37 37 30 29 30
58 57 57 56 56 56 56 56 57 56 53 39 34 34 43 43 29 25 32 35 36 38 38 38 37 39 39 35 32 35 37 44 44 42 39 40 32 26 31 36 39 37 39 39 38 34 30
58 57 57 56 56 56 56 56 56 56 54 39 35 31 35 35 32 32 29 32 35 40 38 39 38 39 37 35 36 33 36 41 43 42 47 44 33 30 26 32 35 32 36 36 34 28 30
57 57 57 56 56 56 56 55 55 55 54 41 33 31 32 26 32 29 31 32 33 34 38 40 37 36 33 31 32 32 34 37 41 44 40 38 29 27 32 34 35 34 35 34 30 33 30
57 57 56 56 56 56 56 55 55 54 53 38 34 32 31 30 31 30 33 31 33 34 35 36 35 37 36 33 35 32 33 33 33 37 34 36 28 30 30 35 34 32 36 35 35 34 33
57 56 56 56 55 56 55 54 54 54 49 37 35 36 36 32 30 29 31 33 36 35 38 38 36 34 34 37 39 39 39 37 36 33 34 33 30 28 24 30 32 30 34 36 36 37 35
57 56 56 56 55 55 55 55 54 53 49 40 38 37 34 30 31 33 33 34 35 35 34 38 37 34 39 40 37 34 32 35 34 34 35 33 30 28 24 28 20 34 37 37 37 38 37
57 57 56 55 55 55 55 54 54 53 51 41 38 38 34 30 31 32 32 33 34 34 34 36 39 41 39 38 35 32 31 32 33 34 33 34 31 28 23 20 30 32 36 36 36 38 40
57 56 56 55 54 54 54 54 54 53 51 41 38 38 37 33 32 35 32 32 31 28 33 36 39 40 38 34 33 27 26 26 27 31 33 33 32 29 24 20 23 34 36 40 40 32 41
56 56 56 55 54 54 54 54 54 54 52 43 38 39 38 33 33 35 33 33 34 31 31 32 35 35 37 31 30 26 26 27 25 24 26 28 27 25 26 22 28 35 38 39 31 36 40
56 56 55 55 54 54 54 54 54 54 53 45 39 39 39 32 34 36 38 34 33 32 31 35 35 34 32 31 30 28 25 27 24 26 26 28 24 23 24 21 22 38 38 36 40 38 40
55 55 55 54 54 54 54 54 54 54 53 48 39 41 41 37 37 37 39 39 41 40 36 33 34 33 34 28 28 29 28 24 24 24 27 26 30 28 29 30 37 37 39 41 40 42 40